<?xml version="1.0" encoding="UTF-8" standalone="no" ?>
<gpx xmlns="http://www.topografix.com/GPX/1/1" xmlns:xsi="http://www.w3.org/2001/XMLSchema-instance" xsi:schemaLocation="http://www.topografix.com/GPX/1/1 http://www.topografix.com/GPX/1/1/gpx.xsd" version="1.1" creator="VisuGPX - https://www.visugpx.com">
  <metadata>
    <name>Saint Gervais Gorgonnet 150819</name>
  </metadata>
  <trk>
    <name><![CDATA[Saint Gervais Gorgonnet 150819_1]]></name>
    <trkseg>
      <trkpt lat="45.20621" lon="5.46509">
        <ele>172.66</ele>
        <time>2019-08-15T06:42:42.000Z</time>
      </trkpt>
      <trkpt lat="45.20615" lon="5.46504">
        <ele>181.9</ele>
        <time>2019-08-15T06:42:42.000Z</time>
      </trkpt>
      <trkpt lat="45.20621" lon="5.46509">
        <ele>172.66</ele>
        <time>2019-08-15T06:42:52.000Z</time>
      </trkpt>
      <trkpt lat="45.20623" lon="5.46519">
        <ele>173.61</ele>
        <time>2019-08-15T06:43:02.000Z</time>
      </trkpt>
      <trkpt lat="45.20631" lon="5.46531">
        <ele>174.42</ele>
        <time>2019-08-15T06:43:12.000Z</time>
      </trkpt>
      <trkpt lat="45.20637" lon="5.46541">
        <ele>174.67</ele>
        <time>2019-08-15T06:43:22.000Z</time>
      </trkpt>
      <trkpt lat="45.20644" lon="5.46553">
        <ele>173.73</ele>
        <time>2019-08-15T06:43:32.000Z</time>
      </trkpt>
      <trkpt lat="45.20653" lon="5.4657">
        <ele>177.53</ele>
        <time>2019-08-15T06:43:42.000Z</time>
      </trkpt>
      <trkpt lat="45.20656" lon="5.46584">
        <ele>179.41</ele>
        <time>2019-08-15T06:43:52.000Z</time>
      </trkpt>
      <trkpt lat="45.20663" lon="5.46594">
        <ele>177.85</ele>
        <time>2019-08-15T06:44:02.000Z</time>
      </trkpt>
      <trkpt lat="45.20667" lon="5.46604">
        <ele>176.58</ele>
        <time>2019-08-15T06:44:12.000Z</time>
      </trkpt>
      <trkpt lat="45.20677" lon="5.46619">
        <ele>179.47</ele>
        <time>2019-08-15T06:44:22.000Z</time>
      </trkpt>
      <trkpt lat="45.20681" lon="5.4663">
        <ele>179</ele>
        <time>2019-08-15T06:44:32.000Z</time>
      </trkpt>
      <trkpt lat="45.20689" lon="5.4664">
        <ele>177.69</ele>
        <time>2019-08-15T06:44:42.000Z</time>
      </trkpt>
      <trkpt lat="45.20692" lon="5.4665">
        <ele>177.64</ele>
        <time>2019-08-15T06:44:52.000Z</time>
      </trkpt>
      <trkpt lat="45.20701" lon="5.46661">
        <ele>178.36</ele>
        <time>2019-08-15T06:45:02.000Z</time>
      </trkpt>
      <trkpt lat="45.20708" lon="5.46675">
        <ele>177.52</ele>
        <time>2019-08-15T06:45:12.000Z</time>
      </trkpt>
      <trkpt lat="45.20717" lon="5.46687">
        <ele>176.72</ele>
        <time>2019-08-15T06:45:22.000Z</time>
      </trkpt>
      <trkpt lat="45.20725" lon="5.467">
        <ele>176.64</ele>
        <time>2019-08-15T06:45:32.000Z</time>
      </trkpt>
      <trkpt lat="45.20734" lon="5.46716">
        <ele>176.2</ele>
        <time>2019-08-15T06:45:42.000Z</time>
      </trkpt>
      <trkpt lat="45.20745" lon="5.46731">
        <ele>172.16</ele>
        <time>2019-08-15T06:45:52.000Z</time>
      </trkpt>
      <trkpt lat="45.20754" lon="5.46746">
        <ele>175.66</ele>
        <time>2019-08-15T06:46:02.000Z</time>
      </trkpt>
      <trkpt lat="45.20761" lon="5.46757">
        <ele>178.48</ele>
        <time>2019-08-15T06:46:12.000Z</time>
      </trkpt>
      <trkpt lat="45.20767" lon="5.46765">
        <ele>178.52</ele>
        <time>2019-08-15T06:46:22.000Z</time>
      </trkpt>
      <trkpt lat="45.20771" lon="5.46771">
        <ele>179.51</ele>
        <time>2019-08-15T06:46:32.000Z</time>
      </trkpt>
      <trkpt lat="45.2078" lon="5.46779">
        <ele>179.64</ele>
        <time>2019-08-15T06:46:42.000Z</time>
      </trkpt>
      <trkpt lat="45.20786" lon="5.46793">
        <ele>181.71</ele>
        <time>2019-08-15T06:46:52.000Z</time>
      </trkpt>
      <trkpt lat="45.20795" lon="5.46807">
        <ele>182.04</ele>
        <time>2019-08-15T06:47:02.000Z</time>
      </trkpt>
      <trkpt lat="45.20802" lon="5.4682">
        <ele>184.06</ele>
        <time>2019-08-15T06:47:12.000Z</time>
      </trkpt>
      <trkpt lat="45.20808" lon="5.46835">
        <ele>183.27</ele>
        <time>2019-08-15T06:47:22.000Z</time>
      </trkpt>
      <trkpt lat="45.20816" lon="5.46848">
        <ele>183.64</ele>
        <time>2019-08-15T06:47:32.000Z</time>
      </trkpt>
      <trkpt lat="45.20825" lon="5.46861">
        <ele>182.68</ele>
        <time>2019-08-15T06:47:42.000Z</time>
      </trkpt>
      <trkpt lat="45.20834" lon="5.46876">
        <ele>185.06</ele>
        <time>2019-08-15T06:47:52.000Z</time>
      </trkpt>
      <trkpt lat="45.20843" lon="5.46888">
        <ele>185.71</ele>
        <time>2019-08-15T06:48:02.000Z</time>
      </trkpt>
      <trkpt lat="45.20851" lon="5.46902">
        <ele>184.87</ele>
        <time>2019-08-15T06:48:12.000Z</time>
      </trkpt>
      <trkpt lat="45.20859" lon="5.46914">
        <ele>184.65</ele>
        <time>2019-08-15T06:48:22.000Z</time>
      </trkpt>
      <trkpt lat="45.20868" lon="5.46929">
        <ele>185.18</ele>
        <time>2019-08-15T06:48:32.000Z</time>
      </trkpt>
      <trkpt lat="45.20876" lon="5.46943">
        <ele>185.66</ele>
        <time>2019-08-15T06:48:42.000Z</time>
      </trkpt>
      <trkpt lat="45.20886" lon="5.46956">
        <ele>182.86</ele>
        <time>2019-08-15T06:48:52.000Z</time>
      </trkpt>
      <trkpt lat="45.2089" lon="5.46968">
        <ele>181.65</ele>
        <time>2019-08-15T06:49:02.000Z</time>
      </trkpt>
      <trkpt lat="45.20899" lon="5.4698">
        <ele>181.51</ele>
        <time>2019-08-15T06:49:12.000Z</time>
      </trkpt>
      <trkpt lat="45.20908" lon="5.4699">
        <ele>181.04</ele>
        <time>2019-08-15T06:49:22.000Z</time>
      </trkpt>
      <trkpt lat="45.20915" lon="5.47005">
        <ele>182.93</ele>
        <time>2019-08-15T06:49:32.000Z</time>
      </trkpt>
      <trkpt lat="45.20925" lon="5.47018">
        <ele>181.96</ele>
        <time>2019-08-15T06:49:42.000Z</time>
      </trkpt>
      <trkpt lat="45.20935" lon="5.47031">
        <ele>180.88</ele>
        <time>2019-08-15T06:49:52.000Z</time>
      </trkpt>
      <trkpt lat="45.20943" lon="5.47046">
        <ele>179.72</ele>
        <time>2019-08-15T06:50:02.000Z</time>
      </trkpt>
      <trkpt lat="45.20954" lon="5.47062">
        <ele>180.12</ele>
        <time>2019-08-15T06:50:12.000Z</time>
      </trkpt>
      <trkpt lat="45.20961" lon="5.47073">
        <ele>180.68</ele>
        <time>2019-08-15T06:50:22.000Z</time>
      </trkpt>
      <trkpt lat="45.2097" lon="5.47086">
        <ele>180.42</ele>
        <time>2019-08-15T06:50:32.000Z</time>
      </trkpt>
      <trkpt lat="45.20976" lon="5.47098">
        <ele>178.29</ele>
        <time>2019-08-15T06:50:42.000Z</time>
      </trkpt>
      <trkpt lat="45.20987" lon="5.47114">
        <ele>177.69</ele>
        <time>2019-08-15T06:50:52.000Z</time>
      </trkpt>
      <trkpt lat="45.21" lon="5.47131">
        <ele>177.95</ele>
        <time>2019-08-15T06:51:02.000Z</time>
      </trkpt>
      <trkpt lat="45.2101" lon="5.47144">
        <ele>178.31</ele>
        <time>2019-08-15T06:51:12.000Z</time>
      </trkpt>
      <trkpt lat="45.2102" lon="5.47157">
        <ele>181.18</ele>
        <time>2019-08-15T06:51:22.000Z</time>
      </trkpt>
      <trkpt lat="45.21027" lon="5.4717">
        <ele>179.32</ele>
        <time>2019-08-15T06:51:32.000Z</time>
      </trkpt>
      <trkpt lat="45.21035" lon="5.47184">
        <ele>180.08</ele>
        <time>2019-08-15T06:51:42.000Z</time>
      </trkpt>
      <trkpt lat="45.2104" lon="5.47196">
        <ele>178.98</ele>
        <time>2019-08-15T06:51:52.000Z</time>
      </trkpt>
      <trkpt lat="45.2105" lon="5.47211">
        <ele>179.44</ele>
        <time>2019-08-15T06:52:02.000Z</time>
      </trkpt>
      <trkpt lat="45.21061" lon="5.47225">
        <ele>177.73</ele>
        <time>2019-08-15T06:52:12.000Z</time>
      </trkpt>
      <trkpt lat="45.2107" lon="5.47238">
        <ele>177.22</ele>
        <time>2019-08-15T06:52:22.000Z</time>
      </trkpt>
      <trkpt lat="45.21076" lon="5.47252">
        <ele>176.21</ele>
        <time>2019-08-15T06:52:32.000Z</time>
      </trkpt>
      <trkpt lat="45.21085" lon="5.47266">
        <ele>177.67</ele>
        <time>2019-08-15T06:52:42.000Z</time>
      </trkpt>
      <trkpt lat="45.21093" lon="5.47279">
        <ele>177.65</ele>
        <time>2019-08-15T06:52:52.000Z</time>
      </trkpt>
      <trkpt lat="45.21101" lon="5.47291">
        <ele>176.59</ele>
        <time>2019-08-15T06:53:02.000Z</time>
      </trkpt>
      <trkpt lat="45.21109" lon="5.47305">
        <ele>174.8</ele>
        <time>2019-08-15T06:53:12.000Z</time>
      </trkpt>
      <trkpt lat="45.21118" lon="5.4732">
        <ele>178.5</ele>
        <time>2019-08-15T06:53:22.000Z</time>
      </trkpt>
      <trkpt lat="45.21125" lon="5.47333">
        <ele>180.5</ele>
        <time>2019-08-15T06:53:32.000Z</time>
      </trkpt>
      <trkpt lat="45.21132" lon="5.47343">
        <ele>180.2</ele>
        <time>2019-08-15T06:53:42.000Z</time>
      </trkpt>
      <trkpt lat="45.21141" lon="5.47356">
        <ele>179.43</ele>
        <time>2019-08-15T06:53:52.000Z</time>
      </trkpt>
      <trkpt lat="45.21148" lon="5.47366">
        <ele>178.11</ele>
        <time>2019-08-15T06:54:02.000Z</time>
      </trkpt>
      <trkpt lat="45.21154" lon="5.47372">
        <ele>178.7</ele>
        <time>2019-08-15T06:54:12.000Z</time>
      </trkpt>
      <trkpt lat="45.21162" lon="5.47383">
        <ele>178.86</ele>
        <time>2019-08-15T06:54:22.000Z</time>
      </trkpt>
      <trkpt lat="45.21169" lon="5.47397">
        <ele>180.18</ele>
        <time>2019-08-15T06:54:32.000Z</time>
      </trkpt>
      <trkpt lat="45.21179" lon="5.47409">
        <ele>180.65</ele>
        <time>2019-08-15T06:54:42.000Z</time>
      </trkpt>
      <trkpt lat="45.21187" lon="5.47422">
        <ele>179.59</ele>
        <time>2019-08-15T06:54:52.000Z</time>
      </trkpt>
      <trkpt lat="45.21195" lon="5.47434">
        <ele>179.91</ele>
        <time>2019-08-15T06:55:02.000Z</time>
      </trkpt>
      <trkpt lat="45.21205" lon="5.47449">
        <ele>181.65</ele>
        <time>2019-08-15T06:55:12.000Z</time>
      </trkpt>
      <trkpt lat="45.21216" lon="5.47462">
        <ele>181.23</ele>
        <time>2019-08-15T06:55:22.000Z</time>
      </trkpt>
      <trkpt lat="45.21226" lon="5.47475">
        <ele>182.07</ele>
        <time>2019-08-15T06:55:32.000Z</time>
      </trkpt>
      <trkpt lat="45.21236" lon="5.47488">
        <ele>182.75</ele>
        <time>2019-08-15T06:55:42.000Z</time>
      </trkpt>
      <trkpt lat="45.21244" lon="5.47501">
        <ele>181.48</ele>
        <time>2019-08-15T06:55:52.000Z</time>
      </trkpt>
      <trkpt lat="45.21254" lon="5.47512">
        <ele>181.01</ele>
        <time>2019-08-15T06:56:02.000Z</time>
      </trkpt>
      <trkpt lat="45.21262" lon="5.47523">
        <ele>179</ele>
        <time>2019-08-15T06:56:12.000Z</time>
      </trkpt>
      <trkpt lat="45.21272" lon="5.47538">
        <ele>179.62</ele>
        <time>2019-08-15T06:56:22.000Z</time>
      </trkpt>
      <trkpt lat="45.21283" lon="5.4755">
        <ele>180.58</ele>
        <time>2019-08-15T06:56:32.000Z</time>
      </trkpt>
      <trkpt lat="45.21294" lon="5.4756">
        <ele>178.9</ele>
        <time>2019-08-15T06:56:42.000Z</time>
      </trkpt>
      <trkpt lat="45.21304" lon="5.47575">
        <ele>179.06</ele>
        <time>2019-08-15T06:56:52.000Z</time>
      </trkpt>
      <trkpt lat="45.21315" lon="5.47585">
        <ele>178.67</ele>
        <time>2019-08-15T06:57:02.000Z</time>
      </trkpt>
      <trkpt lat="45.21324" lon="5.47596">
        <ele>178.69</ele>
        <time>2019-08-15T06:57:12.000Z</time>
      </trkpt>
      <trkpt lat="45.21337" lon="5.47609">
        <ele>180.25</ele>
        <time>2019-08-15T06:57:22.000Z</time>
      </trkpt>
      <trkpt lat="45.21349" lon="5.47618">
        <ele>180.8</ele>
        <time>2019-08-15T06:57:32.000Z</time>
      </trkpt>
      <trkpt lat="45.2136" lon="5.47629">
        <ele>180.78</ele>
        <time>2019-08-15T06:57:42.000Z</time>
      </trkpt>
      <trkpt lat="45.21371" lon="5.47639">
        <ele>180.67</ele>
        <time>2019-08-15T06:57:52.000Z</time>
      </trkpt>
      <trkpt lat="45.21381" lon="5.47648">
        <ele>180.4</ele>
        <time>2019-08-15T06:58:02.000Z</time>
      </trkpt>
      <trkpt lat="45.21392" lon="5.4766">
        <ele>181.44</ele>
        <time>2019-08-15T06:58:12.000Z</time>
      </trkpt>
      <trkpt lat="45.21403" lon="5.47668">
        <ele>181.59</ele>
        <time>2019-08-15T06:58:22.000Z</time>
      </trkpt>
      <trkpt lat="45.21413" lon="5.47677">
        <ele>182.66</ele>
        <time>2019-08-15T06:58:32.000Z</time>
      </trkpt>
      <trkpt lat="45.21425" lon="5.47688">
        <ele>181.67</ele>
        <time>2019-08-15T06:58:42.000Z</time>
      </trkpt>
      <trkpt lat="45.21436" lon="5.47697">
        <ele>180.79</ele>
        <time>2019-08-15T06:58:52.000Z</time>
      </trkpt>
      <trkpt lat="45.21444" lon="5.47707">
        <ele>181.07</ele>
        <time>2019-08-15T06:59:02.000Z</time>
      </trkpt>
      <trkpt lat="45.21457" lon="5.47719">
        <ele>180.28</ele>
        <time>2019-08-15T06:59:12.000Z</time>
      </trkpt>
      <trkpt lat="45.21468" lon="5.4773">
        <ele>180.7</ele>
        <time>2019-08-15T06:59:22.000Z</time>
      </trkpt>
      <trkpt lat="45.21478" lon="5.47737">
        <ele>179.68</ele>
        <time>2019-08-15T06:59:32.000Z</time>
      </trkpt>
      <trkpt lat="45.21491" lon="5.47747">
        <ele>179.73</ele>
        <time>2019-08-15T06:59:42.000Z</time>
      </trkpt>
      <trkpt lat="45.21503" lon="5.47759">
        <ele>180.09</ele>
        <time>2019-08-15T06:59:52.000Z</time>
      </trkpt>
      <trkpt lat="45.21514" lon="5.4777">
        <ele>181.19</ele>
        <time>2019-08-15T07:00:02.000Z</time>
      </trkpt>
      <trkpt lat="45.21525" lon="5.4778">
        <ele>180.83</ele>
        <time>2019-08-15T07:00:12.000Z</time>
      </trkpt>
      <trkpt lat="45.21535" lon="5.47789">
        <ele>180.32</ele>
        <time>2019-08-15T07:00:22.000Z</time>
      </trkpt>
      <trkpt lat="45.21544" lon="5.478">
        <ele>179.08</ele>
        <time>2019-08-15T07:00:32.000Z</time>
      </trkpt>
      <trkpt lat="45.21557" lon="5.47811">
        <ele>177.69</ele>
        <time>2019-08-15T07:00:42.000Z</time>
      </trkpt>
      <trkpt lat="45.21568" lon="5.47822">
        <ele>179.45</ele>
        <time>2019-08-15T07:00:52.000Z</time>
      </trkpt>
      <trkpt lat="45.21579" lon="5.47833">
        <ele>178.15</ele>
        <time>2019-08-15T07:01:02.000Z</time>
      </trkpt>
      <trkpt lat="45.2159" lon="5.47844">
        <ele>176.95</ele>
        <time>2019-08-15T07:01:12.000Z</time>
      </trkpt>
      <trkpt lat="45.21602" lon="5.47854">
        <ele>177.07</ele>
        <time>2019-08-15T07:01:22.000Z</time>
      </trkpt>
      <trkpt lat="45.21614" lon="5.47866">
        <ele>179.4</ele>
        <time>2019-08-15T07:01:32.000Z</time>
      </trkpt>
      <trkpt lat="45.21625" lon="5.47875">
        <ele>179.89</ele>
        <time>2019-08-15T07:01:42.000Z</time>
      </trkpt>
      <trkpt lat="45.21635" lon="5.47885">
        <ele>181.49</ele>
        <time>2019-08-15T07:01:52.000Z</time>
      </trkpt>
      <trkpt lat="45.21648" lon="5.47896">
        <ele>180.13</ele>
        <time>2019-08-15T07:02:02.000Z</time>
      </trkpt>
      <trkpt lat="45.21658" lon="5.47906">
        <ele>182.18</ele>
        <time>2019-08-15T07:02:12.000Z</time>
      </trkpt>
      <trkpt lat="45.21669" lon="5.47917">
        <ele>182.06</ele>
        <time>2019-08-15T07:02:22.000Z</time>
      </trkpt>
      <trkpt lat="45.21682" lon="5.47928">
        <ele>180.68</ele>
        <time>2019-08-15T07:02:32.000Z</time>
      </trkpt>
      <trkpt lat="45.21693" lon="5.47938">
        <ele>182.06</ele>
        <time>2019-08-15T07:02:42.000Z</time>
      </trkpt>
      <trkpt lat="45.21704" lon="5.47947">
        <ele>183.45</ele>
        <time>2019-08-15T07:02:52.000Z</time>
      </trkpt>
      <trkpt lat="45.21716" lon="5.47958">
        <ele>182.3</ele>
        <time>2019-08-15T07:03:02.000Z</time>
      </trkpt>
      <trkpt lat="45.21727" lon="5.47969">
        <ele>184.08</ele>
        <time>2019-08-15T07:03:12.000Z</time>
      </trkpt>
      <trkpt lat="45.21737" lon="5.47978">
        <ele>186.51</ele>
        <time>2019-08-15T07:03:22.000Z</time>
      </trkpt>
      <trkpt lat="45.21747" lon="5.4799">
        <ele>184.65</ele>
        <time>2019-08-15T07:03:32.000Z</time>
      </trkpt>
      <trkpt lat="45.21759" lon="5.48003">
        <ele>183.22</ele>
        <time>2019-08-15T07:03:42.000Z</time>
      </trkpt>
      <trkpt lat="45.2177" lon="5.48015">
        <ele>184.6</ele>
        <time>2019-08-15T07:03:52.000Z</time>
      </trkpt>
      <trkpt lat="45.2178" lon="5.48027">
        <ele>183.49</ele>
        <time>2019-08-15T07:04:02.000Z</time>
      </trkpt>
      <trkpt lat="45.21788" lon="5.48042">
        <ele>183.67</ele>
        <time>2019-08-15T07:04:12.000Z</time>
      </trkpt>
      <trkpt lat="45.21797" lon="5.48054">
        <ele>181.53</ele>
        <time>2019-08-15T07:04:22.000Z</time>
      </trkpt>
      <trkpt lat="45.21808" lon="5.4807">
        <ele>180.68</ele>
        <time>2019-08-15T07:04:32.000Z</time>
      </trkpt>
      <trkpt lat="45.21818" lon="5.48083">
        <ele>180.87</ele>
        <time>2019-08-15T07:04:42.000Z</time>
      </trkpt>
      <trkpt lat="45.21822" lon="5.48098">
        <ele>180.04</ele>
        <time>2019-08-15T07:04:52.000Z</time>
      </trkpt>
      <trkpt lat="45.21829" lon="5.48114">
        <ele>176.79</ele>
        <time>2019-08-15T07:05:02.000Z</time>
      </trkpt>
      <trkpt lat="45.21836" lon="5.48131">
        <ele>175.81</ele>
        <time>2019-08-15T07:05:12.000Z</time>
      </trkpt>
      <trkpt lat="45.21844" lon="5.48145">
        <ele>177.86</ele>
        <time>2019-08-15T07:05:22.000Z</time>
      </trkpt>
      <trkpt lat="45.2185" lon="5.4816">
        <ele>178.77</ele>
        <time>2019-08-15T07:05:32.000Z</time>
      </trkpt>
      <trkpt lat="45.21857" lon="5.48175">
        <ele>178.68</ele>
        <time>2019-08-15T07:05:42.000Z</time>
      </trkpt>
      <trkpt lat="45.21862" lon="5.48191">
        <ele>177.72</ele>
        <time>2019-08-15T07:05:52.000Z</time>
      </trkpt>
      <trkpt lat="45.21869" lon="5.48208">
        <ele>177.25</ele>
        <time>2019-08-15T07:06:02.000Z</time>
      </trkpt>
      <trkpt lat="45.21877" lon="5.48222">
        <ele>176.76</ele>
        <time>2019-08-15T07:06:12.000Z</time>
      </trkpt>
      <trkpt lat="45.21883" lon="5.48239">
        <ele>176.68</ele>
        <time>2019-08-15T07:06:22.000Z</time>
      </trkpt>
      <trkpt lat="45.21893" lon="5.48257">
        <ele>178.38</ele>
        <time>2019-08-15T07:06:32.000Z</time>
      </trkpt>
      <trkpt lat="45.21899" lon="5.48272">
        <ele>177.6</ele>
        <time>2019-08-15T07:06:42.000Z</time>
      </trkpt>
      <trkpt lat="45.21909" lon="5.48289">
        <ele>178.08</ele>
        <time>2019-08-15T07:06:52.000Z</time>
      </trkpt>
      <trkpt lat="45.21918" lon="5.48304">
        <ele>179.18</ele>
        <time>2019-08-15T07:07:02.000Z</time>
      </trkpt>
      <trkpt lat="45.21926" lon="5.48319">
        <ele>179.68</ele>
        <time>2019-08-15T07:07:12.000Z</time>
      </trkpt>
      <trkpt lat="45.21934" lon="5.48333">
        <ele>179.68</ele>
        <time>2019-08-15T07:07:22.000Z</time>
      </trkpt>
      <trkpt lat="45.21941" lon="5.48347">
        <ele>178.73</ele>
        <time>2019-08-15T07:07:32.000Z</time>
      </trkpt>
      <trkpt lat="45.2195" lon="5.48363">
        <ele>176.57</ele>
        <time>2019-08-15T07:07:42.000Z</time>
      </trkpt>
      <trkpt lat="45.21957" lon="5.48379">
        <ele>177.64</ele>
        <time>2019-08-15T07:07:52.000Z</time>
      </trkpt>
      <trkpt lat="45.21966" lon="5.48393">
        <ele>178.61</ele>
        <time>2019-08-15T07:08:02.000Z</time>
      </trkpt>
      <trkpt lat="45.21975" lon="5.48409">
        <ele>180.55</ele>
        <time>2019-08-15T07:08:12.000Z</time>
      </trkpt>
      <trkpt lat="45.21982" lon="5.48424">
        <ele>181.67</ele>
        <time>2019-08-15T07:08:22.000Z</time>
      </trkpt>
      <trkpt lat="45.2199" lon="5.4844">
        <ele>180.7</ele>
        <time>2019-08-15T07:08:32.000Z</time>
      </trkpt>
      <trkpt lat="45.21995" lon="5.48456">
        <ele>179.81</ele>
        <time>2019-08-15T07:08:42.000Z</time>
      </trkpt>
      <trkpt lat="45.22003" lon="5.48471">
        <ele>180.65</ele>
        <time>2019-08-15T07:08:52.000Z</time>
      </trkpt>
      <trkpt lat="45.22011" lon="5.48488">
        <ele>179.7</ele>
        <time>2019-08-15T07:09:02.000Z</time>
      </trkpt>
      <trkpt lat="45.22018" lon="5.48506">
        <ele>180.66</ele>
        <time>2019-08-15T07:09:12.000Z</time>
      </trkpt>
      <trkpt lat="45.22023" lon="5.48523">
        <ele>180.68</ele>
        <time>2019-08-15T07:09:22.000Z</time>
      </trkpt>
      <trkpt lat="45.22027" lon="5.48537">
        <ele>180.82</ele>
        <time>2019-08-15T07:09:32.000Z</time>
      </trkpt>
      <trkpt lat="45.22035" lon="5.48555">
        <ele>180.18</ele>
        <time>2019-08-15T07:09:42.000Z</time>
      </trkpt>
      <trkpt lat="45.22045" lon="5.48567">
        <ele>181.45</ele>
        <time>2019-08-15T07:09:52.000Z</time>
      </trkpt>
      <trkpt lat="45.22056" lon="5.48577">
        <ele>182.63</ele>
        <time>2019-08-15T07:10:02.000Z</time>
      </trkpt>
      <trkpt lat="45.22066" lon="5.48588">
        <ele>181.81</ele>
        <time>2019-08-15T07:10:12.000Z</time>
      </trkpt>
      <trkpt lat="45.22077" lon="5.48599">
        <ele>179.72</ele>
        <time>2019-08-15T07:10:22.000Z</time>
      </trkpt>
      <trkpt lat="45.22089" lon="5.48609">
        <ele>178.58</ele>
        <time>2019-08-15T07:10:32.000Z</time>
      </trkpt>
      <trkpt lat="45.22101" lon="5.48621">
        <ele>178.68</ele>
        <time>2019-08-15T07:10:42.000Z</time>
      </trkpt>
      <trkpt lat="45.22113" lon="5.48634">
        <ele>179.95</ele>
        <time>2019-08-15T07:10:52.000Z</time>
      </trkpt>
      <trkpt lat="45.22125" lon="5.48643">
        <ele>181.6</ele>
        <time>2019-08-15T07:11:02.000Z</time>
      </trkpt>
      <trkpt lat="45.22135" lon="5.48652">
        <ele>181.68</ele>
        <time>2019-08-15T07:11:12.000Z</time>
      </trkpt>
      <trkpt lat="45.22146" lon="5.48659">
        <ele>180.31</ele>
        <time>2019-08-15T07:11:22.000Z</time>
      </trkpt>
      <trkpt lat="45.22157" lon="5.48668">
        <ele>180.4</ele>
        <time>2019-08-15T07:11:32.000Z</time>
      </trkpt>
      <trkpt lat="45.22168" lon="5.48677">
        <ele>180.04</ele>
        <time>2019-08-15T07:11:42.000Z</time>
      </trkpt>
      <trkpt lat="45.2218" lon="5.48689">
        <ele>178.98</ele>
        <time>2019-08-15T07:11:52.000Z</time>
      </trkpt>
      <trkpt lat="45.22192" lon="5.48699">
        <ele>179.12</ele>
        <time>2019-08-15T07:12:02.000Z</time>
      </trkpt>
      <trkpt lat="45.22201" lon="5.48706">
        <ele>180.03</ele>
        <time>2019-08-15T07:12:12.000Z</time>
      </trkpt>
      <trkpt lat="45.22212" lon="5.48715">
        <ele>179.56</ele>
        <time>2019-08-15T07:12:22.000Z</time>
      </trkpt>
      <trkpt lat="45.22224" lon="5.48726">
        <ele>177.86</ele>
        <time>2019-08-15T07:12:32.000Z</time>
      </trkpt>
      <trkpt lat="45.22237" lon="5.48732">
        <ele>178.05</ele>
        <time>2019-08-15T07:12:42.000Z</time>
      </trkpt>
      <trkpt lat="45.22248" lon="5.4874">
        <ele>178.68</ele>
        <time>2019-08-15T07:12:52.000Z</time>
      </trkpt>
      <trkpt lat="45.22259" lon="5.48749">
        <ele>178.5</ele>
        <time>2019-08-15T07:13:02.000Z</time>
      </trkpt>
      <trkpt lat="45.22271" lon="5.48756">
        <ele>178.45</ele>
        <time>2019-08-15T07:13:12.000Z</time>
      </trkpt>
      <trkpt lat="45.22284" lon="5.48764">
        <ele>179.64</ele>
        <time>2019-08-15T07:13:22.000Z</time>
      </trkpt>
      <trkpt lat="45.22295" lon="5.4877">
        <ele>177.83</ele>
        <time>2019-08-15T07:13:32.000Z</time>
      </trkpt>
      <trkpt lat="45.22307" lon="5.48776">
        <ele>177.86</ele>
        <time>2019-08-15T07:13:42.000Z</time>
      </trkpt>
      <trkpt lat="45.22318" lon="5.48782">
        <ele>174.77</ele>
        <time>2019-08-15T07:13:52.000Z</time>
      </trkpt>
      <trkpt lat="45.22327" lon="5.48784">
        <ele>173.65</ele>
        <time>2019-08-15T07:14:02.000Z</time>
      </trkpt>
      <trkpt lat="45.22337" lon="5.48787">
        <ele>172.91</ele>
        <time>2019-08-15T07:14:12.000Z</time>
      </trkpt>
      <trkpt lat="45.22347" lon="5.48793">
        <ele>171.37</ele>
        <time>2019-08-15T07:14:22.000Z</time>
      </trkpt>
      <trkpt lat="45.22356" lon="5.48797">
        <ele>170.73</ele>
        <time>2019-08-15T07:14:32.000Z</time>
      </trkpt>
      <trkpt lat="45.22364" lon="5.48799">
        <ele>168.96</ele>
        <time>2019-08-15T07:14:42.000Z</time>
      </trkpt>
      <trkpt lat="45.22376" lon="5.48803">
        <ele>166.77</ele>
        <time>2019-08-15T07:14:52.000Z</time>
      </trkpt>
      <trkpt lat="45.22388" lon="5.48809">
        <ele>164.44</ele>
        <time>2019-08-15T07:15:02.000Z</time>
      </trkpt>
      <trkpt lat="45.224" lon="5.48811">
        <ele>161.79</ele>
        <time>2019-08-15T07:15:12.000Z</time>
      </trkpt>
      <trkpt lat="45.22415" lon="5.48815">
        <ele>159.78</ele>
        <time>2019-08-15T07:15:22.000Z</time>
      </trkpt>
      <trkpt lat="45.22432" lon="5.48817">
        <ele>158.83</ele>
        <time>2019-08-15T07:15:32.000Z</time>
      </trkpt>
      <trkpt lat="45.22447" lon="5.48818">
        <ele>160.47</ele>
        <time>2019-08-15T07:15:42.000Z</time>
      </trkpt>
      <trkpt lat="45.22463" lon="5.48816">
        <ele>163.04</ele>
        <time>2019-08-15T07:15:52.000Z</time>
      </trkpt>
      <trkpt lat="45.2248" lon="5.48814">
        <ele>164.69</ele>
        <time>2019-08-15T07:16:02.000Z</time>
      </trkpt>
      <trkpt lat="45.225" lon="5.48813">
        <ele>167.01</ele>
        <time>2019-08-15T07:16:12.000Z</time>
      </trkpt>
      <trkpt lat="45.22518" lon="5.4881">
        <ele>168.53</ele>
        <time>2019-08-15T07:16:22.000Z</time>
      </trkpt>
      <trkpt lat="45.22533" lon="5.48807">
        <ele>170.63</ele>
        <time>2019-08-15T07:16:32.000Z</time>
      </trkpt>
      <trkpt lat="45.22548" lon="5.48803">
        <ele>171.51</ele>
        <time>2019-08-15T07:16:42.000Z</time>
      </trkpt>
      <trkpt lat="45.2256" lon="5.48796">
        <ele>172.62</ele>
        <time>2019-08-15T07:16:52.000Z</time>
      </trkpt>
      <trkpt lat="45.22572" lon="5.48789">
        <ele>172.7</ele>
        <time>2019-08-15T07:17:02.000Z</time>
      </trkpt>
      <trkpt lat="45.22586" lon="5.4879">
        <ele>172.62</ele>
        <time>2019-08-15T07:17:12.000Z</time>
      </trkpt>
      <trkpt lat="45.22599" lon="5.48785">
        <ele>173.73</ele>
        <time>2019-08-15T07:17:22.000Z</time>
      </trkpt>
      <trkpt lat="45.22611" lon="5.48778">
        <ele>175.37</ele>
        <time>2019-08-15T07:17:32.000Z</time>
      </trkpt>
      <trkpt lat="45.22626" lon="5.48776">
        <ele>175.7</ele>
        <time>2019-08-15T07:17:42.000Z</time>
      </trkpt>
      <trkpt lat="45.22639" lon="5.48773">
        <ele>177.37</ele>
        <time>2019-08-15T07:17:52.000Z</time>
      </trkpt>
      <trkpt lat="45.22651" lon="5.4877">
        <ele>178.33</ele>
        <time>2019-08-15T07:18:02.000Z</time>
      </trkpt>
      <trkpt lat="45.22661" lon="5.48765">
        <ele>179.25</ele>
        <time>2019-08-15T07:18:12.000Z</time>
      </trkpt>
      <trkpt lat="45.22673" lon="5.48761">
        <ele>177.89</ele>
        <time>2019-08-15T07:18:22.000Z</time>
      </trkpt>
      <trkpt lat="45.22686" lon="5.48756">
        <ele>177.65</ele>
        <time>2019-08-15T07:18:32.000Z</time>
      </trkpt>
      <trkpt lat="45.22699" lon="5.48754">
        <ele>176.12</ele>
        <time>2019-08-15T07:18:42.000Z</time>
      </trkpt>
      <trkpt lat="45.22711" lon="5.48748">
        <ele>175.71</ele>
        <time>2019-08-15T07:18:52.000Z</time>
      </trkpt>
      <trkpt lat="45.22723" lon="5.48744">
        <ele>177.07</ele>
        <time>2019-08-15T07:19:02.000Z</time>
      </trkpt>
      <trkpt lat="45.22734" lon="5.48746">
        <ele>177.63</ele>
        <time>2019-08-15T07:19:12.000Z</time>
      </trkpt>
      <trkpt lat="45.22747" lon="5.4874">
        <ele>177.07</ele>
        <time>2019-08-15T07:19:22.000Z</time>
      </trkpt>
      <trkpt lat="45.22758" lon="5.48737">
        <ele>174.64</ele>
        <time>2019-08-15T07:19:32.000Z</time>
      </trkpt>
      <trkpt lat="45.22772" lon="5.48733">
        <ele>172.84</ele>
        <time>2019-08-15T07:19:42.000Z</time>
      </trkpt>
      <trkpt lat="45.22787" lon="5.48727">
        <ele>172.05</ele>
        <time>2019-08-15T07:19:52.000Z</time>
      </trkpt>
      <trkpt lat="45.228" lon="5.48723">
        <ele>174.65</ele>
        <time>2019-08-15T07:20:02.000Z</time>
      </trkpt>
      <trkpt lat="45.22811" lon="5.48722">
        <ele>175.58</ele>
        <time>2019-08-15T07:20:12.000Z</time>
      </trkpt>
      <trkpt lat="45.22825" lon="5.4872">
        <ele>177.28</ele>
        <time>2019-08-15T07:20:22.000Z</time>
      </trkpt>
      <trkpt lat="45.22839" lon="5.48721">
        <ele>176.8</ele>
        <time>2019-08-15T07:20:32.000Z</time>
      </trkpt>
      <trkpt lat="45.22854" lon="5.48722">
        <ele>176.21</ele>
        <time>2019-08-15T07:20:42.000Z</time>
      </trkpt>
      <trkpt lat="45.22869" lon="5.48718">
        <ele>177.09</ele>
        <time>2019-08-15T07:44:49.000Z</time>
      </trkpt>
      <trkpt lat="45.22886" lon="5.48711">
        <ele>177.56</ele>
        <time>2019-08-15T07:44:49.000Z</time>
      </trkpt>
      <trkpt lat="45.22906" lon="5.48708">
        <ele>179.63</ele>
        <time>2019-08-15T07:44:59.000Z</time>
      </trkpt>
      <trkpt lat="45.22922" lon="5.48711">
        <ele>180.76</ele>
        <time>2019-08-15T07:45:09.000Z</time>
      </trkpt>
      <trkpt lat="45.22932" lon="5.48712">
        <ele>181.14</ele>
        <time>2019-08-15T07:45:19.000Z</time>
      </trkpt>
      <trkpt lat="45.22944" lon="5.48713">
        <ele>179.87</ele>
        <time>2019-08-15T07:45:29.000Z</time>
      </trkpt>
      <trkpt lat="45.22956" lon="5.48712">
        <ele>179.16</ele>
        <time>2019-08-15T07:45:39.000Z</time>
      </trkpt>
      <trkpt lat="45.22967" lon="5.48713">
        <ele>179.71</ele>
        <time>2019-08-15T07:45:49.000Z</time>
      </trkpt>
      <trkpt lat="45.22978" lon="5.48714">
        <ele>179.08</ele>
        <time>2019-08-15T07:45:59.000Z</time>
      </trkpt>
      <trkpt lat="45.22991" lon="5.48715">
        <ele>177.08</ele>
        <time>2019-08-15T07:46:19.000Z</time>
      </trkpt>
      <trkpt lat="45.23003" lon="5.48718">
        <ele>175.12</ele>
        <time>2019-08-15T07:46:29.000Z</time>
      </trkpt>
      <trkpt lat="45.23013" lon="5.48723">
        <ele>173.01</ele>
        <time>2019-08-15T07:46:39.000Z</time>
      </trkpt>
      <trkpt lat="45.23027" lon="5.48728">
        <ele>171.71</ele>
        <time>2019-08-15T07:46:49.000Z</time>
      </trkpt>
      <trkpt lat="45.2304" lon="5.48732">
        <ele>172.36</ele>
        <time>2019-08-15T07:46:59.000Z</time>
      </trkpt>
      <trkpt lat="45.23054" lon="5.48733">
        <ele>172.06</ele>
        <time>2019-08-15T07:47:09.000Z</time>
      </trkpt>
      <trkpt lat="45.23065" lon="5.48737">
        <ele>170.61</ele>
        <time>2019-08-15T07:47:19.000Z</time>
      </trkpt>
      <trkpt lat="45.23078" lon="5.48744">
        <ele>169.94</ele>
        <time>2019-08-15T07:47:29.000Z</time>
      </trkpt>
      <trkpt lat="45.23092" lon="5.48752">
        <ele>169.91</ele>
        <time>2019-08-15T07:47:39.000Z</time>
      </trkpt>
      <trkpt lat="45.23102" lon="5.4876">
        <ele>167.33</ele>
        <time>2019-08-15T07:47:49.000Z</time>
      </trkpt>
      <trkpt lat="45.2315" lon="5.48794">
        <ele>183</ele>
        <time>2019-08-15T07:47:59.000Z</time>
      </trkpt>
      <trkpt lat="45.2318" lon="5.48822">
        <ele>183.2</ele>
        <time>2019-08-15T07:48:09.000Z</time>
      </trkpt>
      <trkpt lat="45.23217" lon="5.48848">
        <ele>183.3</ele>
        <time>2019-08-15T07:48:19.000Z</time>
      </trkpt>
      <trkpt lat="45.23266" lon="5.48888">
        <ele>182.4</ele>
        <time>2019-08-15T07:48:29.000Z</time>
      </trkpt>
      <trkpt lat="45.2331" lon="5.48925">
        <ele>183.3</ele>
        <time>2019-08-15T07:48:39.000Z</time>
      </trkpt>
      <trkpt lat="45.23362" lon="5.48996">
        <ele>182.1</ele>
        <time>2019-08-15T07:48:49.000Z</time>
      </trkpt>
      <trkpt lat="45.23378" lon="5.49029">
        <ele>181.4</ele>
        <time>2019-08-15T07:48:59.000Z</time>
      </trkpt>
      <trkpt lat="45.23394" lon="5.49047">
        <ele>181.3</ele>
        <time>2019-08-15T07:49:09.000Z</time>
      </trkpt>
      <trkpt lat="45.23413" lon="5.4908">
        <ele>181.9</ele>
        <time>2019-08-15T07:49:19.000Z</time>
      </trkpt>
      <trkpt lat="45.23445" lon="5.4913">
        <ele>181.6</ele>
        <time>2019-08-15T07:49:29.000Z</time>
      </trkpt>
      <trkpt lat="45.23466" lon="5.49172">
        <ele>182.9</ele>
        <time>2019-08-15T07:49:39.000Z</time>
      </trkpt>
      <trkpt lat="45.23492" lon="5.49212">
        <ele>183.2</ele>
        <time>2019-08-15T07:49:49.000Z</time>
      </trkpt>
      <trkpt lat="45.23544" lon="5.49301">
        <ele>183.1</ele>
        <time>2019-08-15T07:49:59.000Z</time>
      </trkpt>
      <trkpt lat="45.23574" lon="5.49352">
        <ele>184.5</ele>
        <time>2019-08-15T07:50:09.000Z</time>
      </trkpt>
      <trkpt lat="45.23609" lon="5.49413">
        <ele>183.7</ele>
        <time>2019-08-15T07:50:19.000Z</time>
      </trkpt>
      <trkpt lat="45.23666" lon="5.49507">
        <ele>182.1</ele>
        <time>2019-08-15T07:50:29.000Z</time>
      </trkpt>
      <trkpt lat="45.23697" lon="5.49573">
        <ele>181.7</ele>
        <time>2019-08-15T07:50:39.000Z</time>
      </trkpt>
      <trkpt lat="45.2372" lon="5.49627">
        <ele>182</ele>
        <time>2019-08-15T07:50:49.000Z</time>
      </trkpt>
      <trkpt lat="45.23741" lon="5.49672">
        <ele>181.8</ele>
        <time>2019-08-15T07:50:59.000Z</time>
      </trkpt>
      <trkpt lat="45.23758" lon="5.49705">
        <ele>181</ele>
        <time>2019-08-15T07:51:09.000Z</time>
      </trkpt>
      <trkpt lat="45.23768" lon="5.49732">
        <ele>180.9</ele>
        <time>2019-08-15T07:51:19.000Z</time>
      </trkpt>
      <trkpt lat="45.23782" lon="5.49756">
        <ele>180.8</ele>
        <time>2019-08-15T07:51:38.000Z</time>
      </trkpt>
      <trkpt lat="45.23791" lon="5.49779">
        <ele>180.7</ele>
        <time>2019-08-15T07:51:52.000Z</time>
      </trkpt>
      <trkpt lat="45.23799" lon="5.49793">
        <ele>180.7</ele>
        <time>2019-08-15T07:52:09.000Z</time>
      </trkpt>
      <trkpt lat="45.23804" lon="5.49808">
        <ele>180.7</ele>
        <time>2019-08-15T07:52:19.000Z</time>
      </trkpt>
      <trkpt lat="45.23815" lon="5.49833">
        <ele>180.4</ele>
        <time>2019-08-15T07:52:29.000Z</time>
      </trkpt>
      <trkpt lat="45.23821" lon="5.49854">
        <ele>181.1</ele>
        <time>2019-08-15T07:52:39.000Z</time>
      </trkpt>
      <trkpt lat="45.23833" lon="5.49871">
        <ele>181.4</ele>
        <time>2019-08-15T07:52:49.000Z</time>
      </trkpt>
      <trkpt lat="45.2385" lon="5.49894">
        <ele>180.9</ele>
        <time>2019-08-15T07:52:59.000Z</time>
      </trkpt>
      <trkpt lat="45.23864" lon="5.49918">
        <ele>181.4</ele>
        <time>2019-08-15T07:53:09.000Z</time>
      </trkpt>
      <trkpt lat="45.23886" lon="5.49958">
        <ele>181.1</ele>
        <time>2019-08-15T07:53:19.000Z</time>
      </trkpt>
      <trkpt lat="45.23901" lon="5.49984">
        <ele>180.8</ele>
        <time>2019-08-15T07:53:29.000Z</time>
      </trkpt>
      <trkpt lat="45.23929" lon="5.5003">
        <ele>180.5</ele>
        <time>2019-08-15T07:53:39.000Z</time>
      </trkpt>
      <trkpt lat="45.23958" lon="5.50064">
        <ele>180.6</ele>
        <time>2019-08-15T07:53:49.000Z</time>
      </trkpt>
      <trkpt lat="45.23976" lon="5.50092">
        <ele>181.3</ele>
        <time>2019-08-15T07:53:59.000Z</time>
      </trkpt>
      <trkpt lat="45.23994" lon="5.50115">
        <ele>181.6</ele>
        <time>2019-08-15T07:54:09.000Z</time>
      </trkpt>
      <trkpt lat="45.24003" lon="5.50125">
        <ele>181</ele>
        <time>2019-08-15T07:54:19.000Z</time>
      </trkpt>
      <trkpt lat="45.24031" lon="5.50159">
        <ele>181.3</ele>
        <time>2019-08-15T07:54:29.000Z</time>
      </trkpt>
      <trkpt lat="45.24016" lon="5.50197">
        <ele>182.7</ele>
        <time>2019-08-15T07:54:39.000Z</time>
      </trkpt>
      <trkpt lat="45.24004" lon="5.50221">
        <ele>183</ele>
        <time>2019-08-15T07:54:49.000Z</time>
      </trkpt>
      <trkpt lat="45.23991" lon="5.50249">
        <ele>183.8</ele>
        <time>2019-08-15T07:54:59.000Z</time>
      </trkpt>
      <trkpt lat="45.23979" lon="5.5027">
        <ele>184.3</ele>
        <time>2019-08-15T07:55:09.000Z</time>
      </trkpt>
      <trkpt lat="45.23966" lon="5.50298">
        <ele>184.6</ele>
        <time>2019-08-15T07:55:19.000Z</time>
      </trkpt>
      <trkpt lat="45.23941" lon="5.5033">
        <ele>185.1</ele>
        <time>2019-08-15T07:55:29.000Z</time>
      </trkpt>
      <trkpt lat="45.23958" lon="5.50359">
        <ele>186</ele>
        <time>2019-08-15T07:55:39.000Z</time>
      </trkpt>
      <trkpt lat="45.23954" lon="5.50366">
        <ele>186</ele>
        <time>2019-08-15T07:55:49.000Z</time>
      </trkpt>
      <trkpt lat="45.23948" lon="5.50375">
        <ele>186</ele>
        <time>2019-08-15T07:55:59.000Z</time>
      </trkpt>
      <trkpt lat="45.2394" lon="5.50363">
        <ele>185.7</ele>
        <time>2019-08-15T07:56:09.000Z</time>
      </trkpt>
      <trkpt lat="45.2394" lon="5.50364">
        <ele>174.91</ele>
        <time>2019-08-15T07:56:19.000Z</time>
      </trkpt>
      <trkpt lat="45.2394" lon="5.50364">
        <ele>174.91</ele>
        <time>2019-08-15T07:56:29.000Z</time>
      </trkpt>
      <trkpt lat="45.23928" lon="5.50359">
        <ele>175.26</ele>
        <time>2019-08-15T07:56:39.000Z</time>
      </trkpt>
      <trkpt lat="45.2392" lon="5.50367">
        <ele>175.71</ele>
        <time>2019-08-15T07:56:49.000Z</time>
      </trkpt>
      <trkpt lat="45.23913" lon="5.5038">
        <ele>179.13</ele>
        <time>2019-08-15T07:56:59.000Z</time>
      </trkpt>
      <trkpt lat="45.2391" lon="5.50393">
        <ele>182.88</ele>
        <time>2019-08-15T07:57:09.000Z</time>
      </trkpt>
      <trkpt lat="45.23908" lon="5.50401">
        <ele>183.67</ele>
        <time>2019-08-15T07:57:19.000Z</time>
      </trkpt>
      <trkpt lat="45.23903" lon="5.50416">
        <ele>183.63</ele>
        <time>2019-08-15T07:57:29.000Z</time>
      </trkpt>
      <trkpt lat="45.23898" lon="5.50432">
        <ele>182.82</ele>
        <time>2019-08-15T07:57:39.000Z</time>
      </trkpt>
      <trkpt lat="45.23883" lon="5.50468">
        <ele>179.8</ele>
        <time>2019-08-15T07:57:49.000Z</time>
      </trkpt>
      <trkpt lat="45.23878" lon="5.50481">
        <ele>182.29</ele>
        <time>2019-08-15T07:58:00.000Z</time>
      </trkpt>
      <trkpt lat="45.23876" lon="5.50494">
        <ele>185.87</ele>
        <time>2019-08-15T07:58:10.000Z</time>
      </trkpt>
      <trkpt lat="45.23866" lon="5.50505">
        <ele>186.09</ele>
        <time>2019-08-15T07:58:20.000Z</time>
      </trkpt>
      <trkpt lat="45.23861" lon="5.50517">
        <ele>184.87</ele>
        <time>2019-08-15T07:58:30.000Z</time>
      </trkpt>
      <trkpt lat="45.23855" lon="5.50529">
        <ele>187.34</ele>
        <time>2019-08-15T07:58:40.000Z</time>
      </trkpt>
      <trkpt lat="45.23848" lon="5.50542">
        <ele>184.24</ele>
        <time>2019-08-15T07:58:50.000Z</time>
      </trkpt>
      <trkpt lat="45.23841" lon="5.50558">
        <ele>185.68</ele>
        <time>2019-08-15T07:59:00.000Z</time>
      </trkpt>
      <trkpt lat="45.23831" lon="5.50574">
        <ele>188.34</ele>
        <time>2019-08-15T08:17:25.000Z</time>
      </trkpt>
      <trkpt lat="45.23823" lon="5.50588">
        <ele>189.52</ele>
        <time>2019-08-15T08:17:35.000Z</time>
      </trkpt>
      <trkpt lat="45.23817" lon="5.50602">
        <ele>191.41</ele>
        <time>2019-08-15T08:17:45.000Z</time>
      </trkpt>
      <trkpt lat="45.23812" lon="5.50614">
        <ele>190.55</ele>
        <time>2019-08-15T08:17:55.000Z</time>
      </trkpt>
      <trkpt lat="45.23808" lon="5.50627">
        <ele>193.3</ele>
        <time>2019-08-15T08:18:05.000Z</time>
      </trkpt>
      <trkpt lat="45.23804" lon="5.50644">
        <ele>193.46</ele>
        <time>2019-08-15T08:18:15.000Z</time>
      </trkpt>
      <trkpt lat="45.23802" lon="5.50659">
        <ele>192.34</ele>
        <time>2019-08-15T08:18:25.000Z</time>
      </trkpt>
      <trkpt lat="45.23794" lon="5.50672">
        <ele>191.4</ele>
        <time>2019-08-15T08:18:35.000Z</time>
      </trkpt>
      <trkpt lat="45.23789" lon="5.50683">
        <ele>191.69</ele>
        <time>2019-08-15T08:18:45.000Z</time>
      </trkpt>
      <trkpt lat="45.23784" lon="5.50698">
        <ele>191.69</ele>
        <time>2019-08-15T08:18:55.000Z</time>
      </trkpt>
      <trkpt lat="45.23776" lon="5.50708">
        <ele>191.99</ele>
        <time>2019-08-15T08:19:05.000Z</time>
      </trkpt>
      <trkpt lat="45.2377" lon="5.50722">
        <ele>193.37</ele>
        <time>2019-08-15T08:19:15.000Z</time>
      </trkpt>
      <trkpt lat="45.2376" lon="5.50735">
        <ele>192.59</ele>
        <time>2019-08-15T08:19:25.000Z</time>
      </trkpt>
      <trkpt lat="45.23756" lon="5.50745">
        <ele>193.65</ele>
        <time>2019-08-15T08:19:38.000Z</time>
      </trkpt>
      <trkpt lat="45.23749" lon="5.50759">
        <ele>195.16</ele>
        <time>2019-08-15T08:19:48.000Z</time>
      </trkpt>
      <trkpt lat="45.23744" lon="5.50769">
        <ele>196.2</ele>
        <time>2019-08-15T08:19:58.000Z</time>
      </trkpt>
      <trkpt lat="45.23743" lon="5.50779">
        <ele>194</ele>
        <time>2019-08-15T08:20:08.000Z</time>
      </trkpt>
      <trkpt lat="45.23742" lon="5.50793">
        <ele>193.72</ele>
        <time>2019-08-15T08:20:18.000Z</time>
      </trkpt>
      <trkpt lat="45.23738" lon="5.50806">
        <ele>195.43</ele>
        <time>2019-08-15T08:20:29.000Z</time>
      </trkpt>
      <trkpt lat="45.23727" lon="5.50825">
        <ele>196.65</ele>
        <time>2019-08-15T08:20:39.000Z</time>
      </trkpt>
      <trkpt lat="45.23718" lon="5.50842">
        <ele>196.85</ele>
        <time>2019-08-15T08:20:49.000Z</time>
      </trkpt>
      <trkpt lat="45.23713" lon="5.5085">
        <ele>197.51</ele>
        <time>2019-08-15T08:20:59.000Z</time>
      </trkpt>
      <trkpt lat="45.23709" lon="5.50857">
        <ele>199.6</ele>
        <time>2019-08-15T08:21:09.000Z</time>
      </trkpt>
      <trkpt lat="45.23708" lon="5.50864">
        <ele>210.41</ele>
        <time>2019-08-15T08:21:19.000Z</time>
      </trkpt>
      <trkpt lat="45.23707" lon="5.50871">
        <ele>213.68</ele>
        <time>2019-08-15T08:21:29.000Z</time>
      </trkpt>
      <trkpt lat="45.23708" lon="5.50878">
        <ele>215.81</ele>
        <time>2019-08-15T08:21:39.000Z</time>
      </trkpt>
      <trkpt lat="45.23704" lon="5.50887">
        <ele>213.17</ele>
        <time>2019-08-15T08:21:52.000Z</time>
      </trkpt>
      <trkpt lat="45.23701" lon="5.50894">
        <ele>211.5</ele>
        <time>2019-08-15T08:22:02.000Z</time>
      </trkpt>
      <trkpt lat="45.23697" lon="5.50905">
        <ele>211.45</ele>
        <time>2019-08-15T08:22:12.000Z</time>
      </trkpt>
      <trkpt lat="45.23688" lon="5.50917">
        <ele>210.92</ele>
        <time>2019-08-15T08:22:22.000Z</time>
      </trkpt>
      <trkpt lat="45.23679" lon="5.50925">
        <ele>211.56</ele>
        <time>2019-08-15T08:22:32.000Z</time>
      </trkpt>
      <trkpt lat="45.23668" lon="5.50941">
        <ele>210.33</ele>
        <time>2019-08-15T08:22:43.000Z</time>
      </trkpt>
      <trkpt lat="45.23658" lon="5.50949">
        <ele>212.56</ele>
        <time>2019-08-15T08:22:53.000Z</time>
      </trkpt>
      <trkpt lat="45.2365" lon="5.50956">
        <ele>212.77</ele>
        <time>2019-08-15T08:23:03.000Z</time>
      </trkpt>
      <trkpt lat="45.23641" lon="5.50963">
        <ele>213.36</ele>
        <time>2019-08-15T08:23:13.000Z</time>
      </trkpt>
      <trkpt lat="45.23632" lon="5.50974">
        <ele>215.68</ele>
        <time>2019-08-15T08:23:23.000Z</time>
      </trkpt>
      <trkpt lat="45.23622" lon="5.50989">
        <ele>219.25</ele>
        <time>2019-08-15T08:23:33.000Z</time>
      </trkpt>
      <trkpt lat="45.23616" lon="5.51005">
        <ele>219.13</ele>
        <time>2019-08-15T08:23:43.000Z</time>
      </trkpt>
      <trkpt lat="45.23607" lon="5.51017">
        <ele>222.52</ele>
        <time>2019-08-15T08:23:53.000Z</time>
      </trkpt>
      <trkpt lat="45.23606" lon="5.51027">
        <ele>222.32</ele>
        <time>2019-08-15T08:24:03.000Z</time>
      </trkpt>
      <trkpt lat="45.23601" lon="5.51042">
        <ele>225.43</ele>
        <time>2019-08-15T08:24:13.000Z</time>
      </trkpt>
      <trkpt lat="45.23596" lon="5.51054">
        <ele>227.49</ele>
        <time>2019-08-15T08:24:23.000Z</time>
      </trkpt>
      <trkpt lat="45.23591" lon="5.51066">
        <ele>229.32</ele>
        <time>2019-08-15T08:24:33.000Z</time>
      </trkpt>
      <trkpt lat="45.23586" lon="5.51081">
        <ele>230.5</ele>
        <time>2019-08-15T08:24:43.000Z</time>
      </trkpt>
      <trkpt lat="45.23581" lon="5.51096">
        <ele>231.29</ele>
        <time>2019-08-15T08:24:53.000Z</time>
      </trkpt>
      <trkpt lat="45.23576" lon="5.51112">
        <ele>233.34</ele>
        <time>2019-08-15T08:25:03.000Z</time>
      </trkpt>
      <trkpt lat="45.23571" lon="5.51124">
        <ele>235.68</ele>
        <time>2019-08-15T08:25:13.000Z</time>
      </trkpt>
      <trkpt lat="45.23568" lon="5.51138">
        <ele>234.76</ele>
        <time>2019-08-15T08:25:23.000Z</time>
      </trkpt>
      <trkpt lat="45.23564" lon="5.51146">
        <ele>234.72</ele>
        <time>2019-08-15T08:25:33.000Z</time>
      </trkpt>
      <trkpt lat="45.2356" lon="5.51157">
        <ele>233.62</ele>
        <time>2019-08-15T08:25:43.000Z</time>
      </trkpt>
      <trkpt lat="45.23553" lon="5.5117">
        <ele>234.09</ele>
        <time>2019-08-15T08:25:55.000Z</time>
      </trkpt>
      <trkpt lat="45.23545" lon="5.51181">
        <ele>236.62</ele>
        <time>2019-08-15T08:26:05.000Z</time>
      </trkpt>
      <trkpt lat="45.23543" lon="5.51189">
        <ele>237.76</ele>
        <time>2019-08-15T08:26:15.000Z</time>
      </trkpt>
      <trkpt lat="45.23542" lon="5.51199">
        <ele>236.86</ele>
        <time>2019-08-15T08:26:25.000Z</time>
      </trkpt>
      <trkpt lat="45.23536" lon="5.51213">
        <ele>241.58</ele>
        <time>2019-08-15T08:26:35.000Z</time>
      </trkpt>
      <trkpt lat="45.2353" lon="5.51227">
        <ele>243.61</ele>
        <time>2019-08-15T08:26:45.000Z</time>
      </trkpt>
      <trkpt lat="45.23528" lon="5.51241">
        <ele>245.27</ele>
        <time>2019-08-15T08:26:55.000Z</time>
      </trkpt>
      <trkpt lat="45.23526" lon="5.51253">
        <ele>244.59</ele>
        <time>2019-08-15T08:27:05.000Z</time>
      </trkpt>
      <trkpt lat="45.23524" lon="5.51267">
        <ele>245.87</ele>
        <time>2019-08-15T08:27:15.000Z</time>
      </trkpt>
      <trkpt lat="45.23526" lon="5.51279">
        <ele>247.61</ele>
        <time>2019-08-15T08:27:25.000Z</time>
      </trkpt>
      <trkpt lat="45.23524" lon="5.51286">
        <ele>247.59</ele>
        <time>2019-08-15T08:27:35.000Z</time>
      </trkpt>
      <trkpt lat="45.23524" lon="5.51295">
        <ele>247.62</ele>
        <time>2019-08-15T08:27:45.000Z</time>
      </trkpt>
      <trkpt lat="45.23527" lon="5.51306">
        <ele>250.28</ele>
        <time>2019-08-15T08:27:55.000Z</time>
      </trkpt>
      <trkpt lat="45.23525" lon="5.51322">
        <ele>251.93</ele>
        <time>2019-08-15T08:28:06.000Z</time>
      </trkpt>
      <trkpt lat="45.23521" lon="5.51332">
        <ele>253.7</ele>
        <time>2019-08-15T08:28:16.000Z</time>
      </trkpt>
      <trkpt lat="45.23519" lon="5.51345">
        <ele>257.92</ele>
        <time>2019-08-15T08:28:26.000Z</time>
      </trkpt>
      <trkpt lat="45.2352" lon="5.51351">
        <ele>260.05</ele>
        <time>2019-08-15T08:28:36.000Z</time>
      </trkpt>
      <trkpt lat="45.23537" lon="5.51367">
        <ele>276</ele>
        <time>2019-08-15T08:28:46.000Z</time>
      </trkpt>
      <trkpt lat="45.23557" lon="5.51373">
        <ele>276</ele>
        <time>2019-08-15T08:28:56.000Z</time>
      </trkpt>
      <trkpt lat="45.2357" lon="5.51374">
        <ele>276</ele>
        <time>2019-08-15T08:29:06.000Z</time>
      </trkpt>
      <trkpt lat="45.2358" lon="5.51377">
        <ele>276</ele>
        <time>2019-08-15T08:29:18.000Z</time>
      </trkpt>
      <trkpt lat="45.23596" lon="5.51381">
        <ele>279</ele>
        <time>2019-08-15T08:29:41.000Z</time>
      </trkpt>
      <trkpt lat="45.23615" lon="5.51387">
        <ele>280</ele>
        <time>2019-08-15T08:29:51.000Z</time>
      </trkpt>
      <trkpt lat="45.23636" lon="5.51398">
        <ele>283</ele>
        <time>2019-08-15T08:30:01.000Z</time>
      </trkpt>
      <trkpt lat="45.23655" lon="5.5141">
        <ele>288</ele>
        <time>2019-08-15T08:30:11.000Z</time>
      </trkpt>
      <trkpt lat="45.2367" lon="5.5142">
        <ele>296</ele>
        <time>2019-08-15T08:30:21.000Z</time>
      </trkpt>
      <trkpt lat="45.23675" lon="5.51424">
        <ele>299</ele>
        <time>2019-08-15T08:30:31.000Z</time>
      </trkpt>
      <trkpt lat="45.23683" lon="5.51429">
        <ele>302</ele>
        <time>2019-08-15T08:30:41.000Z</time>
      </trkpt>
      <trkpt lat="45.23692" lon="5.51435">
        <ele>305</ele>
        <time>2019-08-15T08:30:51.000Z</time>
      </trkpt>
      <trkpt lat="45.23704" lon="5.51454">
        <ele>308</ele>
        <time>2019-08-15T08:31:01.000Z</time>
      </trkpt>
      <trkpt lat="45.23717" lon="5.51472">
        <ele>311</ele>
        <time>2019-08-15T08:31:11.000Z</time>
      </trkpt>
      <trkpt lat="45.23726" lon="5.51493">
        <ele>313</ele>
        <time>2019-08-15T08:31:21.000Z</time>
      </trkpt>
      <trkpt lat="45.23733" lon="5.51514">
        <ele>321</ele>
        <time>2019-08-15T08:31:31.000Z</time>
      </trkpt>
      <trkpt lat="45.23737" lon="5.51534">
        <ele>322</ele>
        <time>2019-08-15T08:31:41.000Z</time>
      </trkpt>
      <trkpt lat="45.23742" lon="5.5155">
        <ele>323.3</ele>
        <time>2019-08-15T08:31:51.000Z</time>
      </trkpt>
      <trkpt lat="45.23742" lon="5.51551">
        <ele>314.31</ele>
        <time>2019-08-15T08:32:01.000Z</time>
      </trkpt>
      <trkpt lat="45.23741" lon="5.51564">
        <ele>313.05</ele>
        <time>2019-08-15T08:32:11.000Z</time>
      </trkpt>
      <trkpt lat="45.23743" lon="5.5158">
        <ele>313.69</ele>
        <time>2019-08-15T08:32:21.000Z</time>
      </trkpt>
      <trkpt lat="45.23748" lon="5.51593">
        <ele>312.94</ele>
        <time>2019-08-15T08:32:40.000Z</time>
      </trkpt>
      <trkpt lat="45.23749" lon="5.51604">
        <ele>314.28</ele>
        <time>2019-08-15T08:33:02.000Z</time>
      </trkpt>
      <trkpt lat="45.23751" lon="5.51618">
        <ele>313.84</ele>
        <time>2019-08-15T08:34:35.000Z</time>
      </trkpt>
      <trkpt lat="45.23755" lon="5.51626">
        <ele>313.57</ele>
        <time>2019-08-15T08:34:45.000Z</time>
      </trkpt>
      <trkpt lat="45.2376" lon="5.51638">
        <ele>314.12</ele>
        <time>2019-08-15T08:34:55.000Z</time>
      </trkpt>
      <trkpt lat="45.23762" lon="5.51648">
        <ele>314.82</ele>
        <time>2019-08-15T08:35:05.000Z</time>
      </trkpt>
      <trkpt lat="45.23765" lon="5.5166">
        <ele>314.13</ele>
        <time>2019-08-15T08:35:15.000Z</time>
      </trkpt>
      <trkpt lat="45.23766" lon="5.51669">
        <ele>313.95</ele>
        <time>2019-08-15T08:35:25.000Z</time>
      </trkpt>
      <trkpt lat="45.23768" lon="5.5168">
        <ele>315.69</ele>
        <time>2019-08-15T08:35:35.000Z</time>
      </trkpt>
      <trkpt lat="45.2377" lon="5.51688">
        <ele>316.12</ele>
        <time>2019-08-15T08:35:45.000Z</time>
      </trkpt>
      <trkpt lat="45.23773" lon="5.51693">
        <ele>321.72</ele>
        <time>2019-08-15T08:35:55.000Z</time>
      </trkpt>
      <trkpt lat="45.23774" lon="5.51702">
        <ele>322</ele>
        <time>2019-08-15T08:36:05.000Z</time>
      </trkpt>
      <trkpt lat="45.23775" lon="5.51717">
        <ele>323.58</ele>
        <time>2019-08-15T08:36:15.000Z</time>
      </trkpt>
      <trkpt lat="45.23779" lon="5.51727">
        <ele>323.9</ele>
        <time>2019-08-15T08:36:25.000Z</time>
      </trkpt>
      <trkpt lat="45.23783" lon="5.51738">
        <ele>324.9</ele>
        <time>2019-08-15T08:36:35.000Z</time>
      </trkpt>
      <trkpt lat="45.23785" lon="5.51744">
        <ele>327.49</ele>
        <time>2019-08-15T08:36:50.000Z</time>
      </trkpt>
      <trkpt lat="45.2379" lon="5.5175">
        <ele>327.68</ele>
        <time>2019-08-15T08:37:00.000Z</time>
      </trkpt>
      <trkpt lat="45.23798" lon="5.51746">
        <ele>329.07</ele>
        <time>2019-08-15T08:37:10.000Z</time>
      </trkpt>
      <trkpt lat="45.23802" lon="5.51744">
        <ele>334.25</ele>
        <time>2019-08-15T08:37:22.000Z</time>
      </trkpt>
      <trkpt lat="45.23809" lon="5.51743">
        <ele>334.92</ele>
        <time>2019-08-15T08:37:32.000Z</time>
      </trkpt>
      <trkpt lat="45.23816" lon="5.51746">
        <ele>336.47</ele>
        <time>2019-08-15T08:37:42.000Z</time>
      </trkpt>
      <trkpt lat="45.23821" lon="5.51749">
        <ele>338.9</ele>
        <time>2019-08-15T08:37:52.000Z</time>
      </trkpt>
      <trkpt lat="45.23827" lon="5.51748">
        <ele>340.38</ele>
        <time>2019-08-15T08:38:02.000Z</time>
      </trkpt>
      <trkpt lat="45.23832" lon="5.51748">
        <ele>346.55</ele>
        <time>2019-08-15T08:38:12.000Z</time>
      </trkpt>
      <trkpt lat="45.23837" lon="5.51758">
        <ele>350.22</ele>
        <time>2019-08-15T08:38:22.000Z</time>
      </trkpt>
      <trkpt lat="45.23842" lon="5.51768">
        <ele>352.36</ele>
        <time>2019-08-15T08:38:32.000Z</time>
      </trkpt>
      <trkpt lat="45.23847" lon="5.51776">
        <ele>355.33</ele>
        <time>2019-08-15T08:38:42.000Z</time>
      </trkpt>
      <trkpt lat="45.23852" lon="5.51782">
        <ele>356.87</ele>
        <time>2019-08-15T08:38:52.000Z</time>
      </trkpt>
      <trkpt lat="45.23857" lon="5.51785">
        <ele>360.13</ele>
        <time>2019-08-15T08:39:02.000Z</time>
      </trkpt>
      <trkpt lat="45.23862" lon="5.51793">
        <ele>360.58</ele>
        <time>2019-08-15T08:39:17.000Z</time>
      </trkpt>
      <trkpt lat="45.23867" lon="5.518">
        <ele>362.59</ele>
        <time>2019-08-15T08:39:27.000Z</time>
      </trkpt>
      <trkpt lat="45.23872" lon="5.51807">
        <ele>362.72</ele>
        <time>2019-08-15T08:39:37.000Z</time>
      </trkpt>
      <trkpt lat="45.2388" lon="5.51811">
        <ele>362.51</ele>
        <time>2019-08-15T08:39:47.000Z</time>
      </trkpt>
      <trkpt lat="45.23884" lon="5.51819">
        <ele>362.72</ele>
        <time>2019-08-15T08:39:57.000Z</time>
      </trkpt>
      <trkpt lat="45.23891" lon="5.51821">
        <ele>366.56</ele>
        <time>2019-08-15T08:40:07.000Z</time>
      </trkpt>
      <trkpt lat="45.23895" lon="5.51834">
        <ele>365.12</ele>
        <time>2019-08-15T08:40:17.000Z</time>
      </trkpt>
      <trkpt lat="45.23901" lon="5.51844">
        <ele>365.57</ele>
        <time>2019-08-15T08:40:27.000Z</time>
      </trkpt>
      <trkpt lat="45.23902" lon="5.5185">
        <ele>369.45</ele>
        <time>2019-08-15T08:40:37.000Z</time>
      </trkpt>
      <trkpt lat="45.23909" lon="5.51857">
        <ele>369.16</ele>
        <time>2019-08-15T08:40:47.000Z</time>
      </trkpt>
      <trkpt lat="45.23914" lon="5.51861">
        <ele>374.02</ele>
        <time>2019-08-15T08:40:57.000Z</time>
      </trkpt>
      <trkpt lat="45.23917" lon="5.5187">
        <ele>377.22</ele>
        <time>2019-08-15T08:41:07.000Z</time>
      </trkpt>
      <trkpt lat="45.23922" lon="5.51882">
        <ele>379.7</ele>
        <time>2019-08-15T08:41:17.000Z</time>
      </trkpt>
      <trkpt lat="45.23931" lon="5.5189">
        <ele>378.85</ele>
        <time>2019-08-15T08:41:27.000Z</time>
      </trkpt>
      <trkpt lat="45.23934" lon="5.51896">
        <ele>380.11</ele>
        <time>2019-08-15T08:41:37.000Z</time>
      </trkpt>
      <trkpt lat="45.23942" lon="5.51907">
        <ele>380.96</ele>
        <time>2019-08-15T08:41:47.000Z</time>
      </trkpt>
      <trkpt lat="45.23944" lon="5.51913">
        <ele>383.68</ele>
        <time>2019-08-15T08:41:57.000Z</time>
      </trkpt>
      <trkpt lat="45.23945" lon="5.51919">
        <ele>388.35</ele>
        <time>2019-08-15T08:42:07.000Z</time>
      </trkpt>
      <trkpt lat="45.23944" lon="5.51926">
        <ele>389.97</ele>
        <time>2019-08-15T08:42:17.000Z</time>
      </trkpt>
      <trkpt lat="45.23945" lon="5.51937">
        <ele>391.51</ele>
        <time>2019-08-15T08:42:27.000Z</time>
      </trkpt>
      <trkpt lat="45.23943" lon="5.51947">
        <ele>393.5</ele>
        <time>2019-08-15T08:42:37.000Z</time>
      </trkpt>
      <trkpt lat="45.23943" lon="5.51954">
        <ele>396.3</ele>
        <time>2019-08-15T08:42:47.000Z</time>
      </trkpt>
      <trkpt lat="45.2394" lon="5.51963">
        <ele>400.69</ele>
        <time>2019-08-15T08:42:57.000Z</time>
      </trkpt>
      <trkpt lat="45.23939" lon="5.51971">
        <ele>402.7</ele>
        <time>2019-08-15T08:43:12.000Z</time>
      </trkpt>
      <trkpt lat="45.23937" lon="5.51981">
        <ele>402.08</ele>
        <time>2019-08-15T08:43:22.000Z</time>
      </trkpt>
      <trkpt lat="45.2393" lon="5.51989">
        <ele>401.97</ele>
        <time>2019-08-15T08:43:32.000Z</time>
      </trkpt>
      <trkpt lat="45.23923" lon="5.51996">
        <ele>404.65</ele>
        <time>2019-08-15T08:43:42.000Z</time>
      </trkpt>
      <trkpt lat="45.23917" lon="5.52004">
        <ele>410.33</ele>
        <time>2019-08-15T08:43:52.000Z</time>
      </trkpt>
      <trkpt lat="45.23911" lon="5.52011">
        <ele>412.35</ele>
        <time>2019-08-15T08:44:04.000Z</time>
      </trkpt>
      <trkpt lat="45.23911" lon="5.52019">
        <ele>415.63</ele>
        <time>2019-08-15T08:44:14.000Z</time>
      </trkpt>
      <trkpt lat="45.23906" lon="5.52025">
        <ele>416.69</ele>
        <time>2019-08-15T08:44:24.000Z</time>
      </trkpt>
      <trkpt lat="45.23903" lon="5.5203">
        <ele>419.46</ele>
        <time>2019-08-15T08:44:34.000Z</time>
      </trkpt>
      <trkpt lat="45.23901" lon="5.52046">
        <ele>424.23</ele>
        <time>2019-08-15T08:44:44.000Z</time>
      </trkpt>
      <trkpt lat="45.23898" lon="5.52055">
        <ele>427.52</ele>
        <time>2019-08-15T08:44:54.000Z</time>
      </trkpt>
      <trkpt lat="45.23894" lon="5.52062">
        <ele>429.73</ele>
        <time>2019-08-15T08:45:05.000Z</time>
      </trkpt>
      <trkpt lat="45.2389" lon="5.5207">
        <ele>431.97</ele>
        <time>2019-08-15T08:45:15.000Z</time>
      </trkpt>
      <trkpt lat="45.2389" lon="5.52081">
        <ele>432.55</ele>
        <time>2019-08-15T08:45:25.000Z</time>
      </trkpt>
      <trkpt lat="45.23889" lon="5.52094">
        <ele>436.95</ele>
        <time>2019-08-15T08:45:36.000Z</time>
      </trkpt>
      <trkpt lat="45.23888" lon="5.52102">
        <ele>441.3</ele>
        <time>2019-08-15T08:45:46.000Z</time>
      </trkpt>
      <trkpt lat="45.2389" lon="5.52108">
        <ele>446.09</ele>
        <time>2019-08-15T08:45:56.000Z</time>
      </trkpt>
      <trkpt lat="45.23894" lon="5.52115">
        <ele>450.5</ele>
        <time>2019-08-15T08:46:06.000Z</time>
      </trkpt>
      <trkpt lat="45.23897" lon="5.52128">
        <ele>451.18</ele>
        <time>2019-08-15T08:46:16.000Z</time>
      </trkpt>
      <trkpt lat="45.23896" lon="5.52137">
        <ele>452.54</ele>
        <time>2019-08-15T08:46:26.000Z</time>
      </trkpt>
      <trkpt lat="45.23897" lon="5.52144">
        <ele>453.92</ele>
        <time>2019-08-15T08:46:36.000Z</time>
      </trkpt>
      <trkpt lat="45.23899" lon="5.52154">
        <ele>457.46</ele>
        <time>2019-08-15T08:46:46.000Z</time>
      </trkpt>
      <trkpt lat="45.23903" lon="5.52158">
        <ele>457.61</ele>
        <time>2019-08-15T08:46:56.000Z</time>
      </trkpt>
      <trkpt lat="45.23907" lon="5.52165">
        <ele>456.71</ele>
        <time>2019-08-15T08:47:06.000Z</time>
      </trkpt>
      <trkpt lat="45.23913" lon="5.52172">
        <ele>460.65</ele>
        <time>2019-08-15T08:47:16.000Z</time>
      </trkpt>
      <trkpt lat="45.23917" lon="5.52178">
        <ele>463.58</ele>
        <time>2019-08-15T08:47:26.000Z</time>
      </trkpt>
      <trkpt lat="45.23924" lon="5.52182">
        <ele>463.6</ele>
        <time>2019-08-15T08:47:36.000Z</time>
      </trkpt>
      <trkpt lat="45.23928" lon="5.52195">
        <ele>463.86</ele>
        <time>2019-08-15T08:47:46.000Z</time>
      </trkpt>
      <trkpt lat="45.23933" lon="5.52197">
        <ele>467.01</ele>
        <time>2019-08-15T08:47:56.000Z</time>
      </trkpt>
      <trkpt lat="45.23938" lon="5.5221">
        <ele>468.68</ele>
        <time>2019-08-15T08:48:06.000Z</time>
      </trkpt>
      <trkpt lat="45.23942" lon="5.52218">
        <ele>469.69</ele>
        <time>2019-08-15T08:51:06.000Z</time>
      </trkpt>
      <trkpt lat="45.23949" lon="5.52223">
        <ele>471.32</ele>
        <time>2019-08-15T08:51:36.000Z</time>
      </trkpt>
      <trkpt lat="45.23953" lon="5.52229">
        <ele>474.32</ele>
        <time>2019-08-15T08:51:46.000Z</time>
      </trkpt>
      <trkpt lat="45.23957" lon="5.52233">
        <ele>478.27</ele>
        <time>2019-08-15T08:52:02.000Z</time>
      </trkpt>
      <trkpt lat="45.23963" lon="5.52237">
        <ele>482.81</ele>
        <time>2019-08-15T08:52:13.000Z</time>
      </trkpt>
      <trkpt lat="45.23963" lon="5.52244">
        <ele>482.93</ele>
        <time>2019-08-15T08:52:23.000Z</time>
      </trkpt>
      <trkpt lat="45.23954" lon="5.52245">
        <ele>478.55</ele>
        <time>2019-08-15T08:52:36.000Z</time>
      </trkpt>
      <trkpt lat="45.23943" lon="5.52243">
        <ele>475.86</ele>
        <time>2019-08-15T08:52:46.000Z</time>
      </trkpt>
      <trkpt lat="45.23931" lon="5.52245">
        <ele>474.1</ele>
        <time>2019-08-15T08:52:57.000Z</time>
      </trkpt>
      <trkpt lat="45.23922" lon="5.52243">
        <ele>473.63</ele>
        <time>2019-08-15T08:53:07.000Z</time>
      </trkpt>
      <trkpt lat="45.23912" lon="5.52242">
        <ele>474.91</ele>
        <time>2019-08-15T08:53:17.000Z</time>
      </trkpt>
      <trkpt lat="45.23905" lon="5.52245">
        <ele>476.55</ele>
        <time>2019-08-15T08:53:27.000Z</time>
      </trkpt>
      <trkpt lat="45.23902" lon="5.52256">
        <ele>478.57</ele>
        <time>2019-08-15T08:53:37.000Z</time>
      </trkpt>
      <trkpt lat="45.2391" lon="5.52257">
        <ele>479.21</ele>
        <time>2019-08-15T08:53:47.000Z</time>
      </trkpt>
      <trkpt lat="45.23919" lon="5.52259">
        <ele>480.49</ele>
        <time>2019-08-15T08:53:57.000Z</time>
      </trkpt>
      <trkpt lat="45.23929" lon="5.52262">
        <ele>481.29</ele>
        <time>2019-08-15T08:54:14.000Z</time>
      </trkpt>
      <trkpt lat="45.23936" lon="5.52262">
        <ele>479.85</ele>
        <time>2019-08-15T08:54:24.000Z</time>
      </trkpt>
      <trkpt lat="45.23945" lon="5.52265">
        <ele>479.77</ele>
        <time>2019-08-15T08:54:34.000Z</time>
      </trkpt>
      <trkpt lat="45.23948" lon="5.52269">
        <ele>479.71</ele>
        <time>2019-08-15T08:54:44.000Z</time>
      </trkpt>
      <trkpt lat="45.23948" lon="5.52279">
        <ele>479.63</ele>
        <time>2019-08-15T08:54:54.000Z</time>
      </trkpt>
      <trkpt lat="45.23947" lon="5.52287">
        <ele>482.36</ele>
        <time>2019-08-15T08:55:04.000Z</time>
      </trkpt>
      <trkpt lat="45.23944" lon="5.52293">
        <ele>483.95</ele>
        <time>2019-08-15T08:55:15.000Z</time>
      </trkpt>
      <trkpt lat="45.23937" lon="5.52296">
        <ele>487.23</ele>
        <time>2019-08-15T08:55:25.000Z</time>
      </trkpt>
      <trkpt lat="45.23929" lon="5.52296">
        <ele>492.25</ele>
        <time>2019-08-15T08:55:35.000Z</time>
      </trkpt>
      <trkpt lat="45.23921" lon="5.52296">
        <ele>495.15</ele>
        <time>2019-08-15T08:55:49.000Z</time>
      </trkpt>
      <trkpt lat="45.23914" lon="5.52301">
        <ele>496</ele>
        <time>2019-08-15T08:55:59.000Z</time>
      </trkpt>
      <trkpt lat="45.23909" lon="5.52303">
        <ele>500.12</ele>
        <time>2019-08-15T08:56:09.000Z</time>
      </trkpt>
      <trkpt lat="45.23903" lon="5.52304">
        <ele>503.53</ele>
        <time>2019-08-15T08:56:19.000Z</time>
      </trkpt>
      <trkpt lat="45.23896" lon="5.52302">
        <ele>501.95</ele>
        <time>2019-08-15T08:56:29.000Z</time>
      </trkpt>
      <trkpt lat="45.23884" lon="5.52303">
        <ele>500.68</ele>
        <time>2019-08-15T08:56:42.000Z</time>
      </trkpt>
      <trkpt lat="45.23869" lon="5.52295">
        <ele>501.45</ele>
        <time>2019-08-15T08:56:52.000Z</time>
      </trkpt>
      <trkpt lat="45.23861" lon="5.52293">
        <ele>502.97</ele>
        <time>2019-08-15T08:57:02.000Z</time>
      </trkpt>
      <trkpt lat="45.23855" lon="5.52291">
        <ele>506.84</ele>
        <time>2019-08-15T08:57:12.000Z</time>
      </trkpt>
      <trkpt lat="45.23848" lon="5.52286">
        <ele>507.72</ele>
        <time>2019-08-15T08:57:22.000Z</time>
      </trkpt>
      <trkpt lat="45.23841" lon="5.52282">
        <ele>509.83</ele>
        <time>2019-08-15T08:57:32.000Z</time>
      </trkpt>
      <trkpt lat="45.23834" lon="5.52281">
        <ele>510.7</ele>
        <time>2019-08-15T08:57:42.000Z</time>
      </trkpt>
      <trkpt lat="45.23831" lon="5.52275">
        <ele>513.13</ele>
        <time>2019-08-15T08:57:52.000Z</time>
      </trkpt>
      <trkpt lat="45.23826" lon="5.52273">
        <ele>516.56</ele>
        <time>2019-08-15T08:58:02.000Z</time>
      </trkpt>
      <trkpt lat="45.23818" lon="5.52271">
        <ele>513.94</ele>
        <time>2019-08-15T08:58:14.000Z</time>
      </trkpt>
      <trkpt lat="45.2381" lon="5.52273">
        <ele>514.29</ele>
        <time>2019-08-15T08:58:24.000Z</time>
      </trkpt>
      <trkpt lat="45.23803" lon="5.5227">
        <ele>516.67</ele>
        <time>2019-08-15T08:58:35.000Z</time>
      </trkpt>
      <trkpt lat="45.23794" lon="5.52265">
        <ele>520.24</ele>
        <time>2019-08-15T08:58:46.000Z</time>
      </trkpt>
      <trkpt lat="45.23789" lon="5.52266">
        <ele>523.66</ele>
        <time>2019-08-15T08:58:56.000Z</time>
      </trkpt>
      <trkpt lat="45.23781" lon="5.52264">
        <ele>525.31</ele>
        <time>2019-08-15T08:59:06.000Z</time>
      </trkpt>
      <trkpt lat="45.23776" lon="5.52267">
        <ele>528.14</ele>
        <time>2019-08-15T08:59:33.000Z</time>
      </trkpt>
      <trkpt lat="45.2377" lon="5.52271">
        <ele>529.61</ele>
        <time>2019-08-15T09:00:14.000Z</time>
      </trkpt>
      <trkpt lat="45.23762" lon="5.52269">
        <ele>533.9</ele>
        <time>2019-08-15T09:00:25.000Z</time>
      </trkpt>
      <trkpt lat="45.23757" lon="5.5227">
        <ele>535.1</ele>
        <time>2019-08-15T09:00:39.000Z</time>
      </trkpt>
      <trkpt lat="45.23752" lon="5.52269">
        <ele>537.4</ele>
        <time>2019-08-15T09:00:49.000Z</time>
      </trkpt>
      <trkpt lat="45.23747" lon="5.52264">
        <ele>538.69</ele>
        <time>2019-08-15T09:01:05.000Z</time>
      </trkpt>
      <trkpt lat="45.23741" lon="5.52264">
        <ele>541.08</ele>
        <time>2019-08-15T09:01:15.000Z</time>
      </trkpt>
      <trkpt lat="45.23733" lon="5.5227">
        <ele>542.92</ele>
        <time>2019-08-15T09:01:25.000Z</time>
      </trkpt>
      <trkpt lat="45.23728" lon="5.52274">
        <ele>543.69</ele>
        <time>2019-08-15T09:01:35.000Z</time>
      </trkpt>
      <trkpt lat="45.23723" lon="5.52271">
        <ele>545.78</ele>
        <time>2019-08-15T09:01:45.000Z</time>
      </trkpt>
      <trkpt lat="45.23717" lon="5.52269">
        <ele>551.46</ele>
        <time>2019-08-15T09:01:55.000Z</time>
      </trkpt>
      <trkpt lat="45.23712" lon="5.52268">
        <ele>552.6</ele>
        <time>2019-08-15T09:02:05.000Z</time>
      </trkpt>
      <trkpt lat="45.23703" lon="5.52264">
        <ele>552.06</ele>
        <time>2019-08-15T09:02:15.000Z</time>
      </trkpt>
      <trkpt lat="45.23697" lon="5.5226">
        <ele>552.96</ele>
        <time>2019-08-15T09:02:25.000Z</time>
      </trkpt>
      <trkpt lat="45.23689" lon="5.52258">
        <ele>555.65</ele>
        <time>2019-08-15T09:02:35.000Z</time>
      </trkpt>
      <trkpt lat="45.2368" lon="5.52256">
        <ele>556.07</ele>
        <time>2019-08-15T09:02:45.000Z</time>
      </trkpt>
      <trkpt lat="45.23675" lon="5.52257">
        <ele>557.86</ele>
        <time>2019-08-15T09:02:55.000Z</time>
      </trkpt>
      <trkpt lat="45.23669" lon="5.5226">
        <ele>559.1</ele>
        <time>2019-08-15T09:03:05.000Z</time>
      </trkpt>
      <trkpt lat="45.23664" lon="5.52257">
        <ele>560.64</ele>
        <time>2019-08-15T09:03:15.000Z</time>
      </trkpt>
      <trkpt lat="45.23656" lon="5.52256">
        <ele>566.19</ele>
        <time>2019-08-15T09:03:25.000Z</time>
      </trkpt>
      <trkpt lat="45.23651" lon="5.52252">
        <ele>568.7</ele>
        <time>2019-08-15T09:03:35.000Z</time>
      </trkpt>
      <trkpt lat="45.23646" lon="5.52243">
        <ele>569.68</ele>
        <time>2019-08-15T09:03:45.000Z</time>
      </trkpt>
      <trkpt lat="45.23641" lon="5.52241">
        <ele>571.57</ele>
        <time>2019-08-15T09:03:55.000Z</time>
      </trkpt>
      <trkpt lat="45.23633" lon="5.52239">
        <ele>572.57</ele>
        <time>2019-08-15T09:04:05.000Z</time>
      </trkpt>
      <trkpt lat="45.23629" lon="5.52239">
        <ele>574.61</ele>
        <time>2019-08-15T09:04:15.000Z</time>
      </trkpt>
      <trkpt lat="45.23624" lon="5.52238">
        <ele>578.02</ele>
        <time>2019-08-15T09:04:25.000Z</time>
      </trkpt>
      <trkpt lat="45.23617" lon="5.52232">
        <ele>579.08</ele>
        <time>2019-08-15T09:04:35.000Z</time>
      </trkpt>
      <trkpt lat="45.2361" lon="5.5223">
        <ele>581.67</ele>
        <time>2019-08-15T09:04:45.000Z</time>
      </trkpt>
      <trkpt lat="45.23605" lon="5.52227">
        <ele>585.62</ele>
        <time>2019-08-15T09:04:55.000Z</time>
      </trkpt>
      <trkpt lat="45.23598" lon="5.52224">
        <ele>588.52</ele>
        <time>2019-08-15T09:05:05.000Z</time>
      </trkpt>
      <trkpt lat="45.23595" lon="5.52218">
        <ele>590.69</ele>
        <time>2019-08-15T09:05:15.000Z</time>
      </trkpt>
      <trkpt lat="45.2359" lon="5.52218">
        <ele>592.48</ele>
        <time>2019-08-15T09:05:25.000Z</time>
      </trkpt>
      <trkpt lat="45.23583" lon="5.52216">
        <ele>594.02</ele>
        <time>2019-08-15T09:05:35.000Z</time>
      </trkpt>
      <trkpt lat="45.23578" lon="5.52212">
        <ele>595.34</ele>
        <time>2019-08-15T09:05:45.000Z</time>
      </trkpt>
      <trkpt lat="45.23573" lon="5.52202">
        <ele>595.81</ele>
        <time>2019-08-15T09:05:55.000Z</time>
      </trkpt>
      <trkpt lat="45.23568" lon="5.52199">
        <ele>595.7</ele>
        <time>2019-08-15T09:06:05.000Z</time>
      </trkpt>
      <trkpt lat="45.23563" lon="5.522">
        <ele>598.61</ele>
        <time>2019-08-15T09:06:15.000Z</time>
      </trkpt>
      <trkpt lat="45.23561" lon="5.52192">
        <ele>602.41</ele>
        <time>2019-08-15T09:06:28.000Z</time>
      </trkpt>
      <trkpt lat="45.23554" lon="5.52189">
        <ele>604.05</ele>
        <time>2019-08-15T09:06:38.000Z</time>
      </trkpt>
      <trkpt lat="45.23548" lon="5.52184">
        <ele>605.79</ele>
        <time>2019-08-15T09:06:48.000Z</time>
      </trkpt>
      <trkpt lat="45.23542" lon="5.52186">
        <ele>609.38</ele>
        <time>2019-08-15T09:06:58.000Z</time>
      </trkpt>
      <trkpt lat="45.23538" lon="5.52191">
        <ele>610.92</ele>
        <time>2019-08-15T09:07:08.000Z</time>
      </trkpt>
      <trkpt lat="45.23538" lon="5.522">
        <ele>608.68</ele>
        <time>2019-08-15T09:07:18.000Z</time>
      </trkpt>
      <trkpt lat="45.23538" lon="5.5221">
        <ele>608.7</ele>
        <time>2019-08-15T09:07:28.000Z</time>
      </trkpt>
      <trkpt lat="45.23539" lon="5.52217">
        <ele>611.49</ele>
        <time>2019-08-15T09:07:38.000Z</time>
      </trkpt>
      <trkpt lat="45.23544" lon="5.52222">
        <ele>614.45</ele>
        <time>2019-08-15T09:07:48.000Z</time>
      </trkpt>
      <trkpt lat="45.23549" lon="5.52229">
        <ele>619.06</ele>
        <time>2019-08-15T09:07:58.000Z</time>
      </trkpt>
      <trkpt lat="45.23549" lon="5.52237">
        <ele>622.97</ele>
        <time>2019-08-15T09:08:08.000Z</time>
      </trkpt>
      <trkpt lat="45.23548" lon="5.52244">
        <ele>625.67</ele>
        <time>2019-08-15T09:08:20.000Z</time>
      </trkpt>
      <trkpt lat="45.23548" lon="5.52252">
        <ele>627.16</ele>
        <time>2019-08-15T09:08:30.000Z</time>
      </trkpt>
      <trkpt lat="45.23546" lon="5.52258">
        <ele>629.87</ele>
        <time>2019-08-15T09:08:40.000Z</time>
      </trkpt>
      <trkpt lat="45.23551" lon="5.52275">
        <ele>632.86</ele>
        <time>2019-08-15T09:08:50.000Z</time>
      </trkpt>
      <trkpt lat="45.23555" lon="5.52279">
        <ele>636.39</ele>
        <time>2019-08-15T09:09:00.000Z</time>
      </trkpt>
      <trkpt lat="45.23556" lon="5.52288">
        <ele>636.49</ele>
        <time>2019-08-15T09:09:10.000Z</time>
      </trkpt>
      <trkpt lat="45.23557" lon="5.52296">
        <ele>637.77</ele>
        <time>2019-08-15T09:09:22.000Z</time>
      </trkpt>
      <trkpt lat="45.2356" lon="5.52303">
        <ele>636.63</ele>
        <time>2019-08-15T09:09:32.000Z</time>
      </trkpt>
      <trkpt lat="45.23558" lon="5.5231">
        <ele>640.49</ele>
        <time>2019-08-15T09:09:42.000Z</time>
      </trkpt>
      <trkpt lat="45.23557" lon="5.52319">
        <ele>641.48</ele>
        <time>2019-08-15T09:09:52.000Z</time>
      </trkpt>
      <trkpt lat="45.23561" lon="5.52336">
        <ele>644.59</ele>
        <time>2019-08-15T09:10:02.000Z</time>
      </trkpt>
      <trkpt lat="45.23562" lon="5.52345">
        <ele>647.39</ele>
        <time>2019-08-15T09:10:12.000Z</time>
      </trkpt>
      <trkpt lat="45.23564" lon="5.5235">
        <ele>649.81</ele>
        <time>2019-08-15T09:10:22.000Z</time>
      </trkpt>
      <trkpt lat="45.23569" lon="5.52353">
        <ele>654.21</ele>
        <time>2019-08-15T09:10:32.000Z</time>
      </trkpt>
      <trkpt lat="45.23573" lon="5.52357">
        <ele>655.18</ele>
        <time>2019-08-15T09:10:42.000Z</time>
      </trkpt>
      <trkpt lat="45.23578" lon="5.52364">
        <ele>655.67</ele>
        <time>2019-08-15T09:10:52.000Z</time>
      </trkpt>
      <trkpt lat="45.23581" lon="5.52377">
        <ele>656.68</ele>
        <time>2019-08-15T09:11:02.000Z</time>
      </trkpt>
      <trkpt lat="45.23583" lon="5.52384">
        <ele>659.67</ele>
        <time>2019-08-15T09:11:12.000Z</time>
      </trkpt>
      <trkpt lat="45.23583" lon="5.52393">
        <ele>663.17</ele>
        <time>2019-08-15T09:11:22.000Z</time>
      </trkpt>
      <trkpt lat="45.23579" lon="5.52399">
        <ele>664.67</ele>
        <time>2019-08-15T09:11:32.000Z</time>
      </trkpt>
      <trkpt lat="45.23574" lon="5.52403">
        <ele>664.51</ele>
        <time>2019-08-15T09:11:43.000Z</time>
      </trkpt>
      <trkpt lat="45.23569" lon="5.52405">
        <ele>665.46</ele>
        <time>2019-08-15T09:12:21.000Z</time>
      </trkpt>
      <trkpt lat="45.23565" lon="5.52409">
        <ele>668.95</ele>
        <time>2019-08-15T09:13:01.000Z</time>
      </trkpt>
      <trkpt lat="45.23561" lon="5.52414">
        <ele>671.43</ele>
        <time>2019-08-15T09:13:39.000Z</time>
      </trkpt>
      <trkpt lat="45.23557" lon="5.52421">
        <ele>673.4</ele>
        <time>2019-08-15T09:13:49.000Z</time>
      </trkpt>
      <trkpt lat="45.23554" lon="5.52429">
        <ele>675.33</ele>
        <time>2019-08-15T09:13:59.000Z</time>
      </trkpt>
      <trkpt lat="45.23548" lon="5.52438">
        <ele>676.19</ele>
        <time>2019-08-15T09:14:09.000Z</time>
      </trkpt>
      <trkpt lat="45.23546" lon="5.52445">
        <ele>677.19</ele>
        <time>2019-08-15T09:14:19.000Z</time>
      </trkpt>
      <trkpt lat="45.23542" lon="5.52451">
        <ele>675.85</ele>
        <time>2019-08-15T09:14:29.000Z</time>
      </trkpt>
      <trkpt lat="45.23538" lon="5.5246">
        <ele>677.05</ele>
        <time>2019-08-15T09:14:39.000Z</time>
      </trkpt>
      <trkpt lat="45.23538" lon="5.52469">
        <ele>681.78</ele>
        <time>2019-08-15T09:14:49.000Z</time>
      </trkpt>
      <trkpt lat="45.23535" lon="5.52474">
        <ele>684.6</ele>
        <time>2019-08-15T09:15:07.000Z</time>
      </trkpt>
      <trkpt lat="45.23527" lon="5.52478">
        <ele>685.57</ele>
        <time>2019-08-15T09:15:17.000Z</time>
      </trkpt>
      <trkpt lat="45.23525" lon="5.52485">
        <ele>688.61</ele>
        <time>2019-08-15T09:15:27.000Z</time>
      </trkpt>
      <trkpt lat="45.23522" lon="5.52489">
        <ele>690.89</ele>
        <time>2019-08-15T09:15:37.000Z</time>
      </trkpt>
      <trkpt lat="45.23517" lon="5.52499">
        <ele>690.4</ele>
        <time>2019-08-15T09:15:47.000Z</time>
      </trkpt>
      <trkpt lat="45.23512" lon="5.52502">
        <ele>690.31</ele>
        <time>2019-08-15T09:15:57.000Z</time>
      </trkpt>
      <trkpt lat="45.23517" lon="5.52506">
        <ele>692.22</ele>
        <time>2019-08-15T09:16:07.000Z</time>
      </trkpt>
      <trkpt lat="45.23512" lon="5.52507">
        <ele>692.91</ele>
        <time>2019-08-15T09:16:17.000Z</time>
      </trkpt>
      <trkpt lat="45.23515" lon="5.52513">
        <ele>690.54</ele>
        <time>2019-08-15T09:16:27.000Z</time>
      </trkpt>
      <trkpt lat="45.23511" lon="5.52518">
        <ele>690.24</ele>
        <time>2019-08-15T09:16:37.000Z</time>
      </trkpt>
      <trkpt lat="45.23506" lon="5.52516">
        <ele>689.67</ele>
        <time>2019-08-15T09:16:47.000Z</time>
      </trkpt>
      <trkpt lat="45.23502" lon="5.52512">
        <ele>689.48</ele>
        <time>2019-08-15T09:16:57.000Z</time>
      </trkpt>
      <trkpt lat="45.23497" lon="5.52516">
        <ele>692.67</ele>
        <time>2019-08-15T09:17:07.000Z</time>
      </trkpt>
      <trkpt lat="45.23489" lon="5.52508">
        <ele>691.78</ele>
        <time>2019-08-15T09:17:17.000Z</time>
      </trkpt>
      <trkpt lat="45.23482" lon="5.5251">
        <ele>693.71</ele>
        <time>2019-08-15T09:17:27.000Z</time>
      </trkpt>
      <trkpt lat="45.23477" lon="5.52511">
        <ele>696.46</ele>
        <time>2019-08-15T09:17:37.000Z</time>
      </trkpt>
      <trkpt lat="45.2347" lon="5.52515">
        <ele>696.92</ele>
        <time>2019-08-15T09:17:47.000Z</time>
      </trkpt>
      <trkpt lat="45.23462" lon="5.52522">
        <ele>698.63</ele>
        <time>2019-08-15T09:17:57.000Z</time>
      </trkpt>
      <trkpt lat="45.23455" lon="5.52525">
        <ele>699.05</ele>
        <time>2019-08-15T09:18:07.000Z</time>
      </trkpt>
      <trkpt lat="45.23449" lon="5.52527">
        <ele>699.11</ele>
        <time>2019-08-15T09:18:17.000Z</time>
      </trkpt>
      <trkpt lat="45.23438" lon="5.52528">
        <ele>698.12</ele>
        <time>2019-08-15T09:18:27.000Z</time>
      </trkpt>
      <trkpt lat="45.2343" lon="5.5253">
        <ele>702.05</ele>
        <time>2019-08-15T09:18:38.000Z</time>
      </trkpt>
      <trkpt lat="45.23424" lon="5.52532">
        <ele>703.61</ele>
        <time>2019-08-15T09:18:48.000Z</time>
      </trkpt>
      <trkpt lat="45.23417" lon="5.5254">
        <ele>705.78</ele>
        <time>2019-08-15T09:18:58.000Z</time>
      </trkpt>
      <trkpt lat="45.23412" lon="5.52546">
        <ele>707.99</ele>
        <time>2019-08-15T09:19:08.000Z</time>
      </trkpt>
      <trkpt lat="45.23405" lon="5.52557">
        <ele>710.26</ele>
        <time>2019-08-15T09:19:18.000Z</time>
      </trkpt>
      <trkpt lat="45.234" lon="5.52565">
        <ele>709.81</ele>
        <time>2019-08-15T09:19:28.000Z</time>
      </trkpt>
      <trkpt lat="45.23396" lon="5.52577">
        <ele>709.64</ele>
        <time>2019-08-15T09:19:38.000Z</time>
      </trkpt>
      <trkpt lat="45.23392" lon="5.52587">
        <ele>709.2</ele>
        <time>2019-08-15T09:19:48.000Z</time>
      </trkpt>
      <trkpt lat="45.23388" lon="5.52594">
        <ele>712.05</ele>
        <time>2019-08-15T09:19:58.000Z</time>
      </trkpt>
      <trkpt lat="45.23382" lon="5.52601">
        <ele>713.87</ele>
        <time>2019-08-15T09:20:08.000Z</time>
      </trkpt>
      <trkpt lat="45.23384" lon="5.5261">
        <ele>716.61</ele>
        <time>2019-08-15T09:20:18.000Z</time>
      </trkpt>
      <trkpt lat="45.23384" lon="5.52619">
        <ele>717.98</ele>
        <time>2019-08-15T09:20:28.000Z</time>
      </trkpt>
      <trkpt lat="45.23387" lon="5.52625">
        <ele>720.42</ele>
        <time>2019-08-15T09:20:38.000Z</time>
      </trkpt>
      <trkpt lat="45.23386" lon="5.52633">
        <ele>723.75</ele>
        <time>2019-08-15T09:20:48.000Z</time>
      </trkpt>
      <trkpt lat="45.23388" lon="5.52642">
        <ele>724.68</ele>
        <time>2019-08-15T09:20:58.000Z</time>
      </trkpt>
      <trkpt lat="45.2339" lon="5.52656">
        <ele>725.47</ele>
        <time>2019-08-15T09:21:08.000Z</time>
      </trkpt>
      <trkpt lat="45.23394" lon="5.52666">
        <ele>723.42</ele>
        <time>2019-08-15T09:21:18.000Z</time>
      </trkpt>
      <trkpt lat="45.23395" lon="5.52682">
        <ele>721.77</ele>
        <time>2019-08-15T09:25:08.000Z</time>
      </trkpt>
      <trkpt lat="45.23391" lon="5.52694">
        <ele>721.7</ele>
        <time>2019-08-15T09:25:25.000Z</time>
      </trkpt>
      <trkpt lat="45.23386" lon="5.52708">
        <ele>718.01</ele>
        <time>2019-08-15T09:25:50.000Z</time>
      </trkpt>
      <trkpt lat="45.23379" lon="5.52714">
        <ele>717.81</ele>
        <time>2019-08-15T09:26:00.000Z</time>
      </trkpt>
      <trkpt lat="45.23378" lon="5.52725">
        <ele>717.45</ele>
        <time>2019-08-15T09:26:10.000Z</time>
      </trkpt>
      <trkpt lat="45.23378" lon="5.52732">
        <ele>720.66</ele>
        <time>2019-08-15T09:26:20.000Z</time>
      </trkpt>
      <trkpt lat="45.23375" lon="5.52741">
        <ele>717.28</ele>
        <time>2019-08-15T09:26:30.000Z</time>
      </trkpt>
      <trkpt lat="45.23374" lon="5.52755">
        <ele>712.14</ele>
        <time>2019-08-15T09:26:40.000Z</time>
      </trkpt>
      <trkpt lat="45.23371" lon="5.52768">
        <ele>708.47</ele>
        <time>2019-08-15T09:26:50.000Z</time>
      </trkpt>
      <trkpt lat="45.23366" lon="5.5278">
        <ele>706.5</ele>
        <time>2019-08-15T09:27:00.000Z</time>
      </trkpt>
      <trkpt lat="45.23363" lon="5.5279">
        <ele>704.34</ele>
        <time>2019-08-15T09:27:10.000Z</time>
      </trkpt>
      <trkpt lat="45.23361" lon="5.52803">
        <ele>700.99</ele>
        <time>2019-08-15T09:27:20.000Z</time>
      </trkpt>
      <trkpt lat="45.23358" lon="5.52816">
        <ele>697.99</ele>
        <time>2019-08-15T09:27:30.000Z</time>
      </trkpt>
      <trkpt lat="45.23355" lon="5.52832">
        <ele>694.48</ele>
        <time>2019-08-15T09:27:40.000Z</time>
      </trkpt>
      <trkpt lat="45.23351" lon="5.52839">
        <ele>691.13</ele>
        <time>2019-08-15T09:27:50.000Z</time>
      </trkpt>
      <trkpt lat="45.23351" lon="5.52851">
        <ele>688.93</ele>
        <time>2019-08-15T09:28:00.000Z</time>
      </trkpt>
      <trkpt lat="45.23354" lon="5.52856">
        <ele>687.38</ele>
        <time>2019-08-15T09:28:10.000Z</time>
      </trkpt>
      <trkpt lat="45.23356" lon="5.52875">
        <ele>686.01</ele>
        <time>2019-08-15T09:28:20.000Z</time>
      </trkpt>
      <trkpt lat="45.23353" lon="5.52888">
        <ele>684.42</ele>
        <time>2019-08-15T09:28:30.000Z</time>
      </trkpt>
      <trkpt lat="45.23361" lon="5.52902">
        <ele>684.68</ele>
        <time>2019-08-15T09:28:40.000Z</time>
      </trkpt>
      <trkpt lat="45.23366" lon="5.52914">
        <ele>685.54</ele>
        <time>2019-08-15T09:28:50.000Z</time>
      </trkpt>
      <trkpt lat="45.2336" lon="5.52924">
        <ele>694.1</ele>
        <time>2019-08-15T09:29:00.000Z</time>
      </trkpt>
      <trkpt lat="45.23356" lon="5.52929">
        <ele>698.47</ele>
        <time>2019-08-15T09:29:10.000Z</time>
      </trkpt>
      <trkpt lat="45.23357" lon="5.52938">
        <ele>698</ele>
        <time>2019-08-15T09:29:20.000Z</time>
      </trkpt>
      <trkpt lat="45.23354" lon="5.52946">
        <ele>694.64</ele>
        <time>2019-08-15T09:29:30.000Z</time>
      </trkpt>
      <trkpt lat="45.23352" lon="5.52955">
        <ele>697.1</ele>
        <time>2019-08-15T09:29:42.000Z</time>
      </trkpt>
      <trkpt lat="45.23344" lon="5.5295">
        <ele>697.73</ele>
        <time>2019-08-15T09:29:52.000Z</time>
      </trkpt>
      <trkpt lat="45.23343" lon="5.5294">
        <ele>695.05</ele>
        <time>2019-08-15T09:30:02.000Z</time>
      </trkpt>
      <trkpt lat="45.23337" lon="5.52929">
        <ele>694.69</ele>
        <time>2019-08-15T09:30:12.000Z</time>
      </trkpt>
      <trkpt lat="45.23329" lon="5.52925">
        <ele>695.53</ele>
        <time>2019-08-15T09:30:22.000Z</time>
      </trkpt>
      <trkpt lat="45.2332" lon="5.52918">
        <ele>697.34</ele>
        <time>2019-08-15T09:30:53.000Z</time>
      </trkpt>
      <trkpt lat="45.23313" lon="5.52912">
        <ele>697.45</ele>
        <time>2019-08-15T09:31:12.000Z</time>
      </trkpt>
      <trkpt lat="45.23308" lon="5.52907">
        <ele>696.68</ele>
        <time>2019-08-15T09:31:39.000Z</time>
      </trkpt>
      <trkpt lat="45.23305" lon="5.52903">
        <ele>697.65</ele>
        <time>2019-08-15T09:31:56.000Z</time>
      </trkpt>
      <trkpt lat="45.23294" lon="5.52899">
        <ele>697.56</ele>
        <time>2019-08-15T09:32:06.000Z</time>
      </trkpt>
      <trkpt lat="45.23291" lon="5.5289">
        <ele>696.76</ele>
        <time>2019-08-15T09:32:16.000Z</time>
      </trkpt>
      <trkpt lat="45.23289" lon="5.52884">
        <ele>696.52</ele>
        <time>2019-08-15T09:32:26.000Z</time>
      </trkpt>
      <trkpt lat="45.23286" lon="5.52878">
        <ele>694.28</ele>
        <time>2019-08-15T09:32:36.000Z</time>
      </trkpt>
      <trkpt lat="45.23281" lon="5.52875">
        <ele>706.4</ele>
        <time>2019-08-15T09:32:46.000Z</time>
      </trkpt>
      <trkpt lat="45.23277" lon="5.52879">
        <ele>708.89</ele>
        <time>2019-08-15T09:32:56.000Z</time>
      </trkpt>
      <trkpt lat="45.23273" lon="5.5287">
        <ele>708.65</ele>
        <time>2019-08-15T09:33:15.000Z</time>
      </trkpt>
      <trkpt lat="45.2327" lon="5.52862">
        <ele>707.12</ele>
        <time>2019-08-15T09:33:28.000Z</time>
      </trkpt>
      <trkpt lat="45.23266" lon="5.52851">
        <ele>706.54</ele>
        <time>2019-08-15T09:33:38.000Z</time>
      </trkpt>
      <trkpt lat="45.2326" lon="5.52837">
        <ele>707.64</ele>
        <time>2019-08-15T09:33:49.000Z</time>
      </trkpt>
      <trkpt lat="45.23253" lon="5.52825">
        <ele>709.58</ele>
        <time>2019-08-15T09:33:59.000Z</time>
      </trkpt>
      <trkpt lat="45.23252" lon="5.52812">
        <ele>710.29</ele>
        <time>2019-08-15T09:34:09.000Z</time>
      </trkpt>
      <trkpt lat="45.23252" lon="5.52797">
        <ele>709.55</ele>
        <time>2019-08-15T09:34:19.000Z</time>
      </trkpt>
      <trkpt lat="45.23248" lon="5.52797">
        <ele>706.9</ele>
        <time>2019-08-15T09:34:29.000Z</time>
      </trkpt>
      <trkpt lat="45.23247" lon="5.52783">
        <ele>708.9</ele>
        <time>2019-08-15T09:34:39.000Z</time>
      </trkpt>
      <trkpt lat="45.23245" lon="5.52765">
        <ele>705.06</ele>
        <time>2019-08-15T09:34:49.000Z</time>
      </trkpt>
      <trkpt lat="45.23249" lon="5.52756">
        <ele>708.4</ele>
        <time>2019-08-15T09:34:59.000Z</time>
      </trkpt>
      <trkpt lat="45.23252" lon="5.52741">
        <ele>708.07</ele>
        <time>2019-08-15T09:35:09.000Z</time>
      </trkpt>
      <trkpt lat="45.23253" lon="5.52728">
        <ele>707.11</ele>
        <time>2019-08-15T09:35:19.000Z</time>
      </trkpt>
      <trkpt lat="45.23255" lon="5.52713">
        <ele>704.01</ele>
        <time>2019-08-15T09:35:29.000Z</time>
      </trkpt>
      <trkpt lat="45.23253" lon="5.52698">
        <ele>704.99</ele>
        <time>2019-08-15T09:35:39.000Z</time>
      </trkpt>
      <trkpt lat="45.23246" lon="5.52685">
        <ele>703.69</ele>
        <time>2019-08-15T09:35:49.000Z</time>
      </trkpt>
      <trkpt lat="45.23241" lon="5.52676">
        <ele>703.28</ele>
        <time>2019-08-15T09:36:03.000Z</time>
      </trkpt>
      <trkpt lat="45.23234" lon="5.52667">
        <ele>702.28</ele>
        <time>2019-08-15T09:36:13.000Z</time>
      </trkpt>
      <trkpt lat="45.23227" lon="5.5266">
        <ele>704.02</ele>
        <time>2019-08-15T09:36:25.000Z</time>
      </trkpt>
      <trkpt lat="45.23225" lon="5.52652">
        <ele>702.9</ele>
        <time>2019-08-15T09:36:35.000Z</time>
      </trkpt>
      <trkpt lat="45.23225" lon="5.52639">
        <ele>701.81</ele>
        <time>2019-08-15T09:36:45.000Z</time>
      </trkpt>
      <trkpt lat="45.23224" lon="5.52627">
        <ele>701.63</ele>
        <time>2019-08-15T09:36:55.000Z</time>
      </trkpt>
      <trkpt lat="45.23219" lon="5.52611">
        <ele>701.72</ele>
        <time>2019-08-15T09:37:05.000Z</time>
      </trkpt>
      <trkpt lat="45.23218" lon="5.52602">
        <ele>704.53</ele>
        <time>2019-08-15T09:37:15.000Z</time>
      </trkpt>
      <trkpt lat="45.23217" lon="5.5259">
        <ele>704.67</ele>
        <time>2019-08-15T09:38:06.000Z</time>
      </trkpt>
      <trkpt lat="45.23212" lon="5.52579">
        <ele>707.15</ele>
        <time>2019-08-15T09:38:16.000Z</time>
      </trkpt>
      <trkpt lat="45.23209" lon="5.52573">
        <ele>708.03</ele>
        <time>2019-08-15T09:38:30.000Z</time>
      </trkpt>
      <trkpt lat="45.23206" lon="5.5256">
        <ele>707.69</ele>
        <time>2019-08-15T09:38:40.000Z</time>
      </trkpt>
      <trkpt lat="45.23204" lon="5.52552">
        <ele>708.23</ele>
        <time>2019-08-15T09:38:50.000Z</time>
      </trkpt>
      <trkpt lat="45.23201" lon="5.52542">
        <ele>708.96</ele>
        <time>2019-08-15T09:39:00.000Z</time>
      </trkpt>
      <trkpt lat="45.23195" lon="5.52526">
        <ele>711.7</ele>
        <time>2019-08-15T09:39:10.000Z</time>
      </trkpt>
      <trkpt lat="45.23185" lon="5.52508">
        <ele>711.41</ele>
        <time>2019-08-15T09:39:20.000Z</time>
      </trkpt>
      <trkpt lat="45.23181" lon="5.52497">
        <ele>710.71</ele>
        <time>2019-08-15T09:39:30.000Z</time>
      </trkpt>
      <trkpt lat="45.23174" lon="5.52484">
        <ele>714.31</ele>
        <time>2019-08-15T09:39:40.000Z</time>
      </trkpt>
      <trkpt lat="45.23171" lon="5.52469">
        <ele>715.66</ele>
        <time>2019-08-15T09:39:50.000Z</time>
      </trkpt>
      <trkpt lat="45.23171" lon="5.52456">
        <ele>713.87</ele>
        <time>2019-08-15T09:40:00.000Z</time>
      </trkpt>
      <trkpt lat="45.23168" lon="5.52438">
        <ele>712.69</ele>
        <time>2019-08-15T09:40:10.000Z</time>
      </trkpt>
      <trkpt lat="45.23172" lon="5.52429">
        <ele>713.65</ele>
        <time>2019-08-15T09:40:20.000Z</time>
      </trkpt>
      <trkpt lat="45.23175" lon="5.52414">
        <ele>714.05</ele>
        <time>2019-08-15T09:40:30.000Z</time>
      </trkpt>
      <trkpt lat="45.23173" lon="5.52402">
        <ele>714.66</ele>
        <time>2019-08-15T09:40:40.000Z</time>
      </trkpt>
      <trkpt lat="45.23168" lon="5.52394">
        <ele>713.9</ele>
        <time>2019-08-15T09:40:50.000Z</time>
      </trkpt>
      <trkpt lat="45.2317" lon="5.52383">
        <ele>714.68</ele>
        <time>2019-08-15T09:41:00.000Z</time>
      </trkpt>
      <trkpt lat="45.23166" lon="5.52372">
        <ele>714.04</ele>
        <time>2019-08-15T09:41:10.000Z</time>
      </trkpt>
      <trkpt lat="45.23158" lon="5.52361">
        <ele>714.65</ele>
        <time>2019-08-15T09:41:20.000Z</time>
      </trkpt>
      <trkpt lat="45.23157" lon="5.52354">
        <ele>717.08</ele>
        <time>2019-08-15T09:41:30.000Z</time>
      </trkpt>
      <trkpt lat="45.23152" lon="5.52355">
        <ele>718.54</ele>
        <time>2019-08-15T09:41:40.000Z</time>
      </trkpt>
      <trkpt lat="45.23147" lon="5.52357">
        <ele>718.75</ele>
        <time>2019-08-15T09:41:50.000Z</time>
      </trkpt>
      <trkpt lat="45.23143" lon="5.52362">
        <ele>720.44</ele>
        <time>2019-08-15T09:42:00.000Z</time>
      </trkpt>
      <trkpt lat="45.23137" lon="5.52373">
        <ele>720.01</ele>
        <time>2019-08-15T09:42:10.000Z</time>
      </trkpt>
      <trkpt lat="45.23131" lon="5.52379">
        <ele>718.99</ele>
        <time>2019-08-15T09:42:20.000Z</time>
      </trkpt>
      <trkpt lat="45.23124" lon="5.52379">
        <ele>720.06</ele>
        <time>2019-08-15T09:42:30.000Z</time>
      </trkpt>
      <trkpt lat="45.23115" lon="5.52376">
        <ele>719.71</ele>
        <time>2019-08-15T09:42:40.000Z</time>
      </trkpt>
      <trkpt lat="45.23103" lon="5.52375">
        <ele>721.7</ele>
        <time>2019-08-15T09:42:50.000Z</time>
      </trkpt>
      <trkpt lat="45.23092" lon="5.52369">
        <ele>724.13</ele>
        <time>2019-08-15T09:43:00.000Z</time>
      </trkpt>
      <trkpt lat="45.23083" lon="5.52363">
        <ele>725.51</ele>
        <time>2019-08-15T09:43:10.000Z</time>
      </trkpt>
      <trkpt lat="45.23077" lon="5.52357">
        <ele>724.89</ele>
        <time>2019-08-15T09:43:20.000Z</time>
      </trkpt>
      <trkpt lat="45.23071" lon="5.52359">
        <ele>726.78</ele>
        <time>2019-08-15T09:43:30.000Z</time>
      </trkpt>
      <trkpt lat="45.23068" lon="5.52368">
        <ele>727.8</ele>
        <time>2019-08-15T09:43:40.000Z</time>
      </trkpt>
      <trkpt lat="45.23062" lon="5.52375">
        <ele>726.69</ele>
        <time>2019-08-15T09:43:50.000Z</time>
      </trkpt>
      <trkpt lat="45.23054" lon="5.5238">
        <ele>727.65</ele>
        <time>2019-08-15T09:44:00.000Z</time>
      </trkpt>
      <trkpt lat="45.23047" lon="5.52397">
        <ele>728.15</ele>
        <time>2019-08-15T09:44:10.000Z</time>
      </trkpt>
      <trkpt lat="45.23042" lon="5.52409">
        <ele>728.32</ele>
        <time>2019-08-15T09:44:20.000Z</time>
      </trkpt>
      <trkpt lat="45.23039" lon="5.52422">
        <ele>728.1</ele>
        <time>2019-08-15T09:44:30.000Z</time>
      </trkpt>
      <trkpt lat="45.23037" lon="5.52436">
        <ele>727.75</ele>
        <time>2019-08-15T09:44:40.000Z</time>
      </trkpt>
      <trkpt lat="45.23034" lon="5.52447">
        <ele>731.27</ele>
        <time>2019-08-15T09:44:50.000Z</time>
      </trkpt>
      <trkpt lat="45.23032" lon="5.52455">
        <ele>732.9</ele>
        <time>2019-08-15T09:45:00.000Z</time>
      </trkpt>
      <trkpt lat="45.23026" lon="5.52464">
        <ele>732.59</ele>
        <time>2019-08-15T09:45:10.000Z</time>
      </trkpt>
      <trkpt lat="45.23022" lon="5.52478">
        <ele>735.48</ele>
        <time>2019-08-15T09:45:20.000Z</time>
      </trkpt>
      <trkpt lat="45.23013" lon="5.52484">
        <ele>741.23</ele>
        <time>2019-08-15T09:45:30.000Z</time>
      </trkpt>
      <trkpt lat="45.23005" lon="5.5249">
        <ele>743.02</ele>
        <time>2019-08-15T09:45:40.000Z</time>
      </trkpt>
      <trkpt lat="45.23003" lon="5.52496">
        <ele>743.54</ele>
        <time>2019-08-15T09:45:50.000Z</time>
      </trkpt>
      <trkpt lat="45.22996" lon="5.52502">
        <ele>744.52</ele>
        <time>2019-08-15T09:46:00.000Z</time>
      </trkpt>
      <trkpt lat="45.2299" lon="5.52513">
        <ele>743.7</ele>
        <time>2019-08-15T09:46:10.000Z</time>
      </trkpt>
      <trkpt lat="45.22986" lon="5.52521">
        <ele>741.57</ele>
        <time>2019-08-15T09:46:20.000Z</time>
      </trkpt>
      <trkpt lat="45.22978" lon="5.52516">
        <ele>737.88</ele>
        <time>2019-08-15T09:46:30.000Z</time>
      </trkpt>
      <trkpt lat="45.22975" lon="5.52523">
        <ele>749.27</ele>
        <time>2019-08-15T09:46:40.000Z</time>
      </trkpt>
      <trkpt lat="45.22979" lon="5.52528">
        <ele>748.44</ele>
        <time>2019-08-15T09:46:50.000Z</time>
      </trkpt>
      <trkpt lat="45.22977" lon="5.52522">
        <ele>748.25</ele>
        <time>2019-08-15T09:47:00.000Z</time>
      </trkpt>
      <trkpt lat="45.2298" lon="5.52527">
        <ele>749.67</ele>
        <time>2019-08-15T09:47:10.000Z</time>
      </trkpt>
      <trkpt lat="45.22984" lon="5.52534">
        <ele>747.81</ele>
        <time>2019-08-15T09:47:20.000Z</time>
      </trkpt>
      <trkpt lat="45.22989" lon="5.52537">
        <ele>745.77</ele>
        <time>2019-08-15T09:47:30.000Z</time>
      </trkpt>
      <trkpt lat="45.22988" lon="5.52545">
        <ele>745.56</ele>
        <time>2019-08-15T09:47:40.000Z</time>
      </trkpt>
      <trkpt lat="45.22989" lon="5.52552">
        <ele>746.07</ele>
        <time>2019-08-15T09:47:50.000Z</time>
      </trkpt>
      <trkpt lat="45.22993" lon="5.52547">
        <ele>746.66</ele>
        <time>2019-08-15T09:48:00.000Z</time>
      </trkpt>
      <trkpt lat="45.22996" lon="5.52542">
        <ele>750.99</ele>
        <time>2019-08-15T09:48:10.000Z</time>
      </trkpt>
      <trkpt lat="45.23" lon="5.52546">
        <ele>756.66</ele>
        <time>2019-08-15T09:48:20.000Z</time>
      </trkpt>
      <trkpt lat="45.23001" lon="5.52554">
        <ele>757.65</ele>
        <time>2019-08-15T09:48:30.000Z</time>
      </trkpt>
      <trkpt lat="45.23001" lon="5.52564">
        <ele>756.7</ele>
        <time>2019-08-15T09:48:40.000Z</time>
      </trkpt>
      <trkpt lat="45.23005" lon="5.52561">
        <ele>758.2</ele>
        <time>2019-08-15T09:48:50.000Z</time>
      </trkpt>
      <trkpt lat="45.23011" lon="5.52551">
        <ele>759.37</ele>
        <time>2019-08-15T09:49:00.000Z</time>
      </trkpt>
      <trkpt lat="45.23015" lon="5.52545">
        <ele>763.67</ele>
        <time>2019-08-15T09:49:10.000Z</time>
      </trkpt>
      <trkpt lat="45.23019" lon="5.52538">
        <ele>767.6</ele>
        <time>2019-08-15T09:49:20.000Z</time>
      </trkpt>
      <trkpt lat="45.23024" lon="5.52535">
        <ele>768.31</ele>
        <time>2019-08-15T09:49:30.000Z</time>
      </trkpt>
      <trkpt lat="45.23033" lon="5.52532">
        <ele>768.96</ele>
        <time>2019-08-15T09:49:40.000Z</time>
      </trkpt>
      <trkpt lat="45.23041" lon="5.52522">
        <ele>770.66</ele>
        <time>2019-08-15T09:49:50.000Z</time>
      </trkpt>
      <trkpt lat="45.2305" lon="5.52518">
        <ele>773.09</ele>
        <time>2019-08-15T09:50:00.000Z</time>
      </trkpt>
      <trkpt lat="45.23057" lon="5.52515">
        <ele>774.36</ele>
        <time>2019-08-15T09:50:10.000Z</time>
      </trkpt>
      <trkpt lat="45.23065" lon="5.52509">
        <ele>777.59</ele>
        <time>2019-08-15T09:50:20.000Z</time>
      </trkpt>
      <trkpt lat="45.23074" lon="5.52501">
        <ele>779.49</ele>
        <time>2019-08-15T09:50:30.000Z</time>
      </trkpt>
      <trkpt lat="45.2308" lon="5.52493">
        <ele>779.96</ele>
        <time>2019-08-15T09:50:40.000Z</time>
      </trkpt>
      <trkpt lat="45.23085" lon="5.52481">
        <ele>781.92</ele>
        <time>2019-08-15T09:50:50.000Z</time>
      </trkpt>
      <trkpt lat="45.2309" lon="5.52479">
        <ele>786.97</ele>
        <time>2019-08-15T09:51:00.000Z</time>
      </trkpt>
      <trkpt lat="45.23093" lon="5.52484">
        <ele>787.75</ele>
        <time>2019-08-15T09:51:10.000Z</time>
      </trkpt>
      <trkpt lat="45.23093" lon="5.52492">
        <ele>787.08</ele>
        <time>2019-08-15T09:51:20.000Z</time>
      </trkpt>
      <trkpt lat="45.2309" lon="5.525">
        <ele>788.3</ele>
        <time>2019-08-15T09:51:30.000Z</time>
      </trkpt>
      <trkpt lat="45.23086" lon="5.52509">
        <ele>790.18</ele>
        <time>2019-08-15T09:51:40.000Z</time>
      </trkpt>
      <trkpt lat="45.23082" lon="5.52517">
        <ele>790.69</ele>
        <time>2019-08-15T09:51:50.000Z</time>
      </trkpt>
      <trkpt lat="45.2308" lon="5.52526">
        <ele>792.38</ele>
        <time>2019-08-15T09:52:00.000Z</time>
      </trkpt>
      <trkpt lat="45.23081" lon="5.52541">
        <ele>794.06</ele>
        <time>2019-08-15T09:52:10.000Z</time>
      </trkpt>
      <trkpt lat="45.23077" lon="5.52546">
        <ele>804.59</ele>
        <time>2019-08-15T09:52:20.000Z</time>
      </trkpt>
      <trkpt lat="45.23077" lon="5.5256">
        <ele>804.7</ele>
        <time>2019-08-15T09:52:30.000Z</time>
      </trkpt>
      <trkpt lat="45.23075" lon="5.52565">
        <ele>803.18</ele>
        <time>2019-08-15T09:52:40.000Z</time>
      </trkpt>
      <trkpt lat="45.23067" lon="5.52575">
        <ele>800.71</ele>
        <time>2019-08-15T09:52:50.000Z</time>
      </trkpt>
      <trkpt lat="45.23059" lon="5.52582">
        <ele>796.87</ele>
        <time>2019-08-15T09:53:00.000Z</time>
      </trkpt>
      <trkpt lat="45.23053" lon="5.52592">
        <ele>794.8</ele>
        <time>2019-08-15T09:53:10.000Z</time>
      </trkpt>
      <trkpt lat="45.23049" lon="5.52605">
        <ele>795.56</ele>
        <time>2019-08-15T09:53:20.000Z</time>
      </trkpt>
      <trkpt lat="45.23049" lon="5.52614">
        <ele>797.31</ele>
        <time>2019-08-15T09:53:30.000Z</time>
      </trkpt>
      <trkpt lat="45.23048" lon="5.52629">
        <ele>797.02</ele>
        <time>2019-08-15T09:53:40.000Z</time>
      </trkpt>
      <trkpt lat="45.23048" lon="5.52639">
        <ele>796.43</ele>
        <time>2019-08-15T09:53:50.000Z</time>
      </trkpt>
      <trkpt lat="45.23047" lon="5.52657">
        <ele>795.13</ele>
        <time>2019-08-15T09:54:00.000Z</time>
      </trkpt>
      <trkpt lat="45.23045" lon="5.52671">
        <ele>796.44</ele>
        <time>2019-08-15T09:54:10.000Z</time>
      </trkpt>
      <trkpt lat="45.23048" lon="5.52678">
        <ele>796.67</ele>
        <time>2019-08-15T09:54:20.000Z</time>
      </trkpt>
      <trkpt lat="45.23047" lon="5.52689">
        <ele>795.11</ele>
        <time>2019-08-15T09:54:30.000Z</time>
      </trkpt>
      <trkpt lat="45.23045" lon="5.52701">
        <ele>796.78</ele>
        <time>2019-08-15T09:54:40.000Z</time>
      </trkpt>
      <trkpt lat="45.23048" lon="5.52717">
        <ele>796.05</ele>
        <time>2019-08-15T09:54:50.000Z</time>
      </trkpt>
      <trkpt lat="45.23042" lon="5.52732">
        <ele>795.8</ele>
        <time>2019-08-15T09:55:00.000Z</time>
      </trkpt>
      <trkpt lat="45.23036" lon="5.52746">
        <ele>794.8</ele>
        <time>2019-08-15T09:55:10.000Z</time>
      </trkpt>
      <trkpt lat="45.23031" lon="5.52759">
        <ele>793.75</ele>
        <time>2019-08-15T09:55:20.000Z</time>
      </trkpt>
      <trkpt lat="45.23023" lon="5.52771">
        <ele>790.14</ele>
        <time>2019-08-15T09:55:30.000Z</time>
      </trkpt>
      <trkpt lat="45.23018" lon="5.5277">
        <ele>790.31</ele>
        <time>2019-08-15T09:55:40.000Z</time>
      </trkpt>
      <trkpt lat="45.23008" lon="5.52769">
        <ele>791.01</ele>
        <time>2019-08-15T09:55:50.000Z</time>
      </trkpt>
      <trkpt lat="45.22998" lon="5.5276">
        <ele>795.31</ele>
        <time>2019-08-15T09:56:00.000Z</time>
      </trkpt>
      <trkpt lat="45.22991" lon="5.52753">
        <ele>795.09</ele>
        <time>2019-08-15T09:56:10.000Z</time>
      </trkpt>
      <trkpt lat="45.22985" lon="5.52741">
        <ele>796.19</ele>
        <time>2019-08-15T09:56:20.000Z</time>
      </trkpt>
      <trkpt lat="45.22979" lon="5.52729">
        <ele>797.06</ele>
        <time>2019-08-15T09:56:30.000Z</time>
      </trkpt>
      <trkpt lat="45.22971" lon="5.52716">
        <ele>801.21</ele>
        <time>2019-08-15T09:56:40.000Z</time>
      </trkpt>
      <trkpt lat="45.22964" lon="5.52705">
        <ele>804.27</ele>
        <time>2019-08-15T09:56:50.000Z</time>
      </trkpt>
      <trkpt lat="45.22956" lon="5.52698">
        <ele>806.49</ele>
        <time>2019-08-15T09:57:00.000Z</time>
      </trkpt>
      <trkpt lat="45.22946" lon="5.52688">
        <ele>810.25</ele>
        <time>2019-08-15T09:57:10.000Z</time>
      </trkpt>
      <trkpt lat="45.2294" lon="5.52679">
        <ele>807.98</ele>
        <time>2019-08-15T09:57:20.000Z</time>
      </trkpt>
      <trkpt lat="45.22935" lon="5.52668">
        <ele>808.71</ele>
        <time>2019-08-15T09:57:30.000Z</time>
      </trkpt>
      <trkpt lat="45.22927" lon="5.52656">
        <ele>811.33</ele>
        <time>2019-08-15T09:57:40.000Z</time>
      </trkpt>
      <trkpt lat="45.2292" lon="5.52644">
        <ele>814.06</ele>
        <time>2019-08-15T09:57:50.000Z</time>
      </trkpt>
      <trkpt lat="45.22914" lon="5.52634">
        <ele>814.21</ele>
        <time>2019-08-15T09:58:00.000Z</time>
      </trkpt>
      <trkpt lat="45.22904" lon="5.52621">
        <ele>815.43</ele>
        <time>2019-08-15T09:58:10.000Z</time>
      </trkpt>
      <trkpt lat="45.22897" lon="5.52609">
        <ele>815.67</ele>
        <time>2019-08-15T09:58:20.000Z</time>
      </trkpt>
      <trkpt lat="45.22891" lon="5.52596">
        <ele>815.35</ele>
        <time>2019-08-15T09:58:30.000Z</time>
      </trkpt>
      <trkpt lat="45.22886" lon="5.52586">
        <ele>815.57</ele>
        <time>2019-08-15T09:58:40.000Z</time>
      </trkpt>
      <trkpt lat="45.22882" lon="5.52575">
        <ele>817.21</ele>
        <time>2019-08-15T09:58:50.000Z</time>
      </trkpt>
      <trkpt lat="45.22884" lon="5.52561">
        <ele>818.53</ele>
        <time>2019-08-15T09:59:00.000Z</time>
      </trkpt>
      <trkpt lat="45.22879" lon="5.52551">
        <ele>821.57</ele>
        <time>2019-08-15T09:59:10.000Z</time>
      </trkpt>
      <trkpt lat="45.22873" lon="5.52545">
        <ele>822.55</ele>
        <time>2019-08-15T09:59:20.000Z</time>
      </trkpt>
      <trkpt lat="45.22871" lon="5.52535">
        <ele>823.73</ele>
        <time>2019-08-15T09:59:30.000Z</time>
      </trkpt>
      <trkpt lat="45.22866" lon="5.52527">
        <ele>824.59</ele>
        <time>2019-08-15T09:59:40.000Z</time>
      </trkpt>
      <trkpt lat="45.22864" lon="5.52516">
        <ele>826.27</ele>
        <time>2019-08-15T09:59:50.000Z</time>
      </trkpt>
      <trkpt lat="45.22861" lon="5.52499">
        <ele>829.57</ele>
        <time>2019-08-15T10:00:00.000Z</time>
      </trkpt>
      <trkpt lat="45.22856" lon="5.52489">
        <ele>832.61</ele>
        <time>2019-08-15T10:00:10.000Z</time>
      </trkpt>
      <trkpt lat="45.22858" lon="5.52477">
        <ele>833.66</ele>
        <time>2019-08-15T10:00:20.000Z</time>
      </trkpt>
      <trkpt lat="45.22854" lon="5.52466">
        <ele>833.98</ele>
        <time>2019-08-15T10:00:30.000Z</time>
      </trkpt>
      <trkpt lat="45.2285" lon="5.52455">
        <ele>836.57</ele>
        <time>2019-08-15T10:00:40.000Z</time>
      </trkpt>
      <trkpt lat="45.22845" lon="5.52445">
        <ele>838.37</ele>
        <time>2019-08-15T10:00:50.000Z</time>
      </trkpt>
      <trkpt lat="45.22841" lon="5.52434">
        <ele>838.47</ele>
        <time>2019-08-15T10:01:00.000Z</time>
      </trkpt>
      <trkpt lat="45.22841" lon="5.52422">
        <ele>839.27</ele>
        <time>2019-08-15T10:01:10.000Z</time>
      </trkpt>
      <trkpt lat="45.22839" lon="5.52412">
        <ele>840.43</ele>
        <time>2019-08-15T10:01:21.000Z</time>
      </trkpt>
      <trkpt lat="45.22839" lon="5.52399">
        <ele>839.65</ele>
        <time>2019-08-15T10:01:31.000Z</time>
      </trkpt>
      <trkpt lat="45.22835" lon="5.52386">
        <ele>842.4</ele>
        <time>2019-08-15T10:01:41.000Z</time>
      </trkpt>
      <trkpt lat="45.2283" lon="5.52375">
        <ele>844.65</ele>
        <time>2019-08-15T10:01:51.000Z</time>
      </trkpt>
      <trkpt lat="45.22823" lon="5.52363">
        <ele>845.59</ele>
        <time>2019-08-15T10:02:01.000Z</time>
      </trkpt>
      <trkpt lat="45.22814" lon="5.52352">
        <ele>851.02</ele>
        <time>2019-08-15T10:02:11.000Z</time>
      </trkpt>
      <trkpt lat="45.22806" lon="5.52342">
        <ele>856.18</ele>
        <time>2019-08-15T10:02:21.000Z</time>
      </trkpt>
      <trkpt lat="45.22798" lon="5.5234">
        <ele>858.64</ele>
        <time>2019-08-15T10:02:31.000Z</time>
      </trkpt>
      <trkpt lat="45.22789" lon="5.5233">
        <ele>861.42</ele>
        <time>2019-08-15T10:02:41.000Z</time>
      </trkpt>
      <trkpt lat="45.22781" lon="5.52326">
        <ele>860.88</ele>
        <time>2019-08-15T10:02:51.000Z</time>
      </trkpt>
      <trkpt lat="45.22775" lon="5.52321">
        <ele>859.03</ele>
        <time>2019-08-15T10:03:01.000Z</time>
      </trkpt>
      <trkpt lat="45.22765" lon="5.52319">
        <ele>857.04</ele>
        <time>2019-08-15T10:03:11.000Z</time>
      </trkpt>
      <trkpt lat="45.22758" lon="5.52318">
        <ele>854.07</ele>
        <time>2019-08-15T10:03:21.000Z</time>
      </trkpt>
      <trkpt lat="45.2275" lon="5.52314">
        <ele>853.44</ele>
        <time>2019-08-15T10:03:31.000Z</time>
      </trkpt>
      <trkpt lat="45.22741" lon="5.52313">
        <ele>852.69</ele>
        <time>2019-08-15T10:03:41.000Z</time>
      </trkpt>
      <trkpt lat="45.22732" lon="5.52308">
        <ele>849.98</ele>
        <time>2019-08-15T10:03:51.000Z</time>
      </trkpt>
      <trkpt lat="45.2272" lon="5.52304">
        <ele>845.24</ele>
        <time>2019-08-15T10:04:01.000Z</time>
      </trkpt>
      <trkpt lat="45.22709" lon="5.52298">
        <ele>842.91</ele>
        <time>2019-08-15T10:04:11.000Z</time>
      </trkpt>
      <trkpt lat="45.22699" lon="5.52296">
        <ele>844.42</ele>
        <time>2019-08-15T10:04:21.000Z</time>
      </trkpt>
      <trkpt lat="45.22686" lon="5.5229">
        <ele>846.59</ele>
        <time>2019-08-15T10:04:31.000Z</time>
      </trkpt>
      <trkpt lat="45.22676" lon="5.5229">
        <ele>842.73</ele>
        <time>2019-08-15T10:04:41.000Z</time>
      </trkpt>
      <trkpt lat="45.22666" lon="5.52285">
        <ele>843.89</ele>
        <time>2019-08-15T10:04:51.000Z</time>
      </trkpt>
      <trkpt lat="45.22655" lon="5.52284">
        <ele>841.09</ele>
        <time>2019-08-15T10:05:01.000Z</time>
      </trkpt>
      <trkpt lat="45.22644" lon="5.52283">
        <ele>839.47</ele>
        <time>2019-08-15T10:05:11.000Z</time>
      </trkpt>
      <trkpt lat="45.22633" lon="5.52284">
        <ele>839.34</ele>
        <time>2019-08-15T10:05:26.000Z</time>
      </trkpt>
      <trkpt lat="45.22621" lon="5.52281">
        <ele>835.63</ele>
        <time>2019-08-15T10:05:36.000Z</time>
      </trkpt>
      <trkpt lat="45.22611" lon="5.52284">
        <ele>832.9</ele>
        <time>2019-08-15T10:05:46.000Z</time>
      </trkpt>
      <trkpt lat="45.22599" lon="5.52287">
        <ele>833.51</ele>
        <time>2019-08-15T10:05:56.000Z</time>
      </trkpt>
      <trkpt lat="45.22588" lon="5.52287">
        <ele>831.34</ele>
        <time>2019-08-15T10:06:06.000Z</time>
      </trkpt>
      <trkpt lat="45.22577" lon="5.52286">
        <ele>827.83</ele>
        <time>2019-08-15T10:06:20.000Z</time>
      </trkpt>
      <trkpt lat="45.22565" lon="5.52286">
        <ele>827.6</ele>
        <time>2019-08-15T10:06:30.000Z</time>
      </trkpt>
      <trkpt lat="45.22557" lon="5.52288">
        <ele>826.26</ele>
        <time>2019-08-15T10:06:40.000Z</time>
      </trkpt>
      <trkpt lat="45.22544" lon="5.52289">
        <ele>825.66</ele>
        <time>2019-08-15T10:06:50.000Z</time>
      </trkpt>
      <trkpt lat="45.22534" lon="5.52286">
        <ele>825.74</ele>
        <time>2019-08-15T10:07:00.000Z</time>
      </trkpt>
      <trkpt lat="45.22524" lon="5.52284">
        <ele>823.79</ele>
        <time>2019-08-15T10:07:10.000Z</time>
      </trkpt>
      <trkpt lat="45.22515" lon="5.5228">
        <ele>822.9</ele>
        <time>2019-08-15T10:07:20.000Z</time>
      </trkpt>
      <trkpt lat="45.22504" lon="5.52277">
        <ele>821.15</ele>
        <time>2019-08-15T10:07:30.000Z</time>
      </trkpt>
      <trkpt lat="45.22495" lon="5.5228">
        <ele>818.04</ele>
        <time>2019-08-15T10:07:41.000Z</time>
      </trkpt>
      <trkpt lat="45.22487" lon="5.52286">
        <ele>815.75</ele>
        <time>2019-08-15T10:07:51.000Z</time>
      </trkpt>
      <trkpt lat="45.22473" lon="5.52284">
        <ele>813.04</ele>
        <time>2019-08-15T10:08:03.000Z</time>
      </trkpt>
      <trkpt lat="45.22468" lon="5.52283">
        <ele>810.74</ele>
        <time>2019-08-15T10:08:14.000Z</time>
      </trkpt>
      <trkpt lat="45.22461" lon="5.52288">
        <ele>808.21</ele>
        <time>2019-08-15T10:08:24.000Z</time>
      </trkpt>
      <trkpt lat="45.22453" lon="5.52286">
        <ele>807.66</ele>
        <time>2019-08-15T10:08:34.000Z</time>
      </trkpt>
      <trkpt lat="45.22442" lon="5.52276">
        <ele>805.69</ele>
        <time>2019-08-15T10:08:44.000Z</time>
      </trkpt>
      <trkpt lat="45.22431" lon="5.52266">
        <ele>801.57</ele>
        <time>2019-08-15T10:08:56.000Z</time>
      </trkpt>
      <trkpt lat="45.22424" lon="5.52257">
        <ele>801.1</ele>
        <time>2019-08-15T10:09:06.000Z</time>
      </trkpt>
      <trkpt lat="45.22413" lon="5.5225">
        <ele>800.02</ele>
        <time>2019-08-15T10:09:16.000Z</time>
      </trkpt>
      <trkpt lat="45.22403" lon="5.52247">
        <ele>798.38</ele>
        <time>2019-08-15T10:09:26.000Z</time>
      </trkpt>
      <trkpt lat="45.22393" lon="5.52242">
        <ele>797.28</ele>
        <time>2019-08-15T10:09:40.000Z</time>
      </trkpt>
      <trkpt lat="45.22384" lon="5.52233">
        <ele>795.62</ele>
        <time>2019-08-15T10:09:50.000Z</time>
      </trkpt>
      <trkpt lat="45.22371" lon="5.52224">
        <ele>797.34</ele>
        <time>2019-08-15T10:10:05.000Z</time>
      </trkpt>
      <trkpt lat="45.22364" lon="5.52217">
        <ele>797.65</ele>
        <time>2019-08-15T10:10:16.000Z</time>
      </trkpt>
      <trkpt lat="45.22354" lon="5.52215">
        <ele>796.95</ele>
        <time>2019-08-15T10:10:28.000Z</time>
      </trkpt>
      <trkpt lat="45.22351" lon="5.5221">
        <ele>794.76</ele>
        <time>2019-08-15T10:10:38.000Z</time>
      </trkpt>
      <trkpt lat="45.22343" lon="5.52203">
        <ele>794.41</ele>
        <time>2019-08-15T10:10:48.000Z</time>
      </trkpt>
      <trkpt lat="45.22337" lon="5.52191">
        <ele>794.85</ele>
        <time>2019-08-15T10:10:58.000Z</time>
      </trkpt>
      <trkpt lat="45.22327" lon="5.5217">
        <ele>794.26</ele>
        <time>2019-08-15T10:11:12.000Z</time>
      </trkpt>
      <trkpt lat="45.22323" lon="5.52156">
        <ele>797.02</ele>
        <time>2019-08-15T10:11:22.000Z</time>
      </trkpt>
      <trkpt lat="45.22325" lon="5.52143">
        <ele>798.46</ele>
        <time>2019-08-15T10:11:33.000Z</time>
      </trkpt>
      <trkpt lat="45.22323" lon="5.52129">
        <ele>797.14</ele>
        <time>2019-08-15T10:11:49.000Z</time>
      </trkpt>
      <trkpt lat="45.22324" lon="5.52112">
        <ele>798.59</ele>
        <time>2019-08-15T10:11:59.000Z</time>
      </trkpt>
      <trkpt lat="45.22327" lon="5.52093">
        <ele>799.85</ele>
        <time>2019-08-15T10:12:09.000Z</time>
      </trkpt>
      <trkpt lat="45.22325" lon="5.52081">
        <ele>800.82</ele>
        <time>2019-08-15T10:12:19.000Z</time>
      </trkpt>
      <trkpt lat="45.22322" lon="5.52068">
        <ele>800.65</ele>
        <time>2019-08-15T10:12:29.000Z</time>
      </trkpt>
      <trkpt lat="45.22315" lon="5.52061">
        <ele>800.96</ele>
        <time>2019-08-15T10:12:39.000Z</time>
      </trkpt>
      <trkpt lat="45.22307" lon="5.5205">
        <ele>799.67</ele>
        <time>2019-08-15T10:12:49.000Z</time>
      </trkpt>
      <trkpt lat="45.22303" lon="5.52038">
        <ele>800.52</ele>
        <time>2019-08-15T10:12:59.000Z</time>
      </trkpt>
      <trkpt lat="45.22299" lon="5.52027">
        <ele>801.62</ele>
        <time>2019-08-15T10:13:09.000Z</time>
      </trkpt>
      <trkpt lat="45.22293" lon="5.5202">
        <ele>803.26</ele>
        <time>2019-08-15T10:13:19.000Z</time>
      </trkpt>
      <trkpt lat="45.22288" lon="5.52013">
        <ele>803.65</ele>
        <time>2019-08-15T10:13:29.000Z</time>
      </trkpt>
      <trkpt lat="45.22283" lon="5.52002">
        <ele>807.49</ele>
        <time>2019-08-15T10:13:39.000Z</time>
      </trkpt>
      <trkpt lat="45.22281" lon="5.51994">
        <ele>810.45</ele>
        <time>2019-08-15T10:13:49.000Z</time>
      </trkpt>
      <trkpt lat="45.22279" lon="5.51987">
        <ele>815.45</ele>
        <time>2019-08-15T10:13:59.000Z</time>
      </trkpt>
      <trkpt lat="45.22274" lon="5.51979">
        <ele>818.03</ele>
        <time>2019-08-15T10:14:09.000Z</time>
      </trkpt>
      <trkpt lat="45.2227" lon="5.51967">
        <ele>818.6</ele>
        <time>2019-08-15T10:14:19.000Z</time>
      </trkpt>
      <trkpt lat="45.22263" lon="5.51959">
        <ele>819.25</ele>
        <time>2019-08-15T10:14:29.000Z</time>
      </trkpt>
      <trkpt lat="45.22255" lon="5.51953">
        <ele>820.87</ele>
        <time>2019-08-15T10:14:39.000Z</time>
      </trkpt>
      <trkpt lat="45.22247" lon="5.51944">
        <ele>822.47</ele>
        <time>2019-08-15T10:14:49.000Z</time>
      </trkpt>
      <trkpt lat="45.22241" lon="5.5194">
        <ele>822.42</ele>
        <time>2019-08-15T10:14:59.000Z</time>
      </trkpt>
      <trkpt lat="45.22235" lon="5.51935">
        <ele>822.65</ele>
        <time>2019-08-15T10:15:09.000Z</time>
      </trkpt>
      <trkpt lat="45.22229" lon="5.51928">
        <ele>823.69</ele>
        <time>2019-08-15T10:15:19.000Z</time>
      </trkpt>
      <trkpt lat="45.22221" lon="5.51922">
        <ele>823.18</ele>
        <time>2019-08-15T10:15:29.000Z</time>
      </trkpt>
      <trkpt lat="45.22214" lon="5.51914">
        <ele>825.87</ele>
        <time>2019-08-15T10:15:39.000Z</time>
      </trkpt>
      <trkpt lat="45.22208" lon="5.51909">
        <ele>827.39</ele>
        <time>2019-08-15T10:15:49.000Z</time>
      </trkpt>
      <trkpt lat="45.22204" lon="5.51896">
        <ele>830.99</ele>
        <time>2019-08-15T10:16:02.000Z</time>
      </trkpt>
      <trkpt lat="45.22203" lon="5.5189">
        <ele>831.65</ele>
        <time>2019-08-15T10:16:12.000Z</time>
      </trkpt>
      <trkpt lat="45.222" lon="5.51881">
        <ele>829.63</ele>
        <time>2019-08-15T10:16:28.000Z</time>
      </trkpt>
      <trkpt lat="45.222" lon="5.51874">
        <ele>828.08</ele>
        <time>2019-08-15T10:16:38.000Z</time>
      </trkpt>
      <trkpt lat="45.22199" lon="5.51862">
        <ele>827.02</ele>
        <time>2019-08-15T10:16:48.000Z</time>
      </trkpt>
      <trkpt lat="45.22202" lon="5.5185">
        <ele>825.19</ele>
        <time>2019-08-15T10:16:58.000Z</time>
      </trkpt>
      <trkpt lat="45.22207" lon="5.51842">
        <ele>822.77</ele>
        <time>2019-08-15T10:17:08.000Z</time>
      </trkpt>
      <trkpt lat="45.22208" lon="5.51826">
        <ele>822.07</ele>
        <time>2019-08-15T10:17:18.000Z</time>
      </trkpt>
      <trkpt lat="45.22207" lon="5.51811">
        <ele>820.7</ele>
        <time>2019-08-15T10:17:34.000Z</time>
      </trkpt>
      <trkpt lat="45.2221" lon="5.51792">
        <ele>818.59</ele>
        <time>2019-08-15T10:17:44.000Z</time>
      </trkpt>
      <trkpt lat="45.22217" lon="5.51775">
        <ele>820.24</ele>
        <time>2019-08-15T10:17:54.000Z</time>
      </trkpt>
      <trkpt lat="45.22224" lon="5.51762">
        <ele>821.52</ele>
        <time>2019-08-15T10:18:04.000Z</time>
      </trkpt>
      <trkpt lat="45.22231" lon="5.51752">
        <ele>819.91</ele>
        <time>2019-08-15T10:18:14.000Z</time>
      </trkpt>
      <trkpt lat="45.22237" lon="5.51741">
        <ele>820.24</ele>
        <time>2019-08-15T10:18:24.000Z</time>
      </trkpt>
      <trkpt lat="45.22244" lon="5.51727">
        <ele>821.65</ele>
        <time>2019-08-15T10:18:34.000Z</time>
      </trkpt>
      <trkpt lat="45.22249" lon="5.51719">
        <ele>822.92</ele>
        <time>2019-08-15T10:18:44.000Z</time>
      </trkpt>
      <trkpt lat="45.2226" lon="5.5171">
        <ele>823.24</ele>
        <time>2019-08-15T10:18:54.000Z</time>
      </trkpt>
      <trkpt lat="45.22263" lon="5.51701">
        <ele>821.4</ele>
        <time>2019-08-15T10:19:04.000Z</time>
      </trkpt>
      <trkpt lat="45.22262" lon="5.51691">
        <ele>820.68</ele>
        <time>2019-08-15T10:19:14.000Z</time>
      </trkpt>
      <trkpt lat="45.22261" lon="5.5168">
        <ele>821</ele>
        <time>2019-08-15T10:19:24.000Z</time>
      </trkpt>
      <trkpt lat="45.22256" lon="5.51668">
        <ele>822.17</ele>
        <time>2019-08-15T10:19:34.000Z</time>
      </trkpt>
      <trkpt lat="45.22251" lon="5.51659">
        <ele>823.29</ele>
        <time>2019-08-15T10:19:44.000Z</time>
      </trkpt>
      <trkpt lat="45.22246" lon="5.51646">
        <ele>822.66</ele>
        <time>2019-08-15T10:19:55.000Z</time>
      </trkpt>
      <trkpt lat="45.22241" lon="5.51631">
        <ele>823.29</ele>
        <time>2019-08-15T10:20:05.000Z</time>
      </trkpt>
      <trkpt lat="45.22236" lon="5.51618">
        <ele>822.06</ele>
        <time>2019-08-15T10:20:15.000Z</time>
      </trkpt>
      <trkpt lat="45.22234" lon="5.51612">
        <ele>821.11</ele>
        <time>2019-08-15T10:20:25.000Z</time>
      </trkpt>
      <trkpt lat="45.22232" lon="5.51601">
        <ele>820.67</ele>
        <time>2019-08-15T10:20:35.000Z</time>
      </trkpt>
      <trkpt lat="45.22228" lon="5.51591">
        <ele>817.71</ele>
        <time>2019-08-15T10:20:53.000Z</time>
      </trkpt>
      <trkpt lat="45.22225" lon="5.5158">
        <ele>815.15</ele>
        <time>2019-08-15T10:21:03.000Z</time>
      </trkpt>
      <trkpt lat="45.22219" lon="5.51577">
        <ele>814.26</ele>
        <time>2019-08-15T10:21:13.000Z</time>
      </trkpt>
      <trkpt lat="45.22216" lon="5.51572">
        <ele>813.02</ele>
        <time>2019-08-15T10:21:23.000Z</time>
      </trkpt>
      <trkpt lat="45.22213" lon="5.51563">
        <ele>812.84</ele>
        <time>2019-08-15T10:21:33.000Z</time>
      </trkpt>
      <trkpt lat="45.22207" lon="5.51557">
        <ele>811.68</ele>
        <time>2019-08-15T10:21:43.000Z</time>
      </trkpt>
      <trkpt lat="45.22198" lon="5.51548">
        <ele>810.63</ele>
        <time>2019-08-15T10:21:53.000Z</time>
      </trkpt>
      <trkpt lat="45.2219" lon="5.5154">
        <ele>807.14</ele>
        <time>2019-08-15T10:22:03.000Z</time>
      </trkpt>
      <trkpt lat="45.22185" lon="5.51534">
        <ele>808.42</ele>
        <time>2019-08-15T10:22:13.000Z</time>
      </trkpt>
      <trkpt lat="45.2218" lon="5.51526">
        <ele>806.01</ele>
        <time>2019-08-15T10:22:25.000Z</time>
      </trkpt>
      <trkpt lat="45.22174" lon="5.51521">
        <ele>802.96</ele>
        <time>2019-08-15T10:22:35.000Z</time>
      </trkpt>
      <trkpt lat="45.22169" lon="5.51519">
        <ele>801.06</ele>
        <time>2019-08-15T10:22:45.000Z</time>
      </trkpt>
      <trkpt lat="45.22164" lon="5.51515">
        <ele>798.83</ele>
        <time>2019-08-15T10:22:55.000Z</time>
      </trkpt>
      <trkpt lat="45.2216" lon="5.51509">
        <ele>795.68</ele>
        <time>2019-08-15T10:23:05.000Z</time>
      </trkpt>
      <trkpt lat="45.22159" lon="5.51502">
        <ele>792.11</ele>
        <time>2019-08-15T10:23:15.000Z</time>
      </trkpt>
      <trkpt lat="45.22156" lon="5.51495">
        <ele>789.8</ele>
        <time>2019-08-15T10:23:25.000Z</time>
      </trkpt>
      <trkpt lat="45.22157" lon="5.51485">
        <ele>788.55</ele>
        <time>2019-08-15T10:23:35.000Z</time>
      </trkpt>
      <trkpt lat="45.22149" lon="5.51481">
        <ele>787.65</ele>
        <time>2019-08-15T10:23:54.000Z</time>
      </trkpt>
      <trkpt lat="45.22145" lon="5.51478">
        <ele>787.87</ele>
        <time>2019-08-15T10:24:04.000Z</time>
      </trkpt>
      <trkpt lat="45.2214" lon="5.51475">
        <ele>787.25</ele>
        <time>2019-08-15T10:24:14.000Z</time>
      </trkpt>
      <trkpt lat="45.22134" lon="5.51472">
        <ele>784.71</ele>
        <time>2019-08-15T10:24:24.000Z</time>
      </trkpt>
      <trkpt lat="45.22138" lon="5.51466">
        <ele>780.38</ele>
        <time>2019-08-15T10:24:34.000Z</time>
      </trkpt>
      <trkpt lat="45.22139" lon="5.51458">
        <ele>774.34</ele>
        <time>2019-08-15T10:24:44.000Z</time>
      </trkpt>
      <trkpt lat="45.22143" lon="5.51453">
        <ele>771.68</ele>
        <time>2019-08-15T10:24:54.000Z</time>
      </trkpt>
      <trkpt lat="45.22147" lon="5.51448">
        <ele>770.28</ele>
        <time>2019-08-15T10:25:04.000Z</time>
      </trkpt>
      <trkpt lat="45.22147" lon="5.51442">
        <ele>768.65</ele>
        <time>2019-08-15T10:25:14.000Z</time>
      </trkpt>
      <trkpt lat="45.22142" lon="5.5144">
        <ele>765.34</ele>
        <time>2019-08-15T10:25:24.000Z</time>
      </trkpt>
      <trkpt lat="45.22137" lon="5.51437">
        <ele>763.69</ele>
        <time>2019-08-15T10:25:34.000Z</time>
      </trkpt>
      <trkpt lat="45.2213" lon="5.51436">
        <ele>762.09</ele>
        <time>2019-08-15T10:25:44.000Z</time>
      </trkpt>
      <trkpt lat="45.22127" lon="5.51428">
        <ele>759.1</ele>
        <time>2019-08-15T10:25:54.000Z</time>
      </trkpt>
      <trkpt lat="45.22123" lon="5.51422">
        <ele>758.64</ele>
        <time>2019-08-15T10:26:04.000Z</time>
      </trkpt>
      <trkpt lat="45.2212" lon="5.51417">
        <ele>755.39</ele>
        <time>2019-08-15T10:26:14.000Z</time>
      </trkpt>
      <trkpt lat="45.22117" lon="5.51412">
        <ele>753.79</ele>
        <time>2019-08-15T10:26:24.000Z</time>
      </trkpt>
      <trkpt lat="45.22112" lon="5.51411">
        <ele>747.9</ele>
        <time>2019-08-15T10:26:34.000Z</time>
      </trkpt>
      <trkpt lat="45.22112" lon="5.51404">
        <ele>741.9</ele>
        <time>2019-08-15T10:26:44.000Z</time>
      </trkpt>
      <trkpt lat="45.22109" lon="5.514">
        <ele>738.09</ele>
        <time>2019-08-15T10:26:54.000Z</time>
      </trkpt>
      <trkpt lat="45.22104" lon="5.51394">
        <ele>739.27</ele>
        <time>2019-08-15T10:27:04.000Z</time>
      </trkpt>
      <trkpt lat="45.22101" lon="5.51389">
        <ele>738.92</ele>
        <time>2019-08-15T10:27:14.000Z</time>
      </trkpt>
      <trkpt lat="45.22095" lon="5.51383">
        <ele>736.89</ele>
        <time>2019-08-15T10:27:24.000Z</time>
      </trkpt>
      <trkpt lat="45.22091" lon="5.51375">
        <ele>732.83</ele>
        <time>2019-08-15T10:27:41.000Z</time>
      </trkpt>
      <trkpt lat="45.22086" lon="5.51371">
        <ele>731.7</ele>
        <time>2019-08-15T10:27:52.000Z</time>
      </trkpt>
      <trkpt lat="45.22078" lon="5.51363">
        <ele>730.72</ele>
        <time>2019-08-15T10:28:02.000Z</time>
      </trkpt>
      <trkpt lat="45.22073" lon="5.51353">
        <ele>729.73</ele>
        <time>2019-08-15T10:28:12.000Z</time>
      </trkpt>
      <trkpt lat="45.22068" lon="5.51348">
        <ele>727.74</ele>
        <time>2019-08-15T10:28:22.000Z</time>
      </trkpt>
      <trkpt lat="45.22062" lon="5.51341">
        <ele>725.05</ele>
        <time>2019-08-15T10:28:32.000Z</time>
      </trkpt>
      <trkpt lat="45.22059" lon="5.51334">
        <ele>722.71</ele>
        <time>2019-08-15T10:28:42.000Z</time>
      </trkpt>
      <trkpt lat="45.22049" lon="5.51326">
        <ele>718.55</ele>
        <time>2019-08-15T10:28:52.000Z</time>
      </trkpt>
      <trkpt lat="45.2204" lon="5.51312">
        <ele>716.69</ele>
        <time>2019-08-15T10:29:02.000Z</time>
      </trkpt>
      <trkpt lat="45.22032" lon="5.51303">
        <ele>715.62</ele>
        <time>2019-08-15T10:29:13.000Z</time>
      </trkpt>
      <trkpt lat="45.22027" lon="5.51295">
        <ele>713.91</ele>
        <time>2019-08-15T10:29:23.000Z</time>
      </trkpt>
      <trkpt lat="45.22025" lon="5.51287">
        <ele>710.06</ele>
        <time>2019-08-15T10:29:33.000Z</time>
      </trkpt>
      <trkpt lat="45.22024" lon="5.5128">
        <ele>707.09</ele>
        <time>2019-08-15T10:29:43.000Z</time>
      </trkpt>
      <trkpt lat="45.22021" lon="5.51266">
        <ele>704.83</ele>
        <time>2019-08-15T10:29:53.000Z</time>
      </trkpt>
      <trkpt lat="45.22023" lon="5.51256">
        <ele>701.73</ele>
        <time>2019-08-15T10:30:03.000Z</time>
      </trkpt>
      <trkpt lat="45.2203" lon="5.51248">
        <ele>697.91</ele>
        <time>2019-08-15T10:30:13.000Z</time>
      </trkpt>
      <trkpt lat="45.22029" lon="5.5124">
        <ele>693.72</ele>
        <time>2019-08-15T10:30:23.000Z</time>
      </trkpt>
      <trkpt lat="45.22024" lon="5.51231">
        <ele>692.73</ele>
        <time>2019-08-15T10:30:33.000Z</time>
      </trkpt>
      <trkpt lat="45.22023" lon="5.51224">
        <ele>691.98</ele>
        <time>2019-08-15T10:30:43.000Z</time>
      </trkpt>
      <trkpt lat="45.22022" lon="5.51217">
        <ele>689.11</ele>
        <time>2019-08-15T10:30:53.000Z</time>
      </trkpt>
      <trkpt lat="45.22016" lon="5.51214">
        <ele>685.75</ele>
        <time>2019-08-15T10:31:03.000Z</time>
      </trkpt>
      <trkpt lat="45.22013" lon="5.51208">
        <ele>684.67</ele>
        <time>2019-08-15T10:31:13.000Z</time>
      </trkpt>
      <trkpt lat="45.2201" lon="5.51199">
        <ele>681.63</ele>
        <time>2019-08-15T10:31:23.000Z</time>
      </trkpt>
      <trkpt lat="45.2201" lon="5.51192">
        <ele>681.91</ele>
        <time>2019-08-15T10:31:33.000Z</time>
      </trkpt>
      <trkpt lat="45.22007" lon="5.51183">
        <ele>681.25</ele>
        <time>2019-08-15T10:31:43.000Z</time>
      </trkpt>
      <trkpt lat="45.22004" lon="5.51176">
        <ele>677.98</ele>
        <time>2019-08-15T10:31:53.000Z</time>
      </trkpt>
      <trkpt lat="45.21999" lon="5.51167">
        <ele>675.01</ele>
        <time>2019-08-15T10:32:03.000Z</time>
      </trkpt>
      <trkpt lat="45.21995" lon="5.51163">
        <ele>672.66</ele>
        <time>2019-08-15T10:32:13.000Z</time>
      </trkpt>
      <trkpt lat="45.21986" lon="5.51156">
        <ele>671.01</ele>
        <time>2019-08-15T10:32:23.000Z</time>
      </trkpt>
      <trkpt lat="45.21978" lon="5.51152">
        <ele>672.63</ele>
        <time>2019-08-15T10:32:33.000Z</time>
      </trkpt>
      <trkpt lat="45.21979" lon="5.51146">
        <ele>665.24</ele>
        <time>2019-08-15T10:32:43.000Z</time>
      </trkpt>
      <trkpt lat="45.21984" lon="5.51133">
        <ele>659.75</ele>
        <time>2019-08-15T10:32:53.000Z</time>
      </trkpt>
      <trkpt lat="45.21987" lon="5.51121">
        <ele>657.54</ele>
        <time>2019-08-15T10:33:03.000Z</time>
      </trkpt>
      <trkpt lat="45.2199" lon="5.51108">
        <ele>654.1</ele>
        <time>2019-08-15T10:33:13.000Z</time>
      </trkpt>
      <trkpt lat="45.21991" lon="5.51097">
        <ele>650.33</ele>
        <time>2019-08-15T10:35:36.000Z</time>
      </trkpt>
      <trkpt lat="45.21993" lon="5.51086">
        <ele>650.68</ele>
        <time>2019-08-15T10:46:59.000Z</time>
      </trkpt>
      <trkpt lat="45.21994" lon="5.51076">
        <ele>647.1</ele>
        <time>2019-08-15T11:03:20.000Z</time>
      </trkpt>
      <trkpt lat="45.21991" lon="5.51068">
        <ele>645.63</ele>
        <time>2019-08-15T11:03:31.000Z</time>
      </trkpt>
      <trkpt lat="45.21985" lon="5.51058">
        <ele>642.15</ele>
        <time>2019-08-15T11:03:41.000Z</time>
      </trkpt>
      <trkpt lat="45.21979" lon="5.51046">
        <ele>639.28</ele>
        <time>2019-08-15T11:03:51.000Z</time>
      </trkpt>
      <trkpt lat="45.21974" lon="5.51036">
        <ele>643.67</ele>
        <time>2019-08-15T11:04:01.000Z</time>
      </trkpt>
      <trkpt lat="45.21969" lon="5.51031">
        <ele>644.29</ele>
        <time>2019-08-15T11:04:11.000Z</time>
      </trkpt>
      <trkpt lat="45.2196" lon="5.51029">
        <ele>641.79</ele>
        <time>2019-08-15T11:04:21.000Z</time>
      </trkpt>
      <trkpt lat="45.21952" lon="5.5103">
        <ele>638.55</ele>
        <time>2019-08-15T11:04:31.000Z</time>
      </trkpt>
      <trkpt lat="45.21945" lon="5.51033">
        <ele>636.26</ele>
        <time>2019-08-15T11:04:41.000Z</time>
      </trkpt>
      <trkpt lat="45.21937" lon="5.51037">
        <ele>633.11</ele>
        <time>2019-08-15T11:05:00.000Z</time>
      </trkpt>
      <trkpt lat="45.21934" lon="5.51042">
        <ele>628.09</ele>
        <time>2019-08-15T11:05:10.000Z</time>
      </trkpt>
      <trkpt lat="45.21927" lon="5.51044">
        <ele>626.66</ele>
        <time>2019-08-15T11:05:20.000Z</time>
      </trkpt>
      <trkpt lat="45.21918" lon="5.51043">
        <ele>627.61</ele>
        <time>2019-08-15T11:05:30.000Z</time>
      </trkpt>
      <trkpt lat="45.21909" lon="5.51043">
        <ele>625.68</ele>
        <time>2019-08-15T11:05:40.000Z</time>
      </trkpt>
      <trkpt lat="45.219" lon="5.51035">
        <ele>622.12</ele>
        <time>2019-08-15T11:05:50.000Z</time>
      </trkpt>
      <trkpt lat="45.21892" lon="5.51032">
        <ele>619.83</ele>
        <time>2019-08-15T11:06:00.000Z</time>
      </trkpt>
      <trkpt lat="45.21882" lon="5.51033">
        <ele>617.67</ele>
        <time>2019-08-15T11:06:10.000Z</time>
      </trkpt>
      <trkpt lat="45.21874" lon="5.51039">
        <ele>615.69</ele>
        <time>2019-08-15T11:06:20.000Z</time>
      </trkpt>
      <trkpt lat="45.21869" lon="5.51044">
        <ele>611.96</ele>
        <time>2019-08-15T11:06:30.000Z</time>
      </trkpt>
      <trkpt lat="45.21865" lon="5.51046">
        <ele>610.66</ele>
        <time>2019-08-15T11:06:40.000Z</time>
      </trkpt>
      <trkpt lat="45.21857" lon="5.51052">
        <ele>609.09</ele>
        <time>2019-08-15T11:06:50.000Z</time>
      </trkpt>
      <trkpt lat="45.21848" lon="5.51056">
        <ele>605.73</ele>
        <time>2019-08-15T11:07:00.000Z</time>
      </trkpt>
      <trkpt lat="45.21838" lon="5.5106">
        <ele>605.84</ele>
        <time>2019-08-15T11:07:10.000Z</time>
      </trkpt>
      <trkpt lat="45.21831" lon="5.51067">
        <ele>604.42</ele>
        <time>2019-08-15T11:07:24.000Z</time>
      </trkpt>
      <trkpt lat="45.21825" lon="5.51075">
        <ele>603.05</ele>
        <time>2019-08-15T11:07:34.000Z</time>
      </trkpt>
      <trkpt lat="45.21817" lon="5.51082">
        <ele>599.32</ele>
        <time>2019-08-15T11:07:44.000Z</time>
      </trkpt>
      <trkpt lat="45.2181" lon="5.51089">
        <ele>595.25</ele>
        <time>2019-08-15T11:07:54.000Z</time>
      </trkpt>
      <trkpt lat="45.21806" lon="5.51093">
        <ele>588.68</ele>
        <time>2019-08-15T11:08:04.000Z</time>
      </trkpt>
      <trkpt lat="45.21799" lon="5.51095">
        <ele>582.86</ele>
        <time>2019-08-15T11:08:14.000Z</time>
      </trkpt>
      <trkpt lat="45.21789" lon="5.511">
        <ele>578.44</ele>
        <time>2019-08-15T11:08:24.000Z</time>
      </trkpt>
      <trkpt lat="45.21781" lon="5.51102">
        <ele>576.66</ele>
        <time>2019-08-15T11:08:34.000Z</time>
      </trkpt>
      <trkpt lat="45.21772" lon="5.51097">
        <ele>575.65</ele>
        <time>2019-08-15T11:08:44.000Z</time>
      </trkpt>
      <trkpt lat="45.21763" lon="5.51099">
        <ele>572.16</ele>
        <time>2019-08-15T11:08:54.000Z</time>
      </trkpt>
      <trkpt lat="45.21754" lon="5.51099">
        <ele>568.48</ele>
        <time>2019-08-15T11:09:04.000Z</time>
      </trkpt>
      <trkpt lat="45.21743" lon="5.51098">
        <ele>564.01</ele>
        <time>2019-08-15T11:09:14.000Z</time>
      </trkpt>
      <trkpt lat="45.21737" lon="5.51099">
        <ele>559.85</ele>
        <time>2019-08-15T11:09:24.000Z</time>
      </trkpt>
      <trkpt lat="45.21726" lon="5.51104">
        <ele>559.56</ele>
        <time>2019-08-15T11:09:34.000Z</time>
      </trkpt>
      <trkpt lat="45.21716" lon="5.5111">
        <ele>555.75</ele>
        <time>2019-08-15T11:09:44.000Z</time>
      </trkpt>
      <trkpt lat="45.21706" lon="5.51113">
        <ele>554.21</ele>
        <time>2019-08-15T11:09:54.000Z</time>
      </trkpt>
      <trkpt lat="45.21698" lon="5.51117">
        <ele>549.73</ele>
        <time>2019-08-15T11:10:04.000Z</time>
      </trkpt>
      <trkpt lat="45.21691" lon="5.51117">
        <ele>544.96</ele>
        <time>2019-08-15T11:10:14.000Z</time>
      </trkpt>
      <trkpt lat="45.2168" lon="5.51125">
        <ele>540.77</ele>
        <time>2019-08-15T11:10:24.000Z</time>
      </trkpt>
      <trkpt lat="45.21668" lon="5.51128">
        <ele>539.01</ele>
        <time>2019-08-15T11:10:34.000Z</time>
      </trkpt>
      <trkpt lat="45.21658" lon="5.51135">
        <ele>535.83</ele>
        <time>2019-08-15T11:10:44.000Z</time>
      </trkpt>
      <trkpt lat="45.21651" lon="5.5114">
        <ele>533.78</ele>
        <time>2019-08-15T11:10:54.000Z</time>
      </trkpt>
      <trkpt lat="45.2164" lon="5.51148">
        <ele>532.24</ele>
        <time>2019-08-15T11:11:04.000Z</time>
      </trkpt>
      <trkpt lat="45.21631" lon="5.5115">
        <ele>527.89</ele>
        <time>2019-08-15T11:11:14.000Z</time>
      </trkpt>
      <trkpt lat="45.2162" lon="5.51151">
        <ele>527.31</ele>
        <time>2019-08-15T11:11:24.000Z</time>
      </trkpt>
      <trkpt lat="45.21612" lon="5.51158">
        <ele>527.63</ele>
        <time>2019-08-15T11:11:34.000Z</time>
      </trkpt>
      <trkpt lat="45.21608" lon="5.51164">
        <ele>525.69</ele>
        <time>2019-08-15T11:11:44.000Z</time>
      </trkpt>
      <trkpt lat="45.21604" lon="5.51165">
        <ele>524.53</ele>
        <time>2019-08-15T11:11:54.000Z</time>
      </trkpt>
      <trkpt lat="45.216" lon="5.5116">
        <ele>524.46</ele>
        <time>2019-08-15T11:12:04.000Z</time>
      </trkpt>
      <trkpt lat="45.21595" lon="5.51158">
        <ele>523.25</ele>
        <time>2019-08-15T11:12:14.000Z</time>
      </trkpt>
      <trkpt lat="45.21588" lon="5.51146">
        <ele>519.63</ele>
        <time>2019-08-15T11:12:24.000Z</time>
      </trkpt>
      <trkpt lat="45.21582" lon="5.51136">
        <ele>513.61</ele>
        <time>2019-08-15T11:12:34.000Z</time>
      </trkpt>
      <trkpt lat="45.21584" lon="5.51126">
        <ele>511.65</ele>
        <time>2019-08-15T11:12:44.000Z</time>
      </trkpt>
      <trkpt lat="45.21581" lon="5.51113">
        <ele>509.72</ele>
        <time>2019-08-15T11:12:54.000Z</time>
      </trkpt>
      <trkpt lat="45.21578" lon="5.51104">
        <ele>508.68</ele>
        <time>2019-08-15T11:13:04.000Z</time>
      </trkpt>
      <trkpt lat="45.21575" lon="5.51097">
        <ele>507.85</ele>
        <time>2019-08-15T11:13:14.000Z</time>
      </trkpt>
      <trkpt lat="45.21575" lon="5.51086">
        <ele>503.83</ele>
        <time>2019-08-15T11:13:24.000Z</time>
      </trkpt>
      <trkpt lat="45.21573" lon="5.5107">
        <ele>500.88</ele>
        <time>2019-08-15T11:13:34.000Z</time>
      </trkpt>
      <trkpt lat="45.21576" lon="5.51058">
        <ele>497.65</ele>
        <time>2019-08-15T11:13:44.000Z</time>
      </trkpt>
      <trkpt lat="45.21579" lon="5.51041">
        <ele>497.66</ele>
        <time>2019-08-15T11:13:54.000Z</time>
      </trkpt>
      <trkpt lat="45.21573" lon="5.51035">
        <ele>496.33</ele>
        <time>2019-08-15T11:14:04.000Z</time>
      </trkpt>
      <trkpt lat="45.21566" lon="5.51026">
        <ele>496.8</ele>
        <time>2019-08-15T11:14:14.000Z</time>
      </trkpt>
      <trkpt lat="45.2156" lon="5.51016">
        <ele>492.88</ele>
        <time>2019-08-15T11:14:24.000Z</time>
      </trkpt>
      <trkpt lat="45.21556" lon="5.51008">
        <ele>494.73</ele>
        <time>2019-08-15T11:14:34.000Z</time>
      </trkpt>
      <trkpt lat="45.2155" lon="5.50999">
        <ele>495.93</ele>
        <time>2019-08-15T11:14:44.000Z</time>
      </trkpt>
      <trkpt lat="45.21547" lon="5.50989">
        <ele>498.59</ele>
        <time>2019-08-15T11:14:54.000Z</time>
      </trkpt>
      <trkpt lat="45.2154" lon="5.5098">
        <ele>497.01</ele>
        <time>2019-08-15T11:15:04.000Z</time>
      </trkpt>
      <trkpt lat="45.21535" lon="5.50971">
        <ele>496.94</ele>
        <time>2019-08-15T11:15:14.000Z</time>
      </trkpt>
      <trkpt lat="45.21525" lon="5.50959">
        <ele>498.63</ele>
        <time>2019-08-15T11:15:24.000Z</time>
      </trkpt>
      <trkpt lat="45.21517" lon="5.50948">
        <ele>498.64</ele>
        <time>2019-08-15T11:15:36.000Z</time>
      </trkpt>
      <trkpt lat="45.21511" lon="5.50937">
        <ele>501.45</ele>
        <time>2019-08-15T11:15:46.000Z</time>
      </trkpt>
      <trkpt lat="45.21505" lon="5.50928">
        <ele>502.42</ele>
        <time>2019-08-15T11:15:56.000Z</time>
      </trkpt>
      <trkpt lat="45.21498" lon="5.50921">
        <ele>503.38</ele>
        <time>2019-08-15T11:16:10.000Z</time>
      </trkpt>
      <trkpt lat="45.21493" lon="5.50912">
        <ele>504.2</ele>
        <time>2019-08-15T11:16:27.000Z</time>
      </trkpt>
      <trkpt lat="45.21489" lon="5.50907">
        <ele>504.77</ele>
        <time>2019-08-15T11:16:37.000Z</time>
      </trkpt>
      <trkpt lat="45.21482" lon="5.50901">
        <ele>507.85</ele>
        <time>2019-08-15T11:16:47.000Z</time>
      </trkpt>
      <trkpt lat="45.21473" lon="5.50895">
        <ele>509.41</ele>
        <time>2019-08-15T11:16:57.000Z</time>
      </trkpt>
      <trkpt lat="45.21465" lon="5.50898">
        <ele>512.46</ele>
        <time>2019-08-15T11:17:07.000Z</time>
      </trkpt>
      <trkpt lat="45.2146" lon="5.50898">
        <ele>512.63</ele>
        <time>2019-08-15T11:17:17.000Z</time>
      </trkpt>
      <trkpt lat="45.21456" lon="5.50892">
        <ele>511.07</ele>
        <time>2019-08-15T11:17:27.000Z</time>
      </trkpt>
      <trkpt lat="45.21455" lon="5.50884">
        <ele>508.2</ele>
        <time>2019-08-15T11:17:37.000Z</time>
      </trkpt>
      <trkpt lat="45.21453" lon="5.50878">
        <ele>514.74</ele>
        <time>2019-08-15T11:17:47.000Z</time>
      </trkpt>
      <trkpt lat="45.21456" lon="5.50884">
        <ele>526.56</ele>
        <time>2019-08-15T11:17:57.000Z</time>
      </trkpt>
      <trkpt lat="45.21453" lon="5.50889">
        <ele>526.63</ele>
        <time>2019-08-15T11:18:07.000Z</time>
      </trkpt>
      <trkpt lat="45.21447" lon="5.50891">
        <ele>526.59</ele>
        <time>2019-08-15T11:18:17.000Z</time>
      </trkpt>
      <trkpt lat="45.21442" lon="5.50896">
        <ele>525.7</ele>
        <time>2019-08-15T11:18:27.000Z</time>
      </trkpt>
      <trkpt lat="45.21438" lon="5.509">
        <ele>525.16</ele>
        <time>2019-08-15T11:18:37.000Z</time>
      </trkpt>
      <trkpt lat="45.21431" lon="5.50904">
        <ele>526.55</ele>
        <time>2019-08-15T11:18:47.000Z</time>
      </trkpt>
      <trkpt lat="45.2142" lon="5.50906">
        <ele>528.01</ele>
        <time>2019-08-15T11:18:57.000Z</time>
      </trkpt>
      <trkpt lat="45.21412" lon="5.50907">
        <ele>529.16</ele>
        <time>2019-08-15T11:19:07.000Z</time>
      </trkpt>
      <trkpt lat="45.21408" lon="5.50909">
        <ele>531.34</ele>
        <time>2019-08-15T11:19:17.000Z</time>
      </trkpt>
      <trkpt lat="45.21402" lon="5.50912">
        <ele>533.54</ele>
        <time>2019-08-15T11:19:27.000Z</time>
      </trkpt>
      <trkpt lat="45.21397" lon="5.50914">
        <ele>532.66</ele>
        <time>2019-08-15T11:19:37.000Z</time>
      </trkpt>
      <trkpt lat="45.21392" lon="5.50915">
        <ele>537.14</ele>
        <time>2019-08-15T11:19:47.000Z</time>
      </trkpt>
      <trkpt lat="45.21383" lon="5.50917">
        <ele>537.63</ele>
        <time>2019-08-15T11:19:57.000Z</time>
      </trkpt>
      <trkpt lat="45.21377" lon="5.50921">
        <ele>536.01</ele>
        <time>2019-08-15T11:20:07.000Z</time>
      </trkpt>
      <trkpt lat="45.21368" lon="5.50923">
        <ele>536.32</ele>
        <time>2019-08-15T11:20:17.000Z</time>
      </trkpt>
      <trkpt lat="45.21361" lon="5.50926">
        <ele>536.2</ele>
        <time>2019-08-15T11:20:27.000Z</time>
      </trkpt>
      <trkpt lat="45.21352" lon="5.50931">
        <ele>534.36</ele>
        <time>2019-08-15T11:20:37.000Z</time>
      </trkpt>
      <trkpt lat="45.21344" lon="5.50936">
        <ele>532.44</ele>
        <time>2019-08-15T11:20:47.000Z</time>
      </trkpt>
      <trkpt lat="45.21336" lon="5.50943">
        <ele>529.34</ele>
        <time>2019-08-15T11:20:57.000Z</time>
      </trkpt>
      <trkpt lat="45.21332" lon="5.50947">
        <ele>528.63</ele>
        <time>2019-08-15T11:21:07.000Z</time>
      </trkpt>
      <trkpt lat="45.21323" lon="5.5095">
        <ele>526.85</ele>
        <time>2019-08-15T11:21:17.000Z</time>
      </trkpt>
      <trkpt lat="45.21314" lon="5.50956">
        <ele>524.34</ele>
        <time>2019-08-15T11:21:27.000Z</time>
      </trkpt>
      <trkpt lat="45.21306" lon="5.50963">
        <ele>520.9</ele>
        <time>2019-08-15T11:21:37.000Z</time>
      </trkpt>
      <trkpt lat="45.213" lon="5.5097">
        <ele>521.02</ele>
        <time>2019-08-15T11:21:47.000Z</time>
      </trkpt>
      <trkpt lat="45.21295" lon="5.50978">
        <ele>523.24</ele>
        <time>2019-08-15T11:21:57.000Z</time>
      </trkpt>
      <trkpt lat="45.21285" lon="5.50988">
        <ele>525.92</ele>
        <time>2019-08-15T11:22:07.000Z</time>
      </trkpt>
      <trkpt lat="45.2128" lon="5.51">
        <ele>526.58</ele>
        <time>2019-08-15T11:22:17.000Z</time>
      </trkpt>
      <trkpt lat="45.21272" lon="5.51008">
        <ele>525.99</ele>
        <time>2019-08-15T11:22:27.000Z</time>
      </trkpt>
      <trkpt lat="45.21265" lon="5.51016">
        <ele>523.07</ele>
        <time>2019-08-15T11:22:37.000Z</time>
      </trkpt>
      <trkpt lat="45.21257" lon="5.51024">
        <ele>521.3</ele>
        <time>2019-08-15T11:22:47.000Z</time>
      </trkpt>
      <trkpt lat="45.21247" lon="5.51028">
        <ele>520.64</ele>
        <time>2019-08-15T11:22:57.000Z</time>
      </trkpt>
      <trkpt lat="45.21238" lon="5.51028">
        <ele>521.48</ele>
        <time>2019-08-15T11:23:08.000Z</time>
      </trkpt>
      <trkpt lat="45.21231" lon="5.51027">
        <ele>526.7</ele>
        <time>2019-08-15T11:23:21.000Z</time>
      </trkpt>
      <trkpt lat="45.21224" lon="5.51023">
        <ele>528.77</ele>
        <time>2019-08-15T11:24:05.000Z</time>
      </trkpt>
      <trkpt lat="45.21218" lon="5.51013">
        <ele>531.42</ele>
        <time>2019-08-15T11:24:15.000Z</time>
      </trkpt>
      <trkpt lat="45.21209" lon="5.51005">
        <ele>533.18</ele>
        <time>2019-08-15T11:24:25.000Z</time>
      </trkpt>
      <trkpt lat="45.21206" lon="5.50994">
        <ele>535.91</ele>
        <time>2019-08-15T11:24:35.000Z</time>
      </trkpt>
      <trkpt lat="45.21201" lon="5.50983">
        <ele>538.28</ele>
        <time>2019-08-15T11:24:45.000Z</time>
      </trkpt>
      <trkpt lat="45.212" lon="5.50972">
        <ele>541.15</ele>
        <time>2019-08-15T11:24:55.000Z</time>
      </trkpt>
      <trkpt lat="45.21194" lon="5.50961">
        <ele>542.66</ele>
        <time>2019-08-15T11:25:05.000Z</time>
      </trkpt>
      <trkpt lat="45.21197" lon="5.50947">
        <ele>543.98</ele>
        <time>2019-08-15T11:25:15.000Z</time>
      </trkpt>
      <trkpt lat="45.21196" lon="5.50933">
        <ele>543.84</ele>
        <time>2019-08-15T11:25:25.000Z</time>
      </trkpt>
      <trkpt lat="45.21196" lon="5.50919">
        <ele>542.99</ele>
        <time>2019-08-15T11:25:35.000Z</time>
      </trkpt>
      <trkpt lat="45.21191" lon="5.50905">
        <ele>544.3</ele>
        <time>2019-08-15T11:25:45.000Z</time>
      </trkpt>
      <trkpt lat="45.21184" lon="5.50893">
        <ele>543.43</ele>
        <time>2019-08-15T11:25:55.000Z</time>
      </trkpt>
      <trkpt lat="45.21179" lon="5.50888">
        <ele>540.77</ele>
        <time>2019-08-15T11:26:05.000Z</time>
      </trkpt>
      <trkpt lat="45.21173" lon="5.50891">
        <ele>540.37</ele>
        <time>2019-08-15T11:26:15.000Z</time>
      </trkpt>
      <trkpt lat="45.21166" lon="5.50891">
        <ele>537.6</ele>
        <time>2019-08-15T11:26:25.000Z</time>
      </trkpt>
      <trkpt lat="45.21157" lon="5.50888">
        <ele>533.1</ele>
        <time>2019-08-15T11:26:35.000Z</time>
      </trkpt>
      <trkpt lat="45.2115" lon="5.50889">
        <ele>529.49</ele>
        <time>2019-08-15T11:26:45.000Z</time>
      </trkpt>
      <trkpt lat="45.2114" lon="5.50889">
        <ele>527.12</ele>
        <time>2019-08-15T11:26:55.000Z</time>
      </trkpt>
      <trkpt lat="45.21128" lon="5.50888">
        <ele>525.75</ele>
        <time>2019-08-15T11:27:05.000Z</time>
      </trkpt>
      <trkpt lat="45.21118" lon="5.50884">
        <ele>525.69</ele>
        <time>2019-08-15T11:27:15.000Z</time>
      </trkpt>
      <trkpt lat="45.21108" lon="5.50882">
        <ele>522.73</ele>
        <time>2019-08-15T11:27:25.000Z</time>
      </trkpt>
      <trkpt lat="45.21097" lon="5.50879">
        <ele>521.63</ele>
        <time>2019-08-15T11:27:35.000Z</time>
      </trkpt>
      <trkpt lat="45.21091" lon="5.50879">
        <ele>520</ele>
        <time>2019-08-15T11:27:45.000Z</time>
      </trkpt>
      <trkpt lat="45.21081" lon="5.50877">
        <ele>517.87</ele>
        <time>2019-08-15T11:27:55.000Z</time>
      </trkpt>
      <trkpt lat="45.21071" lon="5.50882">
        <ele>514.1</ele>
        <time>2019-08-15T11:28:05.000Z</time>
      </trkpt>
      <trkpt lat="45.21064" lon="5.50882">
        <ele>510.24</ele>
        <time>2019-08-15T11:28:15.000Z</time>
      </trkpt>
      <trkpt lat="45.21052" lon="5.50879">
        <ele>507.66</ele>
        <time>2019-08-15T11:28:25.000Z</time>
      </trkpt>
      <trkpt lat="45.21039" lon="5.50875">
        <ele>504.59</ele>
        <time>2019-08-15T11:28:35.000Z</time>
      </trkpt>
      <trkpt lat="45.21029" lon="5.50873">
        <ele>500.79</ele>
        <time>2019-08-15T11:28:45.000Z</time>
      </trkpt>
      <trkpt lat="45.21019" lon="5.50871">
        <ele>499.7</ele>
        <time>2019-08-15T11:28:55.000Z</time>
      </trkpt>
      <trkpt lat="45.21011" lon="5.50874">
        <ele>497.84</ele>
        <time>2019-08-15T11:29:05.000Z</time>
      </trkpt>
      <trkpt lat="45.21002" lon="5.50885">
        <ele>499.27</ele>
        <time>2019-08-15T11:29:15.000Z</time>
      </trkpt>
      <trkpt lat="45.20998" lon="5.50887">
        <ele>498.62</ele>
        <time>2019-08-15T11:29:25.000Z</time>
      </trkpt>
      <trkpt lat="45.2099" lon="5.50889">
        <ele>496.06</ele>
        <time>2019-08-15T11:29:35.000Z</time>
      </trkpt>
      <trkpt lat="45.20983" lon="5.50893">
        <ele>495.38</ele>
        <time>2019-08-15T11:29:45.000Z</time>
      </trkpt>
      <trkpt lat="45.20973" lon="5.50894">
        <ele>494.62</ele>
        <time>2019-08-15T11:29:55.000Z</time>
      </trkpt>
      <trkpt lat="45.20968" lon="5.50891">
        <ele>496.81</ele>
        <time>2019-08-15T11:30:05.000Z</time>
      </trkpt>
      <trkpt lat="45.20963" lon="5.50888">
        <ele>496.97</ele>
        <time>2019-08-15T11:30:15.000Z</time>
      </trkpt>
      <trkpt lat="45.20952" lon="5.50892">
        <ele>495.05</ele>
        <time>2019-08-15T11:30:25.000Z</time>
      </trkpt>
      <trkpt lat="45.20947" lon="5.50891">
        <ele>496.92</ele>
        <time>2019-08-15T11:30:35.000Z</time>
      </trkpt>
      <trkpt lat="45.20941" lon="5.50887">
        <ele>495.08</ele>
        <time>2019-08-15T11:30:45.000Z</time>
      </trkpt>
      <trkpt lat="45.20931" lon="5.50881">
        <ele>497.66</ele>
        <time>2019-08-15T11:30:55.000Z</time>
      </trkpt>
      <trkpt lat="45.20926" lon="5.50881">
        <ele>496.52</ele>
        <time>2019-08-15T11:31:05.000Z</time>
      </trkpt>
      <trkpt lat="45.20921" lon="5.50881">
        <ele>496.47</ele>
        <time>2019-08-15T11:31:15.000Z</time>
      </trkpt>
      <trkpt lat="45.2092" lon="5.50874">
        <ele>496.82</ele>
        <time>2019-08-15T11:31:25.000Z</time>
      </trkpt>
      <trkpt lat="45.20924" lon="5.5086">
        <ele>493.77</ele>
        <time>2019-08-15T11:31:38.000Z</time>
      </trkpt>
      <trkpt lat="45.20929" lon="5.50852">
        <ele>494.99</ele>
        <time>2019-08-15T11:31:50.000Z</time>
      </trkpt>
      <trkpt lat="45.2093" lon="5.50842">
        <ele>495.68</ele>
        <time>2019-08-15T11:32:00.000Z</time>
      </trkpt>
      <trkpt lat="45.20932" lon="5.50827">
        <ele>493.39</ele>
        <time>2019-08-15T11:32:10.000Z</time>
      </trkpt>
      <trkpt lat="45.20936" lon="5.50813">
        <ele>493.59</ele>
        <time>2019-08-15T11:32:20.000Z</time>
      </trkpt>
      <trkpt lat="45.20938" lon="5.50801">
        <ele>492.1</ele>
        <time>2019-08-15T11:32:30.000Z</time>
      </trkpt>
      <trkpt lat="45.20943" lon="5.50788">
        <ele>490.22</ele>
        <time>2019-08-15T11:32:40.000Z</time>
      </trkpt>
      <trkpt lat="45.20956" lon="5.50777">
        <ele>489.48</ele>
        <time>2019-08-15T11:32:50.000Z</time>
      </trkpt>
      <trkpt lat="45.20961" lon="5.50768">
        <ele>490.54</ele>
        <time>2019-08-15T11:33:00.000Z</time>
      </trkpt>
      <trkpt lat="45.20964" lon="5.50757">
        <ele>490.82</ele>
        <time>2019-08-15T11:33:10.000Z</time>
      </trkpt>
      <trkpt lat="45.20971" lon="5.50746">
        <ele>491</ele>
        <time>2019-08-15T11:33:20.000Z</time>
      </trkpt>
      <trkpt lat="45.2098" lon="5.50735">
        <ele>492.72</ele>
        <time>2019-08-15T11:33:30.000Z</time>
      </trkpt>
      <trkpt lat="45.20986" lon="5.50725">
        <ele>493.9</ele>
        <time>2019-08-15T11:33:40.000Z</time>
      </trkpt>
      <trkpt lat="45.20991" lon="5.50713">
        <ele>493.82</ele>
        <time>2019-08-15T11:33:50.000Z</time>
      </trkpt>
      <trkpt lat="45.20992" lon="5.50697">
        <ele>496.04</ele>
        <time>2019-08-15T11:34:00.000Z</time>
      </trkpt>
      <trkpt lat="45.20992" lon="5.50685">
        <ele>495.7</ele>
        <time>2019-08-15T11:34:10.000Z</time>
      </trkpt>
      <trkpt lat="45.20994" lon="5.50675">
        <ele>496.59</ele>
        <time>2019-08-15T11:34:20.000Z</time>
      </trkpt>
      <trkpt lat="45.20995" lon="5.50659">
        <ele>495.73</ele>
        <time>2019-08-15T11:34:30.000Z</time>
      </trkpt>
      <trkpt lat="45.20998" lon="5.50647">
        <ele>494.27</ele>
        <time>2019-08-15T11:34:40.000Z</time>
      </trkpt>
      <trkpt lat="45.20997" lon="5.50634">
        <ele>493.6</ele>
        <time>2019-08-15T11:34:50.000Z</time>
      </trkpt>
      <trkpt lat="45.21" lon="5.50618">
        <ele>492.45</ele>
        <time>2019-08-15T11:35:00.000Z</time>
      </trkpt>
      <trkpt lat="45.21003" lon="5.50603">
        <ele>494.07</ele>
        <time>2019-08-15T11:35:10.000Z</time>
      </trkpt>
      <trkpt lat="45.21" lon="5.50588">
        <ele>494.62</ele>
        <time>2019-08-15T11:35:20.000Z</time>
      </trkpt>
      <trkpt lat="45.21001" lon="5.50573">
        <ele>496.16</ele>
        <time>2019-08-15T11:35:30.000Z</time>
      </trkpt>
      <trkpt lat="45.21" lon="5.50563">
        <ele>497.47</ele>
        <time>2019-08-15T11:35:40.000Z</time>
      </trkpt>
      <trkpt lat="45.21004" lon="5.50547">
        <ele>498.4</ele>
        <time>2019-08-15T11:35:50.000Z</time>
      </trkpt>
      <trkpt lat="45.21003" lon="5.50531">
        <ele>496.84</ele>
        <time>2019-08-15T11:36:00.000Z</time>
      </trkpt>
      <trkpt lat="45.21006" lon="5.50518">
        <ele>497.26</ele>
        <time>2019-08-15T11:36:10.000Z</time>
      </trkpt>
      <trkpt lat="45.21008" lon="5.50505">
        <ele>496.63</ele>
        <time>2019-08-15T11:36:20.000Z</time>
      </trkpt>
      <trkpt lat="45.21012" lon="5.5049">
        <ele>499.16</ele>
        <time>2019-08-15T11:36:30.000Z</time>
      </trkpt>
      <trkpt lat="45.21015" lon="5.50478">
        <ele>501.04</ele>
        <time>2019-08-15T11:36:40.000Z</time>
      </trkpt>
      <trkpt lat="45.21015" lon="5.50464">
        <ele>503.6</ele>
        <time>2019-08-15T11:36:50.000Z</time>
      </trkpt>
      <trkpt lat="45.21014" lon="5.5045">
        <ele>505.22</ele>
        <time>2019-08-15T11:37:00.000Z</time>
      </trkpt>
      <trkpt lat="45.21013" lon="5.50436">
        <ele>504.63</ele>
        <time>2019-08-15T11:37:10.000Z</time>
      </trkpt>
      <trkpt lat="45.21012" lon="5.50421">
        <ele>507.84</ele>
        <time>2019-08-15T11:37:20.000Z</time>
      </trkpt>
      <trkpt lat="45.21012" lon="5.50412">
        <ele>508.43</ele>
        <time>2019-08-15T11:37:30.000Z</time>
      </trkpt>
      <trkpt lat="45.21015" lon="5.50399">
        <ele>509.61</ele>
        <time>2019-08-15T11:37:40.000Z</time>
      </trkpt>
      <trkpt lat="45.21015" lon="5.50391">
        <ele>508.44</ele>
        <time>2019-08-15T11:37:50.000Z</time>
      </trkpt>
      <trkpt lat="45.2101" lon="5.5039">
        <ele>508.05</ele>
        <time>2019-08-15T11:38:00.000Z</time>
      </trkpt>
      <trkpt lat="45.21014" lon="5.50386">
        <ele>508.69</ele>
        <time>2019-08-15T11:38:10.000Z</time>
      </trkpt>
      <trkpt lat="45.21015" lon="5.5038">
        <ele>508.63</ele>
        <time>2019-08-15T11:38:20.000Z</time>
      </trkpt>
      <trkpt lat="45.21019" lon="5.50369">
        <ele>509.3</ele>
        <time>2019-08-15T11:38:30.000Z</time>
      </trkpt>
      <trkpt lat="45.2103" lon="5.5036">
        <ele>512.02</ele>
        <time>2019-08-15T11:38:40.000Z</time>
      </trkpt>
      <trkpt lat="45.21037" lon="5.50362">
        <ele>512.87</ele>
        <time>2019-08-15T11:38:50.000Z</time>
      </trkpt>
      <trkpt lat="45.21044" lon="5.5036">
        <ele>511.64</ele>
        <time>2019-08-15T11:39:00.000Z</time>
      </trkpt>
      <trkpt lat="45.21051" lon="5.50355">
        <ele>513.99</ele>
        <time>2019-08-15T11:39:10.000Z</time>
      </trkpt>
      <trkpt lat="45.21058" lon="5.50353">
        <ele>517.66</ele>
        <time>2019-08-15T11:39:20.000Z</time>
      </trkpt>
      <trkpt lat="45.2107" lon="5.50355">
        <ele>520.08</ele>
        <time>2019-08-15T11:39:30.000Z</time>
      </trkpt>
      <trkpt lat="45.2108" lon="5.50358">
        <ele>522.38</ele>
        <time>2019-08-15T11:39:40.000Z</time>
      </trkpt>
      <trkpt lat="45.21092" lon="5.50364">
        <ele>519.53</ele>
        <time>2019-08-15T11:39:50.000Z</time>
      </trkpt>
      <trkpt lat="45.21102" lon="5.50368">
        <ele>518.43</ele>
        <time>2019-08-15T11:40:00.000Z</time>
      </trkpt>
      <trkpt lat="45.21113" lon="5.50368">
        <ele>520.34</ele>
        <time>2019-08-15T11:40:10.000Z</time>
      </trkpt>
      <trkpt lat="45.21124" lon="5.50371">
        <ele>522.47</ele>
        <time>2019-08-15T11:40:20.000Z</time>
      </trkpt>
      <trkpt lat="45.21131" lon="5.50371">
        <ele>524.47</ele>
        <time>2019-08-15T11:40:30.000Z</time>
      </trkpt>
      <trkpt lat="45.21143" lon="5.50373">
        <ele>526.16</ele>
        <time>2019-08-15T11:40:40.000Z</time>
      </trkpt>
      <trkpt lat="45.21153" lon="5.50372">
        <ele>524.73</ele>
        <time>2019-08-15T11:40:50.000Z</time>
      </trkpt>
      <trkpt lat="45.21164" lon="5.5037">
        <ele>525.5</ele>
        <time>2019-08-15T11:41:00.000Z</time>
      </trkpt>
      <trkpt lat="45.21175" lon="5.50372">
        <ele>525.62</ele>
        <time>2019-08-15T11:41:10.000Z</time>
      </trkpt>
      <trkpt lat="45.21183" lon="5.5037">
        <ele>526.58</ele>
        <time>2019-08-15T11:41:20.000Z</time>
      </trkpt>
      <trkpt lat="45.21193" lon="5.50365">
        <ele>528.79</ele>
        <time>2019-08-15T11:41:30.000Z</time>
      </trkpt>
      <trkpt lat="45.21204" lon="5.50361">
        <ele>529.42</ele>
        <time>2019-08-15T11:41:40.000Z</time>
      </trkpt>
      <trkpt lat="45.21212" lon="5.50357">
        <ele>529.61</ele>
        <time>2019-08-15T11:41:50.000Z</time>
      </trkpt>
      <trkpt lat="45.21222" lon="5.50349">
        <ele>530.62</ele>
        <time>2019-08-15T11:42:00.000Z</time>
      </trkpt>
      <trkpt lat="45.21229" lon="5.50341">
        <ele>529.82</ele>
        <time>2019-08-15T11:42:10.000Z</time>
      </trkpt>
      <trkpt lat="45.21238" lon="5.5033">
        <ele>528.71</ele>
        <time>2019-08-15T11:42:20.000Z</time>
      </trkpt>
      <trkpt lat="45.21243" lon="5.50314">
        <ele>527.71</ele>
        <time>2019-08-15T11:42:30.000Z</time>
      </trkpt>
      <trkpt lat="45.21246" lon="5.50306">
        <ele>530.24</ele>
        <time>2019-08-15T11:42:40.000Z</time>
      </trkpt>
      <trkpt lat="45.21249" lon="5.50297">
        <ele>533.6</ele>
        <time>2019-08-15T11:42:50.000Z</time>
      </trkpt>
      <trkpt lat="45.2125" lon="5.50281">
        <ele>534.42</ele>
        <time>2019-08-15T11:43:00.000Z</time>
      </trkpt>
      <trkpt lat="45.21243" lon="5.50268">
        <ele>531.98</ele>
        <time>2019-08-15T11:43:10.000Z</time>
      </trkpt>
      <trkpt lat="45.21235" lon="5.50261">
        <ele>530.77</ele>
        <time>2019-08-15T11:43:20.000Z</time>
      </trkpt>
      <trkpt lat="45.21225" lon="5.50253">
        <ele>530.65</ele>
        <time>2019-08-15T11:43:30.000Z</time>
      </trkpt>
      <trkpt lat="45.21217" lon="5.50245">
        <ele>530.02</ele>
        <time>2019-08-15T11:43:40.000Z</time>
      </trkpt>
      <trkpt lat="45.2121" lon="5.50236">
        <ele>525.05</ele>
        <time>2019-08-15T11:43:50.000Z</time>
      </trkpt>
      <trkpt lat="45.21202" lon="5.50227">
        <ele>522.86</ele>
        <time>2019-08-15T11:44:00.000Z</time>
      </trkpt>
      <trkpt lat="45.21193" lon="5.50219">
        <ele>521.64</ele>
        <time>2019-08-15T11:44:10.000Z</time>
      </trkpt>
      <trkpt lat="45.2118" lon="5.5021">
        <ele>521.63</ele>
        <time>2019-08-15T11:44:20.000Z</time>
      </trkpt>
      <trkpt lat="45.21171" lon="5.50201">
        <ele>519.78</ele>
        <time>2019-08-15T11:44:30.000Z</time>
      </trkpt>
      <trkpt lat="45.21166" lon="5.50198">
        <ele>518.64</ele>
        <time>2019-08-15T11:44:40.000Z</time>
      </trkpt>
      <trkpt lat="45.21164" lon="5.50187">
        <ele>515.82</ele>
        <time>2019-08-15T11:44:50.000Z</time>
      </trkpt>
      <trkpt lat="45.21157" lon="5.50174">
        <ele>515.63</ele>
        <time>2019-08-15T11:45:00.000Z</time>
      </trkpt>
      <trkpt lat="45.2115" lon="5.5017">
        <ele>515.92</ele>
        <time>2019-08-15T11:45:10.000Z</time>
      </trkpt>
      <trkpt lat="45.2114" lon="5.50155">
        <ele>513.82</ele>
        <time>2019-08-15T11:45:20.000Z</time>
      </trkpt>
      <trkpt lat="45.21132" lon="5.50139">
        <ele>513.79</ele>
        <time>2019-08-15T11:45:30.000Z</time>
      </trkpt>
      <trkpt lat="45.21124" lon="5.50126">
        <ele>515.11</ele>
        <time>2019-08-15T11:45:40.000Z</time>
      </trkpt>
      <trkpt lat="45.21121" lon="5.50122">
        <ele>515.67</ele>
        <time>2019-08-15T11:45:57.000Z</time>
      </trkpt>
      <trkpt lat="45.21117" lon="5.50117">
        <ele>515.86</ele>
        <time>2019-08-15T11:46:07.000Z</time>
      </trkpt>
      <trkpt lat="45.21113" lon="5.50106">
        <ele>518.36</ele>
        <time>2019-08-15T11:46:17.000Z</time>
      </trkpt>
      <trkpt lat="45.21105" lon="5.50095">
        <ele>517.68</ele>
        <time>2019-08-15T11:46:27.000Z</time>
      </trkpt>
      <trkpt lat="45.211" lon="5.50082">
        <ele>511.99</ele>
        <time>2019-08-15T11:46:37.000Z</time>
      </trkpt>
      <trkpt lat="45.21095" lon="5.50072">
        <ele>510.85</ele>
        <time>2019-08-15T11:46:47.000Z</time>
      </trkpt>
      <trkpt lat="45.21088" lon="5.50062">
        <ele>508.27</ele>
        <time>2019-08-15T11:46:57.000Z</time>
      </trkpt>
      <trkpt lat="45.21081" lon="5.50051">
        <ele>502.95</ele>
        <time>2019-08-15T11:47:07.000Z</time>
      </trkpt>
      <trkpt lat="45.21075" lon="5.5004">
        <ele>499.54</ele>
        <time>2019-08-15T11:47:17.000Z</time>
      </trkpt>
      <trkpt lat="45.2107" lon="5.50026">
        <ele>496.83</ele>
        <time>2019-08-15T11:47:27.000Z</time>
      </trkpt>
      <trkpt lat="45.21067" lon="5.50007">
        <ele>495.65</ele>
        <time>2019-08-15T11:47:37.000Z</time>
      </trkpt>
      <trkpt lat="45.21061" lon="5.49992">
        <ele>496.84</ele>
        <time>2019-08-15T11:47:47.000Z</time>
      </trkpt>
      <trkpt lat="45.21056" lon="5.49977">
        <ele>497.42</ele>
        <time>2019-08-15T11:47:57.000Z</time>
      </trkpt>
      <trkpt lat="45.21048" lon="5.49965">
        <ele>496.74</ele>
        <time>2019-08-15T11:48:07.000Z</time>
      </trkpt>
      <trkpt lat="45.21044" lon="5.49953">
        <ele>500.2</ele>
        <time>2019-08-15T11:48:17.000Z</time>
      </trkpt>
      <trkpt lat="45.21039" lon="5.49939">
        <ele>501.62</ele>
        <time>2019-08-15T11:48:27.000Z</time>
      </trkpt>
      <trkpt lat="45.21035" lon="5.49922">
        <ele>500.36</ele>
        <time>2019-08-15T11:48:37.000Z</time>
      </trkpt>
      <trkpt lat="45.21033" lon="5.49906">
        <ele>498.1</ele>
        <time>2019-08-15T11:48:47.000Z</time>
      </trkpt>
      <trkpt lat="45.21026" lon="5.49891">
        <ele>500.28</ele>
        <time>2019-08-15T11:48:57.000Z</time>
      </trkpt>
      <trkpt lat="45.2102" lon="5.49876">
        <ele>504.45</ele>
        <time>2019-08-15T11:49:07.000Z</time>
      </trkpt>
      <trkpt lat="45.21019" lon="5.49857">
        <ele>505.44</ele>
        <time>2019-08-15T11:49:17.000Z</time>
      </trkpt>
      <trkpt lat="45.21017" lon="5.49842">
        <ele>506.46</ele>
        <time>2019-08-15T11:49:27.000Z</time>
      </trkpt>
      <trkpt lat="45.21013" lon="5.49829">
        <ele>506.65</ele>
        <time>2019-08-15T11:49:37.000Z</time>
      </trkpt>
      <trkpt lat="45.21014" lon="5.49811">
        <ele>508</ele>
        <time>2019-08-15T11:49:47.000Z</time>
      </trkpt>
      <trkpt lat="45.21015" lon="5.49797">
        <ele>512.7</ele>
        <time>2019-08-15T11:49:57.000Z</time>
      </trkpt>
      <trkpt lat="45.21012" lon="5.49784">
        <ele>514.01</ele>
        <time>2019-08-15T11:50:07.000Z</time>
      </trkpt>
      <trkpt lat="45.21008" lon="5.49771">
        <ele>513.64</ele>
        <time>2019-08-15T11:50:17.000Z</time>
      </trkpt>
      <trkpt lat="45.21004" lon="5.49758">
        <ele>511.66</ele>
        <time>2019-08-15T11:50:27.000Z</time>
      </trkpt>
      <trkpt lat="45.20992" lon="5.49749">
        <ele>511.98</ele>
        <time>2019-08-15T11:50:37.000Z</time>
      </trkpt>
      <trkpt lat="45.20981" lon="5.49746">
        <ele>513.1</ele>
        <time>2019-08-15T11:50:47.000Z</time>
      </trkpt>
      <trkpt lat="45.20971" lon="5.49743">
        <ele>514.41</ele>
        <time>2019-08-15T11:50:57.000Z</time>
      </trkpt>
      <trkpt lat="45.2096" lon="5.49737">
        <ele>515.01</ele>
        <time>2019-08-15T11:51:07.000Z</time>
      </trkpt>
      <trkpt lat="45.2095" lon="5.49725">
        <ele>515.41</ele>
        <time>2019-08-15T11:51:17.000Z</time>
      </trkpt>
      <trkpt lat="45.20939" lon="5.49718">
        <ele>515.59</ele>
        <time>2019-08-15T11:51:27.000Z</time>
      </trkpt>
      <trkpt lat="45.20931" lon="5.49707">
        <ele>516.65</ele>
        <time>2019-08-15T11:51:37.000Z</time>
      </trkpt>
      <trkpt lat="45.20923" lon="5.49698">
        <ele>518.25</ele>
        <time>2019-08-15T11:51:47.000Z</time>
      </trkpt>
      <trkpt lat="45.20912" lon="5.4969">
        <ele>519.43</ele>
        <time>2019-08-15T11:51:57.000Z</time>
      </trkpt>
      <trkpt lat="45.20903" lon="5.49684">
        <ele>518.12</ele>
        <time>2019-08-15T11:52:07.000Z</time>
      </trkpt>
      <trkpt lat="45.20892" lon="5.49675">
        <ele>516.45</ele>
        <time>2019-08-15T11:52:17.000Z</time>
      </trkpt>
      <trkpt lat="45.20881" lon="5.49668">
        <ele>512.18</ele>
        <time>2019-08-15T11:52:27.000Z</time>
      </trkpt>
      <trkpt lat="45.2087" lon="5.49662">
        <ele>510.68</ele>
        <time>2019-08-15T11:52:37.000Z</time>
      </trkpt>
      <trkpt lat="45.20859" lon="5.49662">
        <ele>510.11</ele>
        <time>2019-08-15T11:52:47.000Z</time>
      </trkpt>
      <trkpt lat="45.20847" lon="5.49664">
        <ele>508.65</ele>
        <time>2019-08-15T11:52:57.000Z</time>
      </trkpt>
      <trkpt lat="45.20834" lon="5.49665">
        <ele>506.25</ele>
        <time>2019-08-15T11:53:07.000Z</time>
      </trkpt>
      <trkpt lat="45.20822" lon="5.49667">
        <ele>506.88</ele>
        <time>2019-08-15T11:53:20.000Z</time>
      </trkpt>
      <trkpt lat="45.20808" lon="5.49664">
        <ele>504.04</ele>
        <time>2019-08-15T11:53:30.000Z</time>
      </trkpt>
      <trkpt lat="45.20795" lon="5.4966">
        <ele>502.76</ele>
        <time>2019-08-15T11:53:40.000Z</time>
      </trkpt>
      <trkpt lat="45.20783" lon="5.49656">
        <ele>502.03</ele>
        <time>2019-08-15T11:53:50.000Z</time>
      </trkpt>
      <trkpt lat="45.20771" lon="5.49652">
        <ele>499.78</ele>
        <time>2019-08-15T11:54:00.000Z</time>
      </trkpt>
      <trkpt lat="45.20759" lon="5.49648">
        <ele>497.7</ele>
        <time>2019-08-15T11:54:10.000Z</time>
      </trkpt>
      <trkpt lat="45.20748" lon="5.49641">
        <ele>495.68</ele>
        <time>2019-08-15T11:54:20.000Z</time>
      </trkpt>
      <trkpt lat="45.20736" lon="5.49634">
        <ele>496.61</ele>
        <time>2019-08-15T11:54:30.000Z</time>
      </trkpt>
      <trkpt lat="45.20725" lon="5.49627">
        <ele>495.84</ele>
        <time>2019-08-15T11:54:40.000Z</time>
      </trkpt>
      <trkpt lat="45.20713" lon="5.49622">
        <ele>494.86</ele>
        <time>2019-08-15T11:54:50.000Z</time>
      </trkpt>
      <trkpt lat="45.20701" lon="5.49619">
        <ele>493.36</ele>
        <time>2019-08-15T11:55:00.000Z</time>
      </trkpt>
      <trkpt lat="45.20689" lon="5.49615">
        <ele>493.57</ele>
        <time>2019-08-15T11:55:10.000Z</time>
      </trkpt>
      <trkpt lat="45.2068" lon="5.49611">
        <ele>491.68</ele>
        <time>2019-08-15T11:55:20.000Z</time>
      </trkpt>
      <trkpt lat="45.20668" lon="5.4961">
        <ele>492.23</ele>
        <time>2019-08-15T11:55:30.000Z</time>
      </trkpt>
      <trkpt lat="45.20656" lon="5.49607">
        <ele>490.85</ele>
        <time>2019-08-15T11:55:40.000Z</time>
      </trkpt>
      <trkpt lat="45.20644" lon="5.49604">
        <ele>489.32</ele>
        <time>2019-08-15T11:55:50.000Z</time>
      </trkpt>
      <trkpt lat="45.2063" lon="5.49601">
        <ele>488.19</ele>
        <time>2019-08-15T11:56:00.000Z</time>
      </trkpt>
      <trkpt lat="45.20618" lon="5.49594">
        <ele>488.45</ele>
        <time>2019-08-15T11:56:10.000Z</time>
      </trkpt>
      <trkpt lat="45.20606" lon="5.49589">
        <ele>489.55</ele>
        <time>2019-08-15T11:56:20.000Z</time>
      </trkpt>
      <trkpt lat="45.20597" lon="5.49591">
        <ele>490.28</ele>
        <time>2019-08-15T11:56:30.000Z</time>
      </trkpt>
      <trkpt lat="45.20589" lon="5.49596">
        <ele>490.14</ele>
        <time>2019-08-15T11:56:40.000Z</time>
      </trkpt>
      <trkpt lat="45.20577" lon="5.49599">
        <ele>491.6</ele>
        <time>2019-08-15T11:56:50.000Z</time>
      </trkpt>
      <trkpt lat="45.20569" lon="5.496">
        <ele>490.05</ele>
        <time>2019-08-15T11:57:00.000Z</time>
      </trkpt>
      <trkpt lat="45.20552" lon="5.49594">
        <ele>483.89</ele>
        <time>2019-08-15T11:57:10.000Z</time>
      </trkpt>
      <trkpt lat="45.20542" lon="5.49582">
        <ele>482.98</ele>
        <time>2019-08-15T11:57:20.000Z</time>
      </trkpt>
      <trkpt lat="45.20533" lon="5.49567">
        <ele>480.85</ele>
        <time>2019-08-15T11:57:30.000Z</time>
      </trkpt>
      <trkpt lat="45.20522" lon="5.49557">
        <ele>482.51</ele>
        <time>2019-08-15T11:57:40.000Z</time>
      </trkpt>
      <trkpt lat="45.20507" lon="5.49554">
        <ele>481.39</ele>
        <time>2019-08-15T11:57:52.000Z</time>
      </trkpt>
      <trkpt lat="45.20497" lon="5.4955">
        <ele>481.41</ele>
        <time>2019-08-15T11:58:02.000Z</time>
      </trkpt>
      <trkpt lat="45.20493" lon="5.49535">
        <ele>481.55</ele>
        <time>2019-08-15T11:58:12.000Z</time>
      </trkpt>
      <trkpt lat="45.20494" lon="5.49516">
        <ele>480.51</ele>
        <time>2019-08-15T11:58:38.000Z</time>
      </trkpt>
      <trkpt lat="45.20494" lon="5.49495">
        <ele>481.66</ele>
        <time>2019-08-15T11:58:48.000Z</time>
      </trkpt>
      <trkpt lat="45.20492" lon="5.4948">
        <ele>482.6</ele>
        <time>2019-08-15T11:58:58.000Z</time>
      </trkpt>
      <trkpt lat="45.20486" lon="5.49466">
        <ele>484.53</ele>
        <time>2019-08-15T11:59:08.000Z</time>
      </trkpt>
      <trkpt lat="45.20476" lon="5.49456">
        <ele>482.37</ele>
        <time>2019-08-15T11:59:18.000Z</time>
      </trkpt>
      <trkpt lat="45.20472" lon="5.49441">
        <ele>480.02</ele>
        <time>2019-08-15T11:59:28.000Z</time>
      </trkpt>
      <trkpt lat="45.20473" lon="5.49424">
        <ele>475.91</ele>
        <time>2019-08-15T11:59:41.000Z</time>
      </trkpt>
      <trkpt lat="45.20471" lon="5.49414">
        <ele>475.57</ele>
        <time>2019-08-15T11:59:51.000Z</time>
      </trkpt>
      <trkpt lat="45.20468" lon="5.49403">
        <ele>474.02</ele>
        <time>2019-08-15T12:00:01.000Z</time>
      </trkpt>
      <trkpt lat="45.20463" lon="5.49388">
        <ele>471.01</ele>
        <time>2019-08-15T12:00:11.000Z</time>
      </trkpt>
      <trkpt lat="45.2046" lon="5.4938">
        <ele>469.64</ele>
        <time>2019-08-15T12:00:21.000Z</time>
      </trkpt>
      <trkpt lat="45.20457" lon="5.49374">
        <ele>472.96</ele>
        <time>2019-08-15T12:00:31.000Z</time>
      </trkpt>
      <trkpt lat="45.20452" lon="5.49365">
        <ele>471.62</ele>
        <time>2019-08-15T12:00:41.000Z</time>
      </trkpt>
      <trkpt lat="45.20452" lon="5.49351">
        <ele>467.51</ele>
        <time>2019-08-15T12:00:51.000Z</time>
      </trkpt>
      <trkpt lat="45.20447" lon="5.49334">
        <ele>466.29</ele>
        <time>2019-08-15T12:01:01.000Z</time>
      </trkpt>
      <trkpt lat="45.20438" lon="5.49323">
        <ele>465.83</ele>
        <time>2019-08-15T12:01:11.000Z</time>
      </trkpt>
      <trkpt lat="45.20429" lon="5.49315">
        <ele>462.13</ele>
        <time>2019-08-15T12:01:21.000Z</time>
      </trkpt>
      <trkpt lat="45.20421" lon="5.49309">
        <ele>458.37</ele>
        <time>2019-08-15T12:01:31.000Z</time>
      </trkpt>
      <trkpt lat="45.20414" lon="5.49314">
        <ele>455.91</ele>
        <time>2019-08-15T12:01:41.000Z</time>
      </trkpt>
      <trkpt lat="45.20408" lon="5.49317">
        <ele>454.36</ele>
        <time>2019-08-15T12:01:51.000Z</time>
      </trkpt>
      <trkpt lat="45.20398" lon="5.49318">
        <ele>451.77</ele>
        <time>2019-08-15T12:02:01.000Z</time>
      </trkpt>
      <trkpt lat="45.2038" lon="5.49322">
        <ele>449.75</ele>
        <time>2019-08-15T12:02:11.000Z</time>
      </trkpt>
      <trkpt lat="45.20369" lon="5.4932">
        <ele>450.17</ele>
        <time>2019-08-15T12:02:21.000Z</time>
      </trkpt>
      <trkpt lat="45.20355" lon="5.49319">
        <ele>451.67</ele>
        <time>2019-08-15T12:02:31.000Z</time>
      </trkpt>
      <trkpt lat="45.20347" lon="5.49309">
        <ele>455.43</ele>
        <time>2019-08-15T12:02:41.000Z</time>
      </trkpt>
      <trkpt lat="45.20336" lon="5.49291">
        <ele>459.26</ele>
        <time>2019-08-15T12:02:51.000Z</time>
      </trkpt>
      <trkpt lat="45.20331" lon="5.49274">
        <ele>460.83</ele>
        <time>2019-08-15T12:03:01.000Z</time>
      </trkpt>
      <trkpt lat="45.20326" lon="5.49256">
        <ele>465.07</ele>
        <time>2019-08-15T12:03:11.000Z</time>
      </trkpt>
      <trkpt lat="45.20322" lon="5.49238">
        <ele>466.35</ele>
        <time>2019-08-15T12:03:21.000Z</time>
      </trkpt>
      <trkpt lat="45.20317" lon="5.49221">
        <ele>470.08</ele>
        <time>2019-08-15T12:03:31.000Z</time>
      </trkpt>
      <trkpt lat="45.20309" lon="5.49207">
        <ele>471.59</ele>
        <time>2019-08-15T12:03:41.000Z</time>
      </trkpt>
      <trkpt lat="45.20298" lon="5.49196">
        <ele>472.64</ele>
        <time>2019-08-15T12:03:51.000Z</time>
      </trkpt>
      <trkpt lat="45.20288" lon="5.49185">
        <ele>474.55</ele>
        <time>2019-08-15T12:04:01.000Z</time>
      </trkpt>
      <trkpt lat="45.20279" lon="5.49176">
        <ele>471.85</ele>
        <time>2019-08-15T12:04:11.000Z</time>
      </trkpt>
      <trkpt lat="45.20269" lon="5.49163">
        <ele>472.6</ele>
        <time>2019-08-15T12:04:21.000Z</time>
      </trkpt>
      <trkpt lat="45.20261" lon="5.49148">
        <ele>471.8</ele>
        <time>2019-08-15T12:04:31.000Z</time>
      </trkpt>
      <trkpt lat="45.20253" lon="5.49138">
        <ele>470.29</ele>
        <time>2019-08-15T12:04:41.000Z</time>
      </trkpt>
      <trkpt lat="45.20242" lon="5.49126">
        <ele>469.66</ele>
        <time>2019-08-15T12:04:51.000Z</time>
      </trkpt>
      <trkpt lat="45.20232" lon="5.49115">
        <ele>470.47</ele>
        <time>2019-08-15T12:05:01.000Z</time>
      </trkpt>
      <trkpt lat="45.20222" lon="5.49105">
        <ele>469.88</ele>
        <time>2019-08-15T12:05:11.000Z</time>
      </trkpt>
      <trkpt lat="45.20214" lon="5.49097">
        <ele>467.75</ele>
        <time>2019-08-15T12:05:21.000Z</time>
      </trkpt>
      <trkpt lat="45.20206" lon="5.49093">
        <ele>463.87</ele>
        <time>2019-08-15T12:05:31.000Z</time>
      </trkpt>
      <trkpt lat="45.20198" lon="5.49093">
        <ele>460.23</ele>
        <time>2019-08-15T12:05:41.000Z</time>
      </trkpt>
      <trkpt lat="45.20193" lon="5.49087">
        <ele>458.74</ele>
        <time>2019-08-15T12:05:51.000Z</time>
      </trkpt>
      <trkpt lat="45.20181" lon="5.49084">
        <ele>457.33</ele>
        <time>2019-08-15T12:06:01.000Z</time>
      </trkpt>
      <trkpt lat="45.20168" lon="5.4908">
        <ele>452.93</ele>
        <time>2019-08-15T12:06:11.000Z</time>
      </trkpt>
      <trkpt lat="45.20159" lon="5.49083">
        <ele>453.99</ele>
        <time>2019-08-15T12:06:21.000Z</time>
      </trkpt>
      <trkpt lat="45.20143" lon="5.49085">
        <ele>454.57</ele>
        <time>2019-08-15T12:06:31.000Z</time>
      </trkpt>
      <trkpt lat="45.2013" lon="5.49078">
        <ele>457.11</ele>
        <time>2019-08-15T12:06:44.000Z</time>
      </trkpt>
      <trkpt lat="45.20122" lon="5.49076">
        <ele>454.74</ele>
        <time>2019-08-15T12:06:54.000Z</time>
      </trkpt>
      <trkpt lat="45.20111" lon="5.4907">
        <ele>454.8</ele>
        <time>2019-08-15T12:07:04.000Z</time>
      </trkpt>
      <trkpt lat="45.201" lon="5.49064">
        <ele>453.74</ele>
        <time>2019-08-15T12:07:14.000Z</time>
      </trkpt>
      <trkpt lat="45.20088" lon="5.49058">
        <ele>450.76</ele>
        <time>2019-08-15T12:07:24.000Z</time>
      </trkpt>
      <trkpt lat="45.20076" lon="5.49053">
        <ele>446.83</ele>
        <time>2019-08-15T12:07:34.000Z</time>
      </trkpt>
      <trkpt lat="45.20067" lon="5.49047">
        <ele>443.79</ele>
        <time>2019-08-15T12:07:44.000Z</time>
      </trkpt>
      <trkpt lat="45.20062" lon="5.49045">
        <ele>443</ele>
        <time>2019-08-15T12:07:54.000Z</time>
      </trkpt>
      <trkpt lat="45.20057" lon="5.49046">
        <ele>443.6</ele>
        <time>2019-08-15T12:08:04.000Z</time>
      </trkpt>
      <trkpt lat="45.20051" lon="5.49042">
        <ele>441.38</ele>
        <time>2019-08-15T12:08:14.000Z</time>
      </trkpt>
      <trkpt lat="45.20043" lon="5.49033">
        <ele>441</ele>
        <time>2019-08-15T12:08:24.000Z</time>
      </trkpt>
      <trkpt lat="45.20037" lon="5.49022">
        <ele>439.22</ele>
        <time>2019-08-15T12:08:34.000Z</time>
      </trkpt>
      <trkpt lat="45.20032" lon="5.49019">
        <ele>441.06</ele>
        <time>2019-08-15T12:08:44.000Z</time>
      </trkpt>
      <trkpt lat="45.2002" lon="5.4902">
        <ele>439.82</ele>
        <time>2019-08-15T12:08:54.000Z</time>
      </trkpt>
      <trkpt lat="45.2001" lon="5.49021">
        <ele>434.96</ele>
        <time>2019-08-15T12:09:04.000Z</time>
      </trkpt>
      <trkpt lat="45.19997" lon="5.49019">
        <ele>433.67</ele>
        <time>2019-08-15T12:09:14.000Z</time>
      </trkpt>
      <trkpt lat="45.19984" lon="5.4902">
        <ele>430.74</ele>
        <time>2019-08-15T12:09:24.000Z</time>
      </trkpt>
      <trkpt lat="45.19974" lon="5.49027">
        <ele>427.71</ele>
        <time>2019-08-15T12:09:34.000Z</time>
      </trkpt>
      <trkpt lat="45.19962" lon="5.49034">
        <ele>429.75</ele>
        <time>2019-08-15T12:09:44.000Z</time>
      </trkpt>
      <trkpt lat="45.1995" lon="5.49034">
        <ele>429.08</ele>
        <time>2019-08-15T12:09:54.000Z</time>
      </trkpt>
      <trkpt lat="45.19938" lon="5.49037">
        <ele>427.96</ele>
        <time>2019-08-15T12:10:04.000Z</time>
      </trkpt>
      <trkpt lat="45.19924" lon="5.49038">
        <ele>426.77</ele>
        <time>2019-08-15T12:10:14.000Z</time>
      </trkpt>
      <trkpt lat="45.19911" lon="5.49037">
        <ele>424.87</ele>
        <time>2019-08-15T12:10:24.000Z</time>
      </trkpt>
      <trkpt lat="45.199" lon="5.49042">
        <ele>421.94</ele>
        <time>2019-08-15T12:10:34.000Z</time>
      </trkpt>
      <trkpt lat="45.19898" lon="5.49057">
        <ele>420.93</ele>
        <time>2019-08-15T12:10:44.000Z</time>
      </trkpt>
      <trkpt lat="45.19897" lon="5.4907">
        <ele>419.62</ele>
        <time>2019-08-15T12:10:54.000Z</time>
      </trkpt>
      <trkpt lat="45.19896" lon="5.49077">
        <ele>418.72</ele>
        <time>2019-08-15T12:11:04.000Z</time>
      </trkpt>
      <trkpt lat="45.19894" lon="5.49084">
        <ele>416.02</ele>
        <time>2019-08-15T12:11:14.000Z</time>
      </trkpt>
      <trkpt lat="45.19888" lon="5.49094">
        <ele>413.84</ele>
        <time>2019-08-15T12:11:24.000Z</time>
      </trkpt>
      <trkpt lat="45.19881" lon="5.49096">
        <ele>411.25</ele>
        <time>2019-08-15T12:11:34.000Z</time>
      </trkpt>
      <trkpt lat="45.19875" lon="5.49096">
        <ele>408.34</ele>
        <time>2019-08-15T12:11:44.000Z</time>
      </trkpt>
      <trkpt lat="45.19867" lon="5.49099">
        <ele>404.91</ele>
        <time>2019-08-15T12:11:54.000Z</time>
      </trkpt>
      <trkpt lat="45.19862" lon="5.49104">
        <ele>403.24</ele>
        <time>2019-08-15T12:12:04.000Z</time>
      </trkpt>
      <trkpt lat="45.19857" lon="5.49111">
        <ele>402.63</ele>
        <time>2019-08-15T12:12:14.000Z</time>
      </trkpt>
      <trkpt lat="45.19852" lon="5.49112">
        <ele>399.77</ele>
        <time>2019-08-15T12:12:24.000Z</time>
      </trkpt>
      <trkpt lat="45.19847" lon="5.49107">
        <ele>396.97</ele>
        <time>2019-08-15T12:12:34.000Z</time>
      </trkpt>
      <trkpt lat="45.19841" lon="5.49092">
        <ele>395.23</ele>
        <time>2019-08-15T12:12:44.000Z</time>
      </trkpt>
      <trkpt lat="45.19834" lon="5.49087">
        <ele>395.19</ele>
        <time>2019-08-15T12:12:54.000Z</time>
      </trkpt>
      <trkpt lat="45.19828" lon="5.49079">
        <ele>393.29</ele>
        <time>2019-08-15T12:13:04.000Z</time>
      </trkpt>
      <trkpt lat="45.19827" lon="5.4907">
        <ele>389.9</ele>
        <time>2019-08-15T12:13:14.000Z</time>
      </trkpt>
      <trkpt lat="45.1982" lon="5.49059">
        <ele>387.33</ele>
        <time>2019-08-15T12:13:24.000Z</time>
      </trkpt>
      <trkpt lat="45.19819" lon="5.49049">
        <ele>386</ele>
        <time>2019-08-15T12:13:34.000Z</time>
      </trkpt>
      <trkpt lat="45.19821" lon="5.49034">
        <ele>381.03</ele>
        <time>2019-08-15T12:13:46.000Z</time>
      </trkpt>
      <trkpt lat="45.19821" lon="5.49027">
        <ele>379.27</ele>
        <time>2019-08-15T12:13:56.000Z</time>
      </trkpt>
      <trkpt lat="45.19819" lon="5.49009">
        <ele>376.28</ele>
        <time>2019-08-15T12:14:06.000Z</time>
      </trkpt>
      <trkpt lat="45.19824" lon="5.48992">
        <ele>375.92</ele>
        <time>2019-08-15T12:14:16.000Z</time>
      </trkpt>
      <trkpt lat="45.19826" lon="5.48977">
        <ele>374.09</ele>
        <time>2019-08-15T12:14:26.000Z</time>
      </trkpt>
      <trkpt lat="45.19825" lon="5.4896">
        <ele>371.79</ele>
        <time>2019-08-15T12:14:36.000Z</time>
      </trkpt>
      <trkpt lat="45.19821" lon="5.48948">
        <ele>369.7</ele>
        <time>2019-08-15T12:14:46.000Z</time>
      </trkpt>
      <trkpt lat="45.19816" lon="5.4893">
        <ele>367.19</ele>
        <time>2019-08-15T12:15:06.000Z</time>
      </trkpt>
      <trkpt lat="45.19814" lon="5.48913">
        <ele>364.39</ele>
        <time>2019-08-15T12:15:16.000Z</time>
      </trkpt>
      <trkpt lat="45.1982" lon="5.48896">
        <ele>360.75</ele>
        <time>2019-08-15T12:15:26.000Z</time>
      </trkpt>
      <trkpt lat="45.19828" lon="5.48884">
        <ele>361.36</ele>
        <time>2019-08-15T12:15:36.000Z</time>
      </trkpt>
      <trkpt lat="45.19839" lon="5.48875">
        <ele>361.28</ele>
        <time>2019-08-15T12:15:46.000Z</time>
      </trkpt>
      <trkpt lat="45.19846" lon="5.48865">
        <ele>364.2</ele>
        <time>2019-08-15T12:15:56.000Z</time>
      </trkpt>
      <trkpt lat="45.1985" lon="5.48851">
        <ele>365.94</ele>
        <time>2019-08-15T12:16:06.000Z</time>
      </trkpt>
      <trkpt lat="45.19853" lon="5.48838">
        <ele>365.64</ele>
        <time>2019-08-15T12:16:27.000Z</time>
      </trkpt>
      <trkpt lat="45.19852" lon="5.4882">
        <ele>362.06</ele>
        <time>2019-08-15T12:16:37.000Z</time>
      </trkpt>
      <trkpt lat="45.19854" lon="5.48804">
        <ele>358.15</ele>
        <time>2019-08-15T12:16:48.000Z</time>
      </trkpt>
      <trkpt lat="45.19854" lon="5.48788">
        <ele>357.17</ele>
        <time>2019-08-15T12:16:58.000Z</time>
      </trkpt>
      <trkpt lat="45.1986" lon="5.4878">
        <ele>357.44</ele>
        <time>2019-08-15T12:17:08.000Z</time>
      </trkpt>
      <trkpt lat="45.19866" lon="5.48771">
        <ele>356.56</ele>
        <time>2019-08-15T12:17:18.000Z</time>
      </trkpt>
      <trkpt lat="45.19872" lon="5.48757">
        <ele>351.94</ele>
        <time>2019-08-15T12:17:28.000Z</time>
      </trkpt>
      <trkpt lat="45.19878" lon="5.48743">
        <ele>350.36</ele>
        <time>2019-08-15T12:17:38.000Z</time>
      </trkpt>
      <trkpt lat="45.19882" lon="5.48728">
        <ele>346.19</ele>
        <time>2019-08-15T12:17:48.000Z</time>
      </trkpt>
      <trkpt lat="45.19883" lon="5.48711">
        <ele>342.08</ele>
        <time>2019-08-15T12:17:58.000Z</time>
      </trkpt>
      <trkpt lat="45.19882" lon="5.48695">
        <ele>338.47</ele>
        <time>2019-08-15T12:18:08.000Z</time>
      </trkpt>
      <trkpt lat="45.19875" lon="5.48684">
        <ele>337.39</ele>
        <time>2019-08-15T12:18:18.000Z</time>
      </trkpt>
      <trkpt lat="45.19873" lon="5.48671">
        <ele>334.17</ele>
        <time>2019-08-15T12:18:58.000Z</time>
      </trkpt>
      <trkpt lat="45.19873" lon="5.48658">
        <ele>333.57</ele>
        <time>2019-08-15T12:19:08.000Z</time>
      </trkpt>
      <trkpt lat="45.19879" lon="5.48657">
        <ele>330.24</ele>
        <time>2019-08-15T12:19:18.000Z</time>
      </trkpt>
      <trkpt lat="45.19886" lon="5.48659">
        <ele>324.49</ele>
        <time>2019-08-15T12:19:28.000Z</time>
      </trkpt>
      <trkpt lat="45.19893" lon="5.48652">
        <ele>320.27</ele>
        <time>2019-08-15T12:19:38.000Z</time>
      </trkpt>
      <trkpt lat="45.19892" lon="5.48644">
        <ele>319.68</ele>
        <time>2019-08-15T12:19:48.000Z</time>
      </trkpt>
      <trkpt lat="45.19887" lon="5.48637">
        <ele>317.01</ele>
        <time>2019-08-15T12:19:58.000Z</time>
      </trkpt>
      <trkpt lat="45.1988" lon="5.48628">
        <ele>314.01</ele>
        <time>2019-08-15T12:20:08.000Z</time>
      </trkpt>
      <trkpt lat="45.19874" lon="5.48617">
        <ele>311.04</ele>
        <time>2019-08-15T12:20:18.000Z</time>
      </trkpt>
      <trkpt lat="45.19869" lon="5.48607">
        <ele>308.24</ele>
        <time>2019-08-15T12:20:28.000Z</time>
      </trkpt>
      <trkpt lat="45.19869" lon="5.48598">
        <ele>304.91</ele>
        <time>2019-08-15T12:20:38.000Z</time>
      </trkpt>
      <trkpt lat="45.19873" lon="5.48585">
        <ele>297.45</ele>
        <time>2019-08-15T12:20:48.000Z</time>
      </trkpt>
      <trkpt lat="45.19873" lon="5.48571">
        <ele>291.87</ele>
        <time>2019-08-15T12:20:58.000Z</time>
      </trkpt>
      <trkpt lat="45.19871" lon="5.48555">
        <ele>288.75</ele>
        <time>2019-08-15T12:21:09.000Z</time>
      </trkpt>
      <trkpt lat="45.19879" lon="5.4854">
        <ele>286.26</ele>
        <time>2019-08-15T12:21:19.000Z</time>
      </trkpt>
      <trkpt lat="45.19886" lon="5.48533">
        <ele>284.88</ele>
        <time>2019-08-15T12:21:29.000Z</time>
      </trkpt>
      <trkpt lat="45.19893" lon="5.48531">
        <ele>281.71</ele>
        <time>2019-08-15T12:21:39.000Z</time>
      </trkpt>
      <trkpt lat="45.19898" lon="5.4853">
        <ele>280.67</ele>
        <time>2019-08-15T12:21:49.000Z</time>
      </trkpt>
      <trkpt lat="45.1991" lon="5.48526">
        <ele>281.44</ele>
        <time>2019-08-15T12:21:59.000Z</time>
      </trkpt>
      <trkpt lat="45.19921" lon="5.48523">
        <ele>280.62</ele>
        <time>2019-08-15T12:22:09.000Z</time>
      </trkpt>
      <trkpt lat="45.19933" lon="5.48515">
        <ele>279.98</ele>
        <time>2019-08-15T12:22:19.000Z</time>
      </trkpt>
      <trkpt lat="45.19946" lon="5.48506">
        <ele>282.18</ele>
        <time>2019-08-15T12:22:29.000Z</time>
      </trkpt>
      <trkpt lat="45.19956" lon="5.48502">
        <ele>280.4</ele>
        <time>2019-08-15T12:22:39.000Z</time>
      </trkpt>
      <trkpt lat="45.19966" lon="5.48494">
        <ele>277.63</ele>
        <time>2019-08-15T12:22:49.000Z</time>
      </trkpt>
      <trkpt lat="45.19976" lon="5.48488">
        <ele>277.2</ele>
        <time>2019-08-15T12:22:59.000Z</time>
      </trkpt>
      <trkpt lat="45.19982" lon="5.48476">
        <ele>273.44</ele>
        <time>2019-08-15T12:23:09.000Z</time>
      </trkpt>
      <trkpt lat="45.19979" lon="5.48468">
        <ele>272.06</ele>
        <time>2019-08-15T12:23:19.000Z</time>
      </trkpt>
      <trkpt lat="45.19971" lon="5.48462">
        <ele>271.11</ele>
        <time>2019-08-15T12:23:29.000Z</time>
      </trkpt>
      <trkpt lat="45.19962" lon="5.48455">
        <ele>270.84</ele>
        <time>2019-08-15T12:23:39.000Z</time>
      </trkpt>
      <trkpt lat="45.19954" lon="5.48448">
        <ele>268.65</ele>
        <time>2019-08-15T12:23:49.000Z</time>
      </trkpt>
      <trkpt lat="45.19941" lon="5.48438">
        <ele>268.93</ele>
        <time>2019-08-15T12:23:59.000Z</time>
      </trkpt>
      <trkpt lat="45.1993" lon="5.48429">
        <ele>268.6</ele>
        <time>2019-08-15T12:24:09.000Z</time>
      </trkpt>
      <trkpt lat="45.19921" lon="5.48422">
        <ele>270.23</ele>
        <time>2019-08-15T12:24:19.000Z</time>
      </trkpt>
      <trkpt lat="45.19908" lon="5.48415">
        <ele>273.46</ele>
        <time>2019-08-15T12:24:29.000Z</time>
      </trkpt>
      <trkpt lat="45.19898" lon="5.48408">
        <ele>273.19</ele>
        <time>2019-08-15T12:24:39.000Z</time>
      </trkpt>
      <trkpt lat="45.19886" lon="5.48405">
        <ele>274.57</ele>
        <time>2019-08-15T12:24:49.000Z</time>
      </trkpt>
      <trkpt lat="45.19874" lon="5.48406">
        <ele>276</ele>
        <time>2019-08-15T12:24:59.000Z</time>
      </trkpt>
      <trkpt lat="45.19863" lon="5.48409">
        <ele>273.69</ele>
        <time>2019-08-15T12:25:09.000Z</time>
      </trkpt>
      <trkpt lat="45.19855" lon="5.48414">
        <ele>272.49</ele>
        <time>2019-08-15T12:25:19.000Z</time>
      </trkpt>
      <trkpt lat="45.19848" lon="5.48418">
        <ele>270.66</ele>
        <time>2019-08-15T12:25:29.000Z</time>
      </trkpt>
      <trkpt lat="45.19836" lon="5.48425">
        <ele>270.6</ele>
        <time>2019-08-15T12:25:39.000Z</time>
      </trkpt>
      <trkpt lat="45.19827" lon="5.48433">
        <ele>269.81</ele>
        <time>2019-08-15T12:25:49.000Z</time>
      </trkpt>
      <trkpt lat="45.19819" lon="5.48444">
        <ele>268.81</ele>
        <time>2019-08-15T12:25:59.000Z</time>
      </trkpt>
      <trkpt lat="45.19809" lon="5.48452">
        <ele>266.73</ele>
        <time>2019-08-15T12:26:09.000Z</time>
      </trkpt>
      <trkpt lat="45.19798" lon="5.48455">
        <ele>264.01</ele>
        <time>2019-08-15T12:26:19.000Z</time>
      </trkpt>
      <trkpt lat="45.19788" lon="5.48454">
        <ele>262.32</ele>
        <time>2019-08-15T12:26:29.000Z</time>
      </trkpt>
      <trkpt lat="45.19778" lon="5.4845">
        <ele>263.93</ele>
        <time>2019-08-15T12:26:39.000Z</time>
      </trkpt>
      <trkpt lat="45.19765" lon="5.48444">
        <ele>264.38</ele>
        <time>2019-08-15T12:26:49.000Z</time>
      </trkpt>
      <trkpt lat="45.19755" lon="5.48436">
        <ele>263.74</ele>
        <time>2019-08-15T12:26:59.000Z</time>
      </trkpt>
      <trkpt lat="45.19747" lon="5.48428">
        <ele>267.33</ele>
        <time>2019-08-15T12:27:09.000Z</time>
      </trkpt>
      <trkpt lat="45.19741" lon="5.48426">
        <ele>268.77</ele>
        <time>2019-08-15T12:27:19.000Z</time>
      </trkpt>
      <trkpt lat="45.19729" lon="5.48417">
        <ele>270.42</ele>
        <time>2019-08-15T12:27:29.000Z</time>
      </trkpt>
      <trkpt lat="45.19718" lon="5.4841">
        <ele>273.75</ele>
        <time>2019-08-15T12:27:39.000Z</time>
      </trkpt>
      <trkpt lat="45.19706" lon="5.48402">
        <ele>275.13</ele>
        <time>2019-08-15T12:27:49.000Z</time>
      </trkpt>
      <trkpt lat="45.19694" lon="5.48399">
        <ele>276.23</ele>
        <time>2019-08-15T12:27:59.000Z</time>
      </trkpt>
      <trkpt lat="45.19683" lon="5.48403">
        <ele>279.54</ele>
        <time>2019-08-15T12:28:09.000Z</time>
      </trkpt>
      <trkpt lat="45.19673" lon="5.48413">
        <ele>279.59</ele>
        <time>2019-08-15T12:28:19.000Z</time>
      </trkpt>
      <trkpt lat="45.19663" lon="5.48421">
        <ele>279.19</ele>
        <time>2019-08-15T12:28:29.000Z</time>
      </trkpt>
      <trkpt lat="45.19658" lon="5.48428">
        <ele>279.83</ele>
        <time>2019-08-15T12:28:39.000Z</time>
      </trkpt>
      <trkpt lat="45.19653" lon="5.48429">
        <ele>280.59</ele>
        <time>2019-08-15T12:28:49.000Z</time>
      </trkpt>
      <trkpt lat="45.19646" lon="5.48429">
        <ele>280</ele>
        <time>2019-08-15T12:28:59.000Z</time>
      </trkpt>
      <trkpt lat="45.19636" lon="5.48432">
        <ele>280.53</ele>
        <time>2019-08-15T12:29:09.000Z</time>
      </trkpt>
      <trkpt lat="45.19624" lon="5.48435">
        <ele>282.99</ele>
        <time>2019-08-15T12:29:19.000Z</time>
      </trkpt>
      <trkpt lat="45.19613" lon="5.48435">
        <ele>287.3</ele>
        <time>2019-08-15T12:29:29.000Z</time>
      </trkpt>
      <trkpt lat="45.19603" lon="5.48432">
        <ele>289.55</ele>
        <time>2019-08-15T12:29:39.000Z</time>
      </trkpt>
      <trkpt lat="45.19597" lon="5.48428">
        <ele>291.22</ele>
        <time>2019-08-15T12:29:49.000Z</time>
      </trkpt>
      <trkpt lat="45.19593" lon="5.48423">
        <ele>298.64</ele>
        <time>2019-08-15T12:29:59.000Z</time>
      </trkpt>
      <trkpt lat="45.19586" lon="5.48424">
        <ele>299.23</ele>
        <time>2019-08-15T12:30:09.000Z</time>
      </trkpt>
      <trkpt lat="45.1958" lon="5.48425">
        <ele>296.29</ele>
        <time>2019-08-15T12:30:30.000Z</time>
      </trkpt>
      <trkpt lat="45.19578" lon="5.48418">
        <ele>299.43</ele>
        <time>2019-08-15T12:30:40.000Z</time>
      </trkpt>
      <trkpt lat="45.19573" lon="5.4841">
        <ele>300.95</ele>
        <time>2019-08-15T12:31:09.000Z</time>
      </trkpt>
      <trkpt lat="45.19566" lon="5.48404">
        <ele>303.2</ele>
        <time>2019-08-15T12:31:50.000Z</time>
      </trkpt>
      <trkpt lat="45.19561" lon="5.48398">
        <ele>305</ele>
        <time>2019-08-15T12:32:00.000Z</time>
      </trkpt>
      <trkpt lat="45.1956" lon="5.48391">
        <ele>305.9</ele>
        <time>2019-08-15T12:32:10.000Z</time>
      </trkpt>
      <trkpt lat="45.19554" lon="5.48382">
        <ele>306.98</ele>
        <time>2019-08-15T12:32:31.000Z</time>
      </trkpt>
      <trkpt lat="45.1955" lon="5.48376">
        <ele>309.1</ele>
        <time>2019-08-15T12:32:44.000Z</time>
      </trkpt>
      <trkpt lat="45.19544" lon="5.48367">
        <ele>310.17</ele>
        <time>2019-08-15T12:32:54.000Z</time>
      </trkpt>
      <trkpt lat="45.19534" lon="5.48361">
        <ele>311.22</ele>
        <time>2019-08-15T12:33:09.000Z</time>
      </trkpt>
      <trkpt lat="45.19526" lon="5.48357">
        <ele>311.96</ele>
        <time>2019-08-15T12:33:53.000Z</time>
      </trkpt>
      <trkpt lat="45.19516" lon="5.48352">
        <ele>312.37</ele>
        <time>2019-08-15T12:34:40.000Z</time>
      </trkpt>
      <trkpt lat="45.19505" lon="5.48344">
        <ele>313.22</ele>
        <time>2019-08-15T12:34:51.000Z</time>
      </trkpt>
      <trkpt lat="45.19495" lon="5.48341">
        <ele>316.34</ele>
        <time>2019-08-15T12:35:34.000Z</time>
      </trkpt>
      <trkpt lat="45.19484" lon="5.48333">
        <ele>316.12</ele>
        <time>2019-08-15T12:36:21.000Z</time>
      </trkpt>
      <trkpt lat="45.19477" lon="5.48326">
        <ele>316.59</ele>
        <time>2019-08-15T12:36:40.000Z</time>
      </trkpt>
      <trkpt lat="45.1947" lon="5.48317">
        <ele>315.83</ele>
        <time>2019-08-15T12:36:50.000Z</time>
      </trkpt>
      <trkpt lat="45.19468" lon="5.4831">
        <ele>321.58</ele>
        <time>2019-08-15T12:37:04.000Z</time>
      </trkpt>
      <trkpt lat="45.1946" lon="5.48305">
        <ele>320.53</ele>
        <time>2019-08-15T12:37:14.000Z</time>
      </trkpt>
      <trkpt lat="45.19449" lon="5.48301">
        <ele>319.49</ele>
        <time>2019-08-15T12:37:24.000Z</time>
      </trkpt>
      <trkpt lat="45.19442" lon="5.48291">
        <ele>318.28</ele>
        <time>2019-08-15T12:37:46.000Z</time>
      </trkpt>
      <trkpt lat="45.19435" lon="5.48286">
        <ele>320.7</ele>
        <time>2019-08-15T12:37:56.000Z</time>
      </trkpt>
      <trkpt lat="45.19426" lon="5.4828">
        <ele>320.45</ele>
        <time>2019-08-15T12:38:15.000Z</time>
      </trkpt>
      <trkpt lat="45.19417" lon="5.48274">
        <ele>320.18</ele>
        <time>2019-08-15T12:38:25.000Z</time>
      </trkpt>
      <trkpt lat="45.19408" lon="5.48272">
        <ele>319.55</ele>
        <time>2019-08-15T12:38:35.000Z</time>
      </trkpt>
      <trkpt lat="45.19398" lon="5.48273">
        <ele>318.7</ele>
        <time>2019-08-15T12:38:45.000Z</time>
      </trkpt>
      <trkpt lat="45.19384" lon="5.48273">
        <ele>319.9</ele>
        <time>2019-08-15T12:38:55.000Z</time>
      </trkpt>
      <trkpt lat="45.19372" lon="5.48276">
        <ele>320.22</ele>
        <time>2019-08-15T12:39:05.000Z</time>
      </trkpt>
      <trkpt lat="45.19356" lon="5.48274">
        <ele>319.11</ele>
        <time>2019-08-15T12:39:15.000Z</time>
      </trkpt>
      <trkpt lat="45.19347" lon="5.48268">
        <ele>318</ele>
        <time>2019-08-15T12:39:25.000Z</time>
      </trkpt>
      <trkpt lat="45.19342" lon="5.48266">
        <ele>318.08</ele>
        <time>2019-08-15T12:39:35.000Z</time>
      </trkpt>
      <trkpt lat="45.1933" lon="5.48261">
        <ele>317.93</ele>
        <time>2019-08-15T12:39:45.000Z</time>
      </trkpt>
      <trkpt lat="45.19315" lon="5.48252">
        <ele>315.67</ele>
        <time>2019-08-15T12:39:55.000Z</time>
      </trkpt>
      <trkpt lat="45.19304" lon="5.48246">
        <ele>314.89</ele>
        <time>2019-08-15T12:40:05.000Z</time>
      </trkpt>
      <trkpt lat="45.19293" lon="5.48242">
        <ele>312.2</ele>
        <time>2019-08-15T12:40:15.000Z</time>
      </trkpt>
      <trkpt lat="45.19278" lon="5.48238">
        <ele>310.17</ele>
        <time>2019-08-15T12:40:25.000Z</time>
      </trkpt>
      <trkpt lat="45.19263" lon="5.48233">
        <ele>311.17</ele>
        <time>2019-08-15T12:40:35.000Z</time>
      </trkpt>
      <trkpt lat="45.19252" lon="5.48225">
        <ele>312.23</ele>
        <time>2019-08-15T12:40:45.000Z</time>
      </trkpt>
      <trkpt lat="45.1924" lon="5.48225">
        <ele>313.99</ele>
        <time>2019-08-15T12:40:55.000Z</time>
      </trkpt>
      <trkpt lat="45.19227" lon="5.48222">
        <ele>315.07</ele>
        <time>2019-08-15T12:41:05.000Z</time>
      </trkpt>
      <trkpt lat="45.19213" lon="5.48221">
        <ele>315.06</ele>
        <time>2019-08-15T12:41:15.000Z</time>
      </trkpt>
      <trkpt lat="45.19201" lon="5.48217">
        <ele>315.24</ele>
        <time>2019-08-15T12:41:25.000Z</time>
      </trkpt>
      <trkpt lat="45.19187" lon="5.48213">
        <ele>316.34</ele>
        <time>2019-08-15T12:41:35.000Z</time>
      </trkpt>
      <trkpt lat="45.19175" lon="5.48211">
        <ele>313.98</ele>
        <time>2019-08-15T12:41:45.000Z</time>
      </trkpt>
      <trkpt lat="45.19161" lon="5.48209">
        <ele>311.27</ele>
        <time>2019-08-15T12:41:55.000Z</time>
      </trkpt>
      <trkpt lat="45.1915" lon="5.4821">
        <ele>310.93</ele>
        <time>2019-08-15T12:42:05.000Z</time>
      </trkpt>
      <trkpt lat="45.19139" lon="5.48203">
        <ele>311.55</ele>
        <time>2019-08-15T12:42:15.000Z</time>
      </trkpt>
      <trkpt lat="45.19129" lon="5.48198">
        <ele>313.41</ele>
        <time>2019-08-15T12:43:10.000Z</time>
      </trkpt>
      <trkpt lat="45.19118" lon="5.48192">
        <ele>313.05</ele>
        <time>2019-08-15T12:43:41.000Z</time>
      </trkpt>
      <trkpt lat="45.19109" lon="5.48186">
        <ele>313.5</ele>
        <time>2019-08-15T12:43:51.000Z</time>
      </trkpt>
      <trkpt lat="45.19094" lon="5.48175">
        <ele>313.6</ele>
        <time>2019-08-15T12:44:01.000Z</time>
      </trkpt>
      <trkpt lat="45.19081" lon="5.48165">
        <ele>317.27</ele>
        <time>2019-08-15T12:44:11.000Z</time>
      </trkpt>
      <trkpt lat="45.19068" lon="5.48158">
        <ele>315.79</ele>
        <time>2019-08-15T12:44:21.000Z</time>
      </trkpt>
      <trkpt lat="45.19059" lon="5.4815">
        <ele>315.76</ele>
        <time>2019-08-15T12:44:31.000Z</time>
      </trkpt>
      <trkpt lat="45.19045" lon="5.48145">
        <ele>317.13</ele>
        <time>2019-08-15T12:44:41.000Z</time>
      </trkpt>
      <trkpt lat="45.1903" lon="5.48137">
        <ele>318.69</ele>
        <time>2019-08-15T12:44:51.000Z</time>
      </trkpt>
      <trkpt lat="45.19019" lon="5.4813">
        <ele>319.76</ele>
        <time>2019-08-15T12:45:01.000Z</time>
      </trkpt>
      <trkpt lat="45.19007" lon="5.4812">
        <ele>318.5</ele>
        <time>2019-08-15T12:45:11.000Z</time>
      </trkpt>
      <trkpt lat="45.18998" lon="5.48108">
        <ele>319.11</ele>
        <time>2019-08-15T12:45:21.000Z</time>
      </trkpt>
      <trkpt lat="45.18989" lon="5.48097">
        <ele>321.06</ele>
        <time>2019-08-15T12:45:31.000Z</time>
      </trkpt>
      <trkpt lat="45.18979" lon="5.48086">
        <ele>322.89</ele>
        <time>2019-08-15T12:45:41.000Z</time>
      </trkpt>
      <trkpt lat="45.18967" lon="5.48077">
        <ele>322.99</ele>
        <time>2019-08-15T12:45:51.000Z</time>
      </trkpt>
      <trkpt lat="45.18958" lon="5.48068">
        <ele>321.91</ele>
        <time>2019-08-15T12:46:01.000Z</time>
      </trkpt>
      <trkpt lat="45.18947" lon="5.4806">
        <ele>322.96</ele>
        <time>2019-08-15T12:46:11.000Z</time>
      </trkpt>
      <trkpt lat="45.18937" lon="5.48052">
        <ele>320.43</ele>
        <time>2019-08-15T12:46:21.000Z</time>
      </trkpt>
      <trkpt lat="45.18927" lon="5.4804">
        <ele>320.56</ele>
        <time>2019-08-15T12:46:31.000Z</time>
      </trkpt>
      <trkpt lat="45.18918" lon="5.48031">
        <ele>317.85</ele>
        <time>2019-08-15T12:46:43.000Z</time>
      </trkpt>
      <trkpt lat="45.18906" lon="5.48021">
        <ele>318.55</ele>
        <time>2019-08-15T12:46:56.000Z</time>
      </trkpt>
      <trkpt lat="45.18896" lon="5.48011">
        <ele>316.67</ele>
        <time>2019-08-15T12:47:06.000Z</time>
      </trkpt>
      <trkpt lat="45.18884" lon="5.48003">
        <ele>316.59</ele>
        <time>2019-08-15T12:47:16.000Z</time>
      </trkpt>
      <trkpt lat="45.18875" lon="5.47991">
        <ele>316.21</ele>
        <time>2019-08-15T12:47:26.000Z</time>
      </trkpt>
      <trkpt lat="45.18868" lon="5.47983">
        <ele>317.15</ele>
        <time>2019-08-15T12:47:36.000Z</time>
      </trkpt>
      <trkpt lat="45.18856" lon="5.47974">
        <ele>315.73</ele>
        <time>2019-08-15T12:47:46.000Z</time>
      </trkpt>
      <trkpt lat="45.18845" lon="5.4796">
        <ele>315.56</ele>
        <time>2019-08-15T12:47:56.000Z</time>
      </trkpt>
      <trkpt lat="45.18834" lon="5.47947">
        <ele>314.97</ele>
        <time>2019-08-15T12:48:06.000Z</time>
      </trkpt>
      <trkpt lat="45.18827" lon="5.47938">
        <ele>316.35</ele>
        <time>2019-08-15T12:48:16.000Z</time>
      </trkpt>
      <trkpt lat="45.18819" lon="5.47924">
        <ele>316.19</ele>
        <time>2019-08-15T12:48:26.000Z</time>
      </trkpt>
      <trkpt lat="45.1881" lon="5.4791">
        <ele>316.21</ele>
        <time>2019-08-15T12:48:36.000Z</time>
      </trkpt>
      <trkpt lat="45.18804" lon="5.47896">
        <ele>313.62</ele>
        <time>2019-08-15T12:48:46.000Z</time>
      </trkpt>
      <trkpt lat="45.18798" lon="5.47887">
        <ele>311.39</ele>
        <time>2019-08-15T12:48:56.000Z</time>
      </trkpt>
      <trkpt lat="45.18788" lon="5.47876">
        <ele>310.23</ele>
        <time>2019-08-15T12:49:06.000Z</time>
      </trkpt>
      <trkpt lat="45.18777" lon="5.47869">
        <ele>312</ele>
        <time>2019-08-15T12:49:48.000Z</time>
      </trkpt>
      <trkpt lat="45.18766" lon="5.47861">
        <ele>310.58</ele>
        <time>2019-08-15T12:49:58.000Z</time>
      </trkpt>
      <trkpt lat="45.18755" lon="5.47864">
        <ele>309.57</ele>
        <time>2019-08-15T12:50:08.000Z</time>
      </trkpt>
      <trkpt lat="45.18745" lon="5.4787">
        <ele>308.63</ele>
        <time>2019-08-15T12:50:18.000Z</time>
      </trkpt>
      <trkpt lat="45.18742" lon="5.47863">
        <ele>304.11</ele>
        <time>2019-08-15T12:50:28.000Z</time>
      </trkpt>
      <trkpt lat="45.1874" lon="5.47851">
        <ele>302.93</ele>
        <time>2019-08-15T12:50:38.000Z</time>
      </trkpt>
      <trkpt lat="45.18735" lon="5.4785">
        <ele>307.67</ele>
        <time>2019-08-15T12:50:48.000Z</time>
      </trkpt>
      <trkpt lat="45.18737" lon="5.47857">
        <ele>304.44</ele>
        <time>2019-08-15T12:50:58.000Z</time>
      </trkpt>
      <trkpt lat="45.18737" lon="5.47864">
        <ele>304.7</ele>
        <time>2019-08-15T12:51:08.000Z</time>
      </trkpt>
      <trkpt lat="45.18734" lon="5.4787">
        <ele>305.41</ele>
        <time>2019-08-15T12:51:18.000Z</time>
      </trkpt>
      <trkpt lat="45.18731" lon="5.47874">
        <ele>311.91</ele>
        <time>2019-08-15T12:51:28.000Z</time>
      </trkpt>
      <trkpt lat="45.18726" lon="5.47873">
        <ele>311.13</ele>
        <time>2019-08-15T12:51:38.000Z</time>
      </trkpt>
      <trkpt lat="45.18718" lon="5.47877">
        <ele>307.78</ele>
        <time>2019-08-15T12:51:48.000Z</time>
      </trkpt>
      <trkpt lat="45.18714" lon="5.47877">
        <ele>310.63</ele>
        <time>2019-08-15T12:51:58.000Z</time>
      </trkpt>
      <trkpt lat="45.1871" lon="5.47872">
        <ele>314.59</ele>
        <time>2019-08-15T12:52:08.000Z</time>
      </trkpt>
      <trkpt lat="45.18713" lon="5.47877">
        <ele>318.2</ele>
        <time>2019-08-15T12:52:18.000Z</time>
      </trkpt>
      <trkpt lat="45.18715" lon="5.47872">
        <ele>319.68</ele>
        <time>2019-08-15T12:52:28.000Z</time>
      </trkpt>
      <trkpt lat="45.18711" lon="5.47867">
        <ele>317.58</ele>
        <time>2019-08-15T12:52:38.000Z</time>
      </trkpt>
      <trkpt lat="45.18716" lon="5.4787">
        <ele>308.79</ele>
        <time>2019-08-15T12:52:48.000Z</time>
      </trkpt>
      <trkpt lat="45.18722" lon="5.4787">
        <ele>310.5</ele>
        <time>2019-08-15T12:52:58.000Z</time>
      </trkpt>
      <trkpt lat="45.18733" lon="5.47868">
        <ele>315.07</ele>
        <time>2019-08-15T12:53:08.000Z</time>
      </trkpt>
      <trkpt lat="45.18737" lon="5.4786">
        <ele>315.16</ele>
        <time>2019-08-15T12:53:18.000Z</time>
      </trkpt>
      <trkpt lat="45.18734" lon="5.47848">
        <ele>315.34</ele>
        <time>2019-08-15T12:53:28.000Z</time>
      </trkpt>
      <trkpt lat="45.18728" lon="5.47845">
        <ele>313.81</ele>
        <time>2019-08-15T12:53:38.000Z</time>
      </trkpt>
      <trkpt lat="45.18728" lon="5.47839">
        <ele>318.38</ele>
        <time>2019-08-15T12:53:48.000Z</time>
      </trkpt>
      <trkpt lat="45.18731" lon="5.47829">
        <ele>317.17</ele>
        <time>2019-08-15T12:53:58.000Z</time>
      </trkpt>
      <trkpt lat="45.18726" lon="5.47829">
        <ele>318.19</ele>
        <time>2019-08-15T12:54:08.000Z</time>
      </trkpt>
      <trkpt lat="45.18721" lon="5.47821">
        <ele>320.62</ele>
        <time>2019-08-15T12:54:18.000Z</time>
      </trkpt>
      <trkpt lat="45.18723" lon="5.47804">
        <ele>323.95</ele>
        <time>2019-08-15T12:54:28.000Z</time>
      </trkpt>
      <trkpt lat="45.18731" lon="5.47792">
        <ele>323.17</ele>
        <time>2019-08-15T12:54:38.000Z</time>
      </trkpt>
      <trkpt lat="45.18732" lon="5.47786">
        <ele>323.42</ele>
        <time>2019-08-15T12:54:48.000Z</time>
      </trkpt>
      <trkpt lat="45.18739" lon="5.47781">
        <ele>322.57</ele>
        <time>2019-08-15T12:54:58.000Z</time>
      </trkpt>
      <trkpt lat="45.18751" lon="5.47786">
        <ele>321.64</ele>
        <time>2019-08-15T12:55:08.000Z</time>
      </trkpt>
      <trkpt lat="45.18762" lon="5.47794">
        <ele>320.37</ele>
        <time>2019-08-15T12:55:18.000Z</time>
      </trkpt>
      <trkpt lat="45.1877" lon="5.47796">
        <ele>317.62</ele>
        <time>2019-08-15T12:55:28.000Z</time>
      </trkpt>
      <trkpt lat="45.18781" lon="5.47797">
        <ele>315.85</ele>
        <time>2019-08-15T12:55:38.000Z</time>
      </trkpt>
      <trkpt lat="45.18797" lon="5.47789">
        <ele>312.1</ele>
        <time>2019-08-15T12:55:48.000Z</time>
      </trkpt>
      <trkpt lat="45.18806" lon="5.47774">
        <ele>309.12</ele>
        <time>2019-08-15T12:55:58.000Z</time>
      </trkpt>
      <trkpt lat="45.18809" lon="5.47758">
        <ele>307.88</ele>
        <time>2019-08-15T12:56:08.000Z</time>
      </trkpt>
      <trkpt lat="45.18814" lon="5.47746">
        <ele>306.94</ele>
        <time>2019-08-15T12:56:18.000Z</time>
      </trkpt>
      <trkpt lat="45.18818" lon="5.47734">
        <ele>304.1</ele>
        <time>2019-08-15T12:56:28.000Z</time>
      </trkpt>
      <trkpt lat="45.18824" lon="5.47725">
        <ele>302.98</ele>
        <time>2019-08-15T12:56:38.000Z</time>
      </trkpt>
      <trkpt lat="45.18827" lon="5.4771">
        <ele>298.52</ele>
        <time>2019-08-15T12:56:48.000Z</time>
      </trkpt>
      <trkpt lat="45.18836" lon="5.47705">
        <ele>295.43</ele>
        <time>2019-08-15T12:56:58.000Z</time>
      </trkpt>
      <trkpt lat="45.18842" lon="5.47696">
        <ele>291.76</ele>
        <time>2019-08-15T12:57:08.000Z</time>
      </trkpt>
      <trkpt lat="45.18851" lon="5.47682">
        <ele>287.48</ele>
        <time>2019-08-15T12:57:18.000Z</time>
      </trkpt>
      <trkpt lat="45.18856" lon="5.47667">
        <ele>284.62</ele>
        <time>2019-08-15T12:57:28.000Z</time>
      </trkpt>
      <trkpt lat="45.1886" lon="5.47654">
        <ele>282.37</ele>
        <time>2019-08-15T12:57:38.000Z</time>
      </trkpt>
      <trkpt lat="45.18862" lon="5.47648">
        <ele>282.36</ele>
        <time>2019-08-15T12:57:48.000Z</time>
      </trkpt>
      <trkpt lat="45.18865" lon="5.47641">
        <ele>287.71</ele>
        <time>2019-08-15T12:57:58.000Z</time>
      </trkpt>
      <trkpt lat="45.18867" lon="5.47635">
        <ele>292.96</ele>
        <time>2019-08-15T12:58:08.000Z</time>
      </trkpt>
      <trkpt lat="45.1887" lon="5.4763">
        <ele>294.57</ele>
        <time>2019-08-15T12:58:18.000Z</time>
      </trkpt>
      <trkpt lat="45.18873" lon="5.47625">
        <ele>294.49</ele>
        <time>2019-08-15T12:58:28.000Z</time>
      </trkpt>
      <trkpt lat="45.18882" lon="5.47619">
        <ele>294.31</ele>
        <time>2019-08-15T12:58:38.000Z</time>
      </trkpt>
      <trkpt lat="45.18891" lon="5.47614">
        <ele>294.61</ele>
        <time>2019-08-15T12:58:48.000Z</time>
      </trkpt>
      <trkpt lat="45.18899" lon="5.47602">
        <ele>292.65</ele>
        <time>2019-08-15T12:59:00.000Z</time>
      </trkpt>
      <trkpt lat="45.18903" lon="5.47586">
        <ele>290.74</ele>
        <time>2019-08-15T12:59:10.000Z</time>
      </trkpt>
      <trkpt lat="45.18908" lon="5.4757">
        <ele>289.38</ele>
        <time>2019-08-15T12:59:20.000Z</time>
      </trkpt>
      <trkpt lat="45.18907" lon="5.47553">
        <ele>286.96</ele>
        <time>2019-08-15T12:59:30.000Z</time>
      </trkpt>
      <trkpt lat="45.18912" lon="5.47542">
        <ele>285.61</ele>
        <time>2019-08-15T12:59:40.000Z</time>
      </trkpt>
      <trkpt lat="45.18916" lon="5.47532">
        <ele>284.71</ele>
        <time>2019-08-15T12:59:50.000Z</time>
      </trkpt>
      <trkpt lat="45.18917" lon="5.47521">
        <ele>282.6</ele>
        <time>2019-08-15T13:00:00.000Z</time>
      </trkpt>
      <trkpt lat="45.18918" lon="5.47511">
        <ele>281.38</ele>
        <time>2019-08-15T13:00:10.000Z</time>
      </trkpt>
      <trkpt lat="45.18921" lon="5.475">
        <ele>278.71</ele>
        <time>2019-08-15T13:00:20.000Z</time>
      </trkpt>
      <trkpt lat="45.1892" lon="5.47489">
        <ele>276.6</ele>
        <time>2019-08-15T13:00:30.000Z</time>
      </trkpt>
      <trkpt lat="45.18924" lon="5.47476">
        <ele>274.79</ele>
        <time>2019-08-15T13:00:40.000Z</time>
      </trkpt>
      <trkpt lat="45.18925" lon="5.47467">
        <ele>273.83</ele>
        <time>2019-08-15T13:00:50.000Z</time>
      </trkpt>
      <trkpt lat="45.18925" lon="5.47459">
        <ele>273.86</ele>
        <time>2019-08-15T13:01:00.000Z</time>
      </trkpt>
      <trkpt lat="45.18923" lon="5.4745">
        <ele>272.78</ele>
        <time>2019-08-15T13:01:10.000Z</time>
      </trkpt>
      <trkpt lat="45.18919" lon="5.4744">
        <ele>270.69</ele>
        <time>2019-08-15T13:01:20.000Z</time>
      </trkpt>
      <trkpt lat="45.18921" lon="5.47433">
        <ele>267.59</ele>
        <time>2019-08-15T13:01:30.000Z</time>
      </trkpt>
      <trkpt lat="45.18919" lon="5.47427">
        <ele>267.18</ele>
        <time>2019-08-15T13:01:40.000Z</time>
      </trkpt>
      <trkpt lat="45.18922" lon="5.47418">
        <ele>267.56</ele>
        <time>2019-08-15T13:01:50.000Z</time>
      </trkpt>
      <trkpt lat="45.18919" lon="5.47408">
        <ele>267.77</ele>
        <time>2019-08-15T13:02:00.000Z</time>
      </trkpt>
      <trkpt lat="45.18915" lon="5.47396">
        <ele>269.18</ele>
        <time>2019-08-15T13:02:10.000Z</time>
      </trkpt>
      <trkpt lat="45.18914" lon="5.47383">
        <ele>269.06</ele>
        <time>2019-08-15T13:02:20.000Z</time>
      </trkpt>
      <trkpt lat="45.18906" lon="5.47368">
        <ele>268.87</ele>
        <time>2019-08-15T13:02:30.000Z</time>
      </trkpt>
      <trkpt lat="45.18912" lon="5.4737">
        <ele>266.86</ele>
        <time>2019-08-15T13:02:40.000Z</time>
      </trkpt>
      <trkpt lat="45.18906" lon="5.47366">
        <ele>265.6</ele>
        <time>2019-08-15T13:02:50.000Z</time>
      </trkpt>
      <trkpt lat="45.18901" lon="5.47357">
        <ele>265.37</ele>
        <time>2019-08-15T13:03:00.000Z</time>
      </trkpt>
      <trkpt lat="45.18904" lon="5.47346">
        <ele>266.2</ele>
        <time>2019-08-15T13:03:10.000Z</time>
      </trkpt>
      <trkpt lat="45.18908" lon="5.47331">
        <ele>263.81</ele>
        <time>2019-08-15T13:03:20.000Z</time>
      </trkpt>
      <trkpt lat="45.18914" lon="5.47318">
        <ele>267.9</ele>
        <time>2019-08-15T13:03:30.000Z</time>
      </trkpt>
      <trkpt lat="45.18922" lon="5.47312">
        <ele>271.83</ele>
        <time>2019-08-15T13:03:40.000Z</time>
      </trkpt>
      <trkpt lat="45.18917" lon="5.47311">
        <ele>271.92</ele>
        <time>2019-08-15T13:03:50.000Z</time>
      </trkpt>
      <trkpt lat="45.18917" lon="5.47304">
        <ele>268.97</ele>
        <time>2019-08-15T13:04:00.000Z</time>
      </trkpt>
      <trkpt lat="45.18925" lon="5.47301">
        <ele>267.63</ele>
        <time>2019-08-15T13:04:10.000Z</time>
      </trkpt>
      <trkpt lat="45.18931" lon="5.47302">
        <ele>266.27</ele>
        <time>2019-08-15T13:04:20.000Z</time>
      </trkpt>
      <trkpt lat="45.18945" lon="5.47295">
        <ele>259.76</ele>
        <time>2019-08-15T13:04:30.000Z</time>
      </trkpt>
      <trkpt lat="45.18957" lon="5.47291">
        <ele>257.39</ele>
        <time>2019-08-15T13:04:40.000Z</time>
      </trkpt>
      <trkpt lat="45.18962" lon="5.47277">
        <ele>255.95</ele>
        <time>2019-08-15T13:04:50.000Z</time>
      </trkpt>
      <trkpt lat="45.18965" lon="5.4727">
        <ele>258.39</ele>
        <time>2019-08-15T13:05:00.000Z</time>
      </trkpt>
      <trkpt lat="45.18969" lon="5.47263">
        <ele>258.1</ele>
        <time>2019-08-15T13:05:10.000Z</time>
      </trkpt>
      <trkpt lat="45.18971" lon="5.47252">
        <ele>260.39</ele>
        <time>2019-08-15T13:05:20.000Z</time>
      </trkpt>
      <trkpt lat="45.18975" lon="5.47248">
        <ele>259.79</ele>
        <time>2019-08-15T13:05:30.000Z</time>
      </trkpt>
      <trkpt lat="45.1898" lon="5.47238">
        <ele>256.97</ele>
        <time>2019-08-15T13:05:40.000Z</time>
      </trkpt>
      <trkpt lat="45.1899" lon="5.4723">
        <ele>255.76</ele>
        <time>2019-08-15T13:05:50.000Z</time>
      </trkpt>
      <trkpt lat="45.18995" lon="5.47222">
        <ele>255.57</ele>
        <time>2019-08-15T13:06:00.000Z</time>
      </trkpt>
      <trkpt lat="45.19003" lon="5.47215">
        <ele>252.1</ele>
        <time>2019-08-15T13:06:10.000Z</time>
      </trkpt>
      <trkpt lat="45.19013" lon="5.4721">
        <ele>250.94</ele>
        <time>2019-08-15T13:06:20.000Z</time>
      </trkpt>
      <trkpt lat="45.19022" lon="5.47204">
        <ele>248.58</ele>
        <time>2019-08-15T13:06:30.000Z</time>
      </trkpt>
      <trkpt lat="45.19032" lon="5.472">
        <ele>246.21</ele>
        <time>2019-08-15T13:06:40.000Z</time>
      </trkpt>
      <trkpt lat="45.19044" lon="5.47191">
        <ele>235.62</ele>
        <time>2019-08-15T13:06:50.000Z</time>
      </trkpt>
      <trkpt lat="45.19051" lon="5.47178">
        <ele>231.1</ele>
        <time>2019-08-15T13:07:00.000Z</time>
      </trkpt>
      <trkpt lat="45.19056" lon="5.47166">
        <ele>227.28</ele>
        <time>2019-08-15T13:07:10.000Z</time>
      </trkpt>
      <trkpt lat="45.19058" lon="5.47144">
        <ele>224.8</ele>
        <time>2019-08-15T13:07:20.000Z</time>
      </trkpt>
      <trkpt lat="45.19058" lon="5.47118">
        <ele>229.26</ele>
        <time>2019-08-15T13:07:30.000Z</time>
      </trkpt>
      <trkpt lat="45.19058" lon="5.471">
        <ele>230.56</ele>
        <time>2019-08-15T13:07:40.000Z</time>
      </trkpt>
      <trkpt lat="45.1906" lon="5.47085">
        <ele>230.51</ele>
        <time>2019-08-15T13:07:50.000Z</time>
      </trkpt>
      <trkpt lat="45.19069" lon="5.47085">
        <ele>227.57</ele>
        <time>2019-08-15T13:08:00.000Z</time>
      </trkpt>
      <trkpt lat="45.19074" lon="5.47098">
        <ele>221.69</ele>
        <time>2019-08-15T13:08:10.000Z</time>
      </trkpt>
      <trkpt lat="45.19079" lon="5.47113">
        <ele>217.65</ele>
        <time>2019-08-15T13:08:20.000Z</time>
      </trkpt>
      <trkpt lat="45.19086" lon="5.47127">
        <ele>216.19</ele>
        <time>2019-08-15T13:08:30.000Z</time>
      </trkpt>
      <trkpt lat="45.19092" lon="5.47138">
        <ele>214.8</ele>
        <time>2019-08-15T13:08:40.000Z</time>
      </trkpt>
      <trkpt lat="45.19097" lon="5.47147">
        <ele>214.5</ele>
        <time>2019-08-15T13:08:50.000Z</time>
      </trkpt>
      <trkpt lat="45.19102" lon="5.47147">
        <ele>210.87</ele>
        <time>2019-08-15T13:09:00.000Z</time>
      </trkpt>
      <trkpt lat="45.19109" lon="5.47155">
        <ele>207.23</ele>
        <time>2019-08-15T13:09:10.000Z</time>
      </trkpt>
      <trkpt lat="45.19121" lon="5.47168">
        <ele>208.71</ele>
        <time>2019-08-15T13:09:20.000Z</time>
      </trkpt>
      <trkpt lat="45.19132" lon="5.47176">
        <ele>211.32</ele>
        <time>2019-08-15T13:09:30.000Z</time>
      </trkpt>
      <trkpt lat="45.19144" lon="5.47186">
        <ele>212.22</ele>
        <time>2019-08-15T13:09:40.000Z</time>
      </trkpt>
      <trkpt lat="45.19156" lon="5.47192">
        <ele>213.88</ele>
        <time>2019-08-15T13:09:50.000Z</time>
      </trkpt>
      <trkpt lat="45.19165" lon="5.47197">
        <ele>212.66</ele>
        <time>2019-08-15T13:10:00.000Z</time>
      </trkpt>
      <trkpt lat="45.19176" lon="5.47203">
        <ele>213.55</ele>
        <time>2019-08-15T13:10:10.000Z</time>
      </trkpt>
      <trkpt lat="45.19188" lon="5.47209">
        <ele>214.53</ele>
        <time>2019-08-15T13:10:20.000Z</time>
      </trkpt>
      <trkpt lat="45.19199" lon="5.47217">
        <ele>213.87</ele>
        <time>2019-08-15T13:10:30.000Z</time>
      </trkpt>
      <trkpt lat="45.19211" lon="5.47221">
        <ele>211.76</ele>
        <time>2019-08-15T13:10:40.000Z</time>
      </trkpt>
      <trkpt lat="45.19221" lon="5.47219">
        <ele>210.59</ele>
        <time>2019-08-15T13:10:50.000Z</time>
      </trkpt>
      <trkpt lat="45.19232" lon="5.47216">
        <ele>211.45</ele>
        <time>2019-08-15T13:11:00.000Z</time>
      </trkpt>
      <trkpt lat="45.19246" lon="5.47212">
        <ele>213.16</ele>
        <time>2019-08-15T13:11:10.000Z</time>
      </trkpt>
      <trkpt lat="45.19262" lon="5.47219">
        <ele>214.78</ele>
        <time>2019-08-15T13:11:20.000Z</time>
      </trkpt>
      <trkpt lat="45.19273" lon="5.47232">
        <ele>217.65</ele>
        <time>2019-08-15T13:11:30.000Z</time>
      </trkpt>
      <trkpt lat="45.19285" lon="5.47238">
        <ele>217.56</ele>
        <time>2019-08-15T13:11:40.000Z</time>
      </trkpt>
      <trkpt lat="45.19295" lon="5.47241">
        <ele>215.8</ele>
        <time>2019-08-15T13:11:50.000Z</time>
      </trkpt>
      <trkpt lat="45.19307" lon="5.47244">
        <ele>214.25</ele>
        <time>2019-08-15T13:12:00.000Z</time>
      </trkpt>
      <trkpt lat="45.19318" lon="5.47249">
        <ele>213.38</ele>
        <time>2019-08-15T13:12:10.000Z</time>
      </trkpt>
      <trkpt lat="45.19327" lon="5.47257">
        <ele>211</ele>
        <time>2019-08-15T13:12:20.000Z</time>
      </trkpt>
      <trkpt lat="45.19333" lon="5.47262">
        <ele>209.78</ele>
        <time>2019-08-15T13:12:30.000Z</time>
      </trkpt>
      <trkpt lat="45.19344" lon="5.47265">
        <ele>209.83</ele>
        <time>2019-08-15T13:12:40.000Z</time>
      </trkpt>
      <trkpt lat="45.19357" lon="5.47262">
        <ele>208.78</ele>
        <time>2019-08-15T13:12:50.000Z</time>
      </trkpt>
      <trkpt lat="45.1937" lon="5.47268">
        <ele>204.41</ele>
        <time>2019-08-15T13:13:00.000Z</time>
      </trkpt>
      <trkpt lat="45.19375" lon="5.47268">
        <ele>207.15</ele>
        <time>2019-08-15T13:13:10.000Z</time>
      </trkpt>
      <trkpt lat="45.19386" lon="5.47273">
        <ele>206.26</ele>
        <time>2019-08-15T13:13:20.000Z</time>
      </trkpt>
      <trkpt lat="45.19393" lon="5.47271">
        <ele>205.14</ele>
        <time>2019-08-15T13:13:30.000Z</time>
      </trkpt>
      <trkpt lat="45.19401" lon="5.47262">
        <ele>205.88</ele>
        <time>2019-08-15T13:13:40.000Z</time>
      </trkpt>
      <trkpt lat="45.19406" lon="5.47249">
        <ele>206.22</ele>
        <time>2019-08-15T13:13:50.000Z</time>
      </trkpt>
      <trkpt lat="45.19411" lon="5.47236">
        <ele>205.45</ele>
        <time>2019-08-15T13:14:00.000Z</time>
      </trkpt>
      <trkpt lat="45.19412" lon="5.47224">
        <ele>205.59</ele>
        <time>2019-08-15T13:14:10.000Z</time>
      </trkpt>
      <trkpt lat="45.19413" lon="5.47205">
        <ele>205.94</ele>
        <time>2019-08-15T13:14:20.000Z</time>
      </trkpt>
      <trkpt lat="45.19421" lon="5.47189">
        <ele>205.07</ele>
        <time>2019-08-15T13:14:30.000Z</time>
      </trkpt>
      <trkpt lat="45.19432" lon="5.47178">
        <ele>206.08</ele>
        <time>2019-08-15T13:14:40.000Z</time>
      </trkpt>
      <trkpt lat="45.19444" lon="5.47173">
        <ele>208.29</ele>
        <time>2019-08-15T13:14:50.000Z</time>
      </trkpt>
      <trkpt lat="45.19455" lon="5.47167">
        <ele>208.59</ele>
        <time>2019-08-15T13:15:00.000Z</time>
      </trkpt>
      <trkpt lat="45.19458" lon="5.47151">
        <ele>208.48</ele>
        <time>2019-08-15T13:15:10.000Z</time>
      </trkpt>
      <trkpt lat="45.19457" lon="5.47135">
        <ele>209.23</ele>
        <time>2019-08-15T13:15:20.000Z</time>
      </trkpt>
      <trkpt lat="45.19457" lon="5.47115">
        <ele>207.68</ele>
        <time>2019-08-15T13:15:30.000Z</time>
      </trkpt>
      <trkpt lat="45.1946" lon="5.47098">
        <ele>209.43</ele>
        <time>2019-08-15T13:15:40.000Z</time>
      </trkpt>
      <trkpt lat="45.19461" lon="5.47079">
        <ele>210.56</ele>
        <time>2019-08-15T13:15:50.000Z</time>
      </trkpt>
      <trkpt lat="45.1946" lon="5.47068">
        <ele>207.36</ele>
        <time>2019-08-15T13:16:00.000Z</time>
      </trkpt>
      <trkpt lat="45.19463" lon="5.47052">
        <ele>204.74</ele>
        <time>2019-08-15T13:16:10.000Z</time>
      </trkpt>
      <trkpt lat="45.19467" lon="5.47038">
        <ele>206.97</ele>
        <time>2019-08-15T13:16:20.000Z</time>
      </trkpt>
      <trkpt lat="45.19466" lon="5.4702">
        <ele>205.52</ele>
        <time>2019-08-15T13:16:30.000Z</time>
      </trkpt>
      <trkpt lat="45.19464" lon="5.47005">
        <ele>204.17</ele>
        <time>2019-08-15T13:16:40.000Z</time>
      </trkpt>
      <trkpt lat="45.19464" lon="5.46993">
        <ele>201.43</ele>
        <time>2019-08-15T13:16:50.000Z</time>
      </trkpt>
      <trkpt lat="45.19458" lon="5.46975">
        <ele>199.85</ele>
        <time>2019-08-15T13:17:03.000Z</time>
      </trkpt>
      <trkpt lat="45.19452" lon="5.4696">
        <ele>200.58</ele>
        <time>2019-08-15T13:17:13.000Z</time>
      </trkpt>
      <trkpt lat="45.19444" lon="5.46944">
        <ele>200.69</ele>
        <time>2019-08-15T13:17:23.000Z</time>
      </trkpt>
      <trkpt lat="45.19435" lon="5.4693">
        <ele>200.97</ele>
        <time>2019-08-15T13:17:33.000Z</time>
      </trkpt>
      <trkpt lat="45.19428" lon="5.46914">
        <ele>202.51</ele>
        <time>2019-08-15T13:17:43.000Z</time>
      </trkpt>
      <trkpt lat="45.19433" lon="5.46894">
        <ele>201.87</ele>
        <time>2019-08-15T13:17:53.000Z</time>
      </trkpt>
      <trkpt lat="45.1944" lon="5.46882">
        <ele>199.29</ele>
        <time>2019-08-15T13:18:03.000Z</time>
      </trkpt>
      <trkpt lat="45.19447" lon="5.46864">
        <ele>196.66</ele>
        <time>2019-08-15T13:18:13.000Z</time>
      </trkpt>
      <trkpt lat="45.19453" lon="5.4685">
        <ele>196.59</ele>
        <time>2019-08-15T13:18:23.000Z</time>
      </trkpt>
      <trkpt lat="45.19462" lon="5.46839">
        <ele>199.91</ele>
        <time>2019-08-15T13:18:33.000Z</time>
      </trkpt>
      <trkpt lat="45.19468" lon="5.46825">
        <ele>200.59</ele>
        <time>2019-08-15T13:18:43.000Z</time>
      </trkpt>
      <trkpt lat="45.19464" lon="5.46809">
        <ele>199.21</ele>
        <time>2019-08-15T13:18:53.000Z</time>
      </trkpt>
      <trkpt lat="45.19454" lon="5.46798">
        <ele>197.48</ele>
        <time>2019-08-15T13:19:03.000Z</time>
      </trkpt>
      <trkpt lat="45.19443" lon="5.46788">
        <ele>199.56</ele>
        <time>2019-08-15T13:19:13.000Z</time>
      </trkpt>
      <trkpt lat="45.1944" lon="5.46771">
        <ele>202.02</ele>
        <time>2019-08-15T13:19:23.000Z</time>
      </trkpt>
      <trkpt lat="45.19439" lon="5.46758">
        <ele>203.7</ele>
        <time>2019-08-15T13:19:33.000Z</time>
      </trkpt>
      <trkpt lat="45.19442" lon="5.46739">
        <ele>203.95</ele>
        <time>2019-08-15T13:19:43.000Z</time>
      </trkpt>
      <trkpt lat="45.19444" lon="5.4672">
        <ele>204.92</ele>
        <time>2019-08-15T13:19:53.000Z</time>
      </trkpt>
      <trkpt lat="45.19441" lon="5.46702">
        <ele>206.04</ele>
        <time>2019-08-15T13:20:03.000Z</time>
      </trkpt>
      <trkpt lat="45.19434" lon="5.46687">
        <ele>209.25</ele>
        <time>2019-08-15T13:20:13.000Z</time>
      </trkpt>
      <trkpt lat="45.19425" lon="5.46674">
        <ele>209.62</ele>
        <time>2019-08-15T13:20:23.000Z</time>
      </trkpt>
      <trkpt lat="45.19416" lon="5.46665">
        <ele>209.89</ele>
        <time>2019-08-15T13:20:33.000Z</time>
      </trkpt>
      <trkpt lat="45.19406" lon="5.46651">
        <ele>206.66</ele>
        <time>2019-08-15T13:20:43.000Z</time>
      </trkpt>
      <trkpt lat="45.19395" lon="5.46637">
        <ele>203.45</ele>
        <time>2019-08-15T13:20:53.000Z</time>
      </trkpt>
      <trkpt lat="45.1939" lon="5.46622">
        <ele>204.57</ele>
        <time>2019-08-15T13:21:03.000Z</time>
      </trkpt>
      <trkpt lat="45.19386" lon="5.46609">
        <ele>205.31</ele>
        <time>2019-08-15T13:21:13.000Z</time>
      </trkpt>
      <trkpt lat="45.19386" lon="5.46596">
        <ele>203.54</ele>
        <time>2019-08-15T13:21:23.000Z</time>
      </trkpt>
      <trkpt lat="45.19386" lon="5.46581">
        <ele>203.21</ele>
        <time>2019-08-15T13:21:33.000Z</time>
      </trkpt>
      <trkpt lat="45.19386" lon="5.46566">
        <ele>202.6</ele>
        <time>2019-08-15T13:21:43.000Z</time>
      </trkpt>
      <trkpt lat="45.19385" lon="5.46544">
        <ele>202.34</ele>
        <time>2019-08-15T13:21:53.000Z</time>
      </trkpt>
      <trkpt lat="45.19385" lon="5.46522">
        <ele>204.96</ele>
        <time>2019-08-15T13:22:03.000Z</time>
      </trkpt>
      <trkpt lat="45.19384" lon="5.46502">
        <ele>206.3</ele>
        <time>2019-08-15T13:22:13.000Z</time>
      </trkpt>
      <trkpt lat="45.19382" lon="5.46483">
        <ele>211.2</ele>
        <time>2019-08-15T13:22:23.000Z</time>
      </trkpt>
      <trkpt lat="45.19381" lon="5.46467">
        <ele>212.58</ele>
        <time>2019-08-15T13:22:33.000Z</time>
      </trkpt>
      <trkpt lat="45.19379" lon="5.4645">
        <ele>213.54</ele>
        <time>2019-08-15T13:22:43.000Z</time>
      </trkpt>
      <trkpt lat="45.19377" lon="5.46435">
        <ele>213.19</ele>
        <time>2019-08-15T13:22:53.000Z</time>
      </trkpt>
      <trkpt lat="45.19377" lon="5.46418">
        <ele>212.61</ele>
        <time>2019-08-15T13:23:03.000Z</time>
      </trkpt>
      <trkpt lat="45.19372" lon="5.46402">
        <ele>212.57</ele>
        <time>2019-08-15T13:23:13.000Z</time>
      </trkpt>
      <trkpt lat="45.19365" lon="5.4639">
        <ele>211.64</ele>
        <time>2019-08-15T13:23:23.000Z</time>
      </trkpt>
      <trkpt lat="45.1936" lon="5.46375">
        <ele>210.74</ele>
        <time>2019-08-15T13:23:33.000Z</time>
      </trkpt>
      <trkpt lat="45.19354" lon="5.46358">
        <ele>211.16</ele>
        <time>2019-08-15T13:23:43.000Z</time>
      </trkpt>
      <trkpt lat="45.19354" lon="5.46344">
        <ele>209.38</ele>
        <time>2019-08-15T13:23:53.000Z</time>
      </trkpt>
      <trkpt lat="45.19361" lon="5.46329">
        <ele>209.62</ele>
        <time>2019-08-15T13:24:03.000Z</time>
      </trkpt>
      <trkpt lat="45.19367" lon="5.46323">
        <ele>208.72</ele>
        <time>2019-08-15T13:24:13.000Z</time>
      </trkpt>
      <trkpt lat="45.19374" lon="5.46311">
        <ele>206.73</ele>
        <time>2019-08-15T13:24:23.000Z</time>
      </trkpt>
      <trkpt lat="45.1938" lon="5.46299">
        <ele>204.33</ele>
        <time>2019-08-15T13:24:33.000Z</time>
      </trkpt>
      <trkpt lat="45.19392" lon="5.46291">
        <ele>202.24</ele>
        <time>2019-08-15T13:24:43.000Z</time>
      </trkpt>
      <trkpt lat="45.194" lon="5.46286">
        <ele>200.72</ele>
        <time>2019-08-15T13:24:53.000Z</time>
      </trkpt>
      <trkpt lat="45.19412" lon="5.46277">
        <ele>200.36</ele>
        <time>2019-08-15T13:25:05.000Z</time>
      </trkpt>
      <trkpt lat="45.19419" lon="5.46265">
        <ele>197.71</ele>
        <time>2019-08-15T13:25:15.000Z</time>
      </trkpt>
      <trkpt lat="45.19423" lon="5.46249">
        <ele>195.97</ele>
        <time>2019-08-15T13:25:25.000Z</time>
      </trkpt>
      <trkpt lat="45.19427" lon="5.46234">
        <ele>192.7</ele>
        <time>2019-08-15T13:25:35.000Z</time>
      </trkpt>
      <trkpt lat="45.19435" lon="5.46223">
        <ele>190.74</ele>
        <time>2019-08-15T13:25:45.000Z</time>
      </trkpt>
      <trkpt lat="45.19442" lon="5.46214">
        <ele>190.8</ele>
        <time>2019-08-15T13:25:55.000Z</time>
      </trkpt>
      <trkpt lat="45.19443" lon="5.46198">
        <ele>189.48</ele>
        <time>2019-08-15T13:26:05.000Z</time>
      </trkpt>
      <trkpt lat="45.1945" lon="5.46185">
        <ele>187.42</ele>
        <time>2019-08-15T13:26:15.000Z</time>
      </trkpt>
      <trkpt lat="45.19457" lon="5.46174">
        <ele>185.65</ele>
        <time>2019-08-15T13:26:25.000Z</time>
      </trkpt>
      <trkpt lat="45.19467" lon="5.46161">
        <ele>183.76</ele>
        <time>2019-08-15T13:26:35.000Z</time>
      </trkpt>
      <trkpt lat="45.19471" lon="5.46146">
        <ele>181.02</ele>
        <time>2019-08-15T13:26:45.000Z</time>
      </trkpt>
      <trkpt lat="45.19474" lon="5.46129">
        <ele>179.62</ele>
        <time>2019-08-15T13:26:55.000Z</time>
      </trkpt>
      <trkpt lat="45.19477" lon="5.46113">
        <ele>179.07</ele>
        <time>2019-08-15T13:27:07.000Z</time>
      </trkpt>
      <trkpt lat="45.19482" lon="5.46103">
        <ele>180.54</ele>
        <time>2019-08-15T13:27:17.000Z</time>
      </trkpt>
      <trkpt lat="45.19491" lon="5.46087">
        <ele>180.6</ele>
        <time>2019-08-15T13:27:27.000Z</time>
      </trkpt>
      <trkpt lat="45.19498" lon="5.46072">
        <ele>181.14</ele>
        <time>2019-08-15T13:27:37.000Z</time>
      </trkpt>
      <trkpt lat="45.19505" lon="5.46057">
        <ele>181.6</ele>
        <time>2019-08-15T13:27:47.000Z</time>
      </trkpt>
      <trkpt lat="45.19511" lon="5.46043">
        <ele>181.46</ele>
        <time>2019-08-15T13:27:57.000Z</time>
      </trkpt>
      <trkpt lat="45.19517" lon="5.4603">
        <ele>185.04</ele>
        <time>2019-08-15T13:28:07.000Z</time>
      </trkpt>
      <trkpt lat="45.19521" lon="5.46016">
        <ele>191.14</ele>
        <time>2019-08-15T13:28:17.000Z</time>
      </trkpt>
      <trkpt lat="45.19527" lon="5.45997">
        <ele>192.87</ele>
        <time>2019-08-15T13:28:27.000Z</time>
      </trkpt>
      <trkpt lat="45.19531" lon="5.4598">
        <ele>193.48</ele>
        <time>2019-08-15T13:28:37.000Z</time>
      </trkpt>
      <trkpt lat="45.1954" lon="5.45967">
        <ele>194</ele>
        <time>2019-08-15T13:28:47.000Z</time>
      </trkpt>
      <trkpt lat="45.19549" lon="5.45962">
        <ele>194.79</ele>
        <time>2019-08-15T13:28:57.000Z</time>
      </trkpt>
      <trkpt lat="45.1956" lon="5.45951">
        <ele>197.53</ele>
        <time>2019-08-15T13:29:07.000Z</time>
      </trkpt>
      <trkpt lat="45.1957" lon="5.4594">
        <ele>198.9</ele>
        <time>2019-08-15T13:29:17.000Z</time>
      </trkpt>
      <trkpt lat="45.19576" lon="5.45929">
        <ele>205.33</ele>
        <time>2019-08-15T13:29:27.000Z</time>
      </trkpt>
      <trkpt lat="45.19583" lon="5.45918">
        <ele>208.23</ele>
        <time>2019-08-15T13:29:37.000Z</time>
      </trkpt>
      <trkpt lat="45.19589" lon="5.45904">
        <ele>209.99</ele>
        <time>2019-08-15T13:29:47.000Z</time>
      </trkpt>
      <trkpt lat="45.19597" lon="5.45896">
        <ele>211.57</ele>
        <time>2019-08-15T13:29:57.000Z</time>
      </trkpt>
      <trkpt lat="45.19607" lon="5.45886">
        <ele>212.24</ele>
        <time>2019-08-15T13:30:07.000Z</time>
      </trkpt>
      <trkpt lat="45.19615" lon="5.45878">
        <ele>213.54</ele>
        <time>2019-08-15T13:30:17.000Z</time>
      </trkpt>
      <trkpt lat="45.19623" lon="5.45869">
        <ele>215.47</ele>
        <time>2019-08-15T13:30:27.000Z</time>
      </trkpt>
      <trkpt lat="45.19632" lon="5.45859">
        <ele>215.06</ele>
        <time>2019-08-15T13:30:37.000Z</time>
      </trkpt>
      <trkpt lat="45.19638" lon="5.45847">
        <ele>213.97</ele>
        <time>2019-08-15T13:30:47.000Z</time>
      </trkpt>
      <trkpt lat="45.19642" lon="5.45837">
        <ele>213.37</ele>
        <time>2019-08-15T13:30:57.000Z</time>
      </trkpt>
      <trkpt lat="45.19647" lon="5.45824">
        <ele>211.64</ele>
        <time>2019-08-15T13:31:07.000Z</time>
      </trkpt>
      <trkpt lat="45.19652" lon="5.45819">
        <ele>212.88</ele>
        <time>2019-08-15T13:31:17.000Z</time>
      </trkpt>
      <trkpt lat="45.19661" lon="5.45813">
        <ele>212.15</ele>
        <time>2019-08-15T13:31:27.000Z</time>
      </trkpt>
      <trkpt lat="45.19671" lon="5.45807">
        <ele>211.39</ele>
        <time>2019-08-15T13:31:37.000Z</time>
      </trkpt>
      <trkpt lat="45.19681" lon="5.45801">
        <ele>211.66</ele>
        <time>2019-08-15T13:31:47.000Z</time>
      </trkpt>
      <trkpt lat="45.19693" lon="5.458">
        <ele>214.39</ele>
        <time>2019-08-15T13:31:57.000Z</time>
      </trkpt>
      <trkpt lat="45.19703" lon="5.45795">
        <ele>215.59</ele>
        <time>2019-08-15T13:32:07.000Z</time>
      </trkpt>
      <trkpt lat="45.19719" lon="5.45796">
        <ele>219.32</ele>
        <time>2019-08-15T13:32:17.000Z</time>
      </trkpt>
      <trkpt lat="45.19732" lon="5.45797">
        <ele>222</ele>
        <time>2019-08-15T13:32:27.000Z</time>
      </trkpt>
      <trkpt lat="45.19738" lon="5.45803">
        <ele>222.86</ele>
        <time>2019-08-15T13:32:37.000Z</time>
      </trkpt>
      <trkpt lat="45.19744" lon="5.45808">
        <ele>224.73</ele>
        <time>2019-08-15T13:32:47.000Z</time>
      </trkpt>
      <trkpt lat="45.19755" lon="5.45819">
        <ele>223.82</ele>
        <time>2019-08-15T13:32:57.000Z</time>
      </trkpt>
      <trkpt lat="45.19768" lon="5.45835">
        <ele>222.06</ele>
        <time>2019-08-15T13:33:07.000Z</time>
      </trkpt>
      <trkpt lat="45.19778" lon="5.45849">
        <ele>223.6</ele>
        <time>2019-08-15T13:33:17.000Z</time>
      </trkpt>
      <trkpt lat="45.19786" lon="5.45863">
        <ele>225.58</ele>
        <time>2019-08-15T13:33:28.000Z</time>
      </trkpt>
      <trkpt lat="45.19791" lon="5.4588">
        <ele>226.57</ele>
        <time>2019-08-15T13:33:38.000Z</time>
      </trkpt>
      <trkpt lat="45.19795" lon="5.45898">
        <ele>225.74</ele>
        <time>2019-08-15T13:33:41.000Z</time>
      </trkpt>
      <trkpt lat="45.19803" lon="5.45913">
        <ele>225.61</ele>
        <time>2019-08-15T06:38:04.000Z</time>
      </trkpt>
      <trkpt lat="45.19809" lon="5.45921">
        <ele>227.12</ele>
        <time>2019-08-15T06:38:04.000Z</time>
      </trkpt>
      <trkpt lat="45.19821" lon="5.45932">
        <ele>228.42</ele>
        <time>2019-08-15T06:39:32.000Z</time>
      </trkpt>
      <trkpt lat="45.19832" lon="5.45943">
        <ele>229.61</ele>
        <time>2019-08-15T06:39:42.000Z</time>
      </trkpt>
      <trkpt lat="45.1984" lon="5.4595">
        <ele>230.77</ele>
        <time>2019-08-15T06:39:52.000Z</time>
      </trkpt>
      <trkpt lat="45.19848" lon="5.45959">
        <ele>228.77</ele>
        <time>2019-08-15T06:40:02.000Z</time>
      </trkpt>
      <trkpt lat="45.19859" lon="5.45952">
        <ele>227.46</ele>
        <time>2019-08-15T06:40:12.000Z</time>
      </trkpt>
      <trkpt lat="45.19868" lon="5.45938">
        <ele>230.77</ele>
        <time>2019-08-15T06:40:22.000Z</time>
      </trkpt>
      <trkpt lat="45.19875" lon="5.45924">
        <ele>230.92</ele>
        <time>2019-08-15T06:40:32.000Z</time>
      </trkpt>
      <trkpt lat="45.19883" lon="5.4591">
        <ele>229.75</ele>
        <time>2019-08-15T06:40:42.000Z</time>
      </trkpt>
      <trkpt lat="45.1989" lon="5.45916">
        <ele>227.87</ele>
        <time>2019-08-15T06:40:52.000Z</time>
      </trkpt>
      <trkpt lat="45.19896" lon="5.45932">
        <ele>222.59</ele>
        <time>2019-08-15T06:41:02.000Z</time>
      </trkpt>
      <trkpt lat="45.19907" lon="5.45947">
        <ele>223.25</ele>
        <time>2019-08-15T06:41:12.000Z</time>
      </trkpt>
      <trkpt lat="45.19916" lon="5.45957">
        <ele>223.21</ele>
        <time>2019-08-15T06:41:22.000Z</time>
      </trkpt>
      <trkpt lat="45.19928" lon="5.45969">
        <ele>223.35</ele>
        <time>2019-08-15T06:41:32.000Z</time>
      </trkpt>
      <trkpt lat="45.19934" lon="5.45982">
        <ele>224.49</ele>
        <time>2019-08-15T06:41:42.000Z</time>
      </trkpt>
      <trkpt lat="45.19936" lon="5.46001">
        <ele>220.49</ele>
        <time>2019-08-15T06:41:52.000Z</time>
      </trkpt>
      <trkpt lat="45.1994" lon="5.46018">
        <ele>220.59</ele>
        <time>2019-08-15T06:42:02.000Z</time>
      </trkpt>
      <trkpt lat="45.19944" lon="5.46035">
        <ele>219.02</ele>
      </trkpt>
      <trkpt lat="45.19949" lon="5.46051">
        <ele>218.83</ele>
      </trkpt>
      <trkpt lat="45.1996" lon="5.46067">
        <ele>219.97</ele>
      </trkpt>
      <trkpt lat="45.1997" lon="5.46075">
        <ele>217.45</ele>
      </trkpt>
      <trkpt lat="45.19981" lon="5.46081">
        <ele>219.57</ele>
      </trkpt>
      <trkpt lat="45.19993" lon="5.46087">
        <ele>219.77</ele>
      </trkpt>
      <trkpt lat="45.20003" lon="5.46091">
        <ele>219.08</ele>
      </trkpt>
      <trkpt lat="45.20016" lon="5.46099">
        <ele>218.58</ele>
      </trkpt>
      <trkpt lat="45.20028" lon="5.46104">
        <ele>218.29</ele>
      </trkpt>
      <trkpt lat="45.20039" lon="5.46111">
        <ele>219.4</ele>
      </trkpt>
      <trkpt lat="45.20051" lon="5.46125">
        <ele>218.98</ele>
      </trkpt>
      <trkpt lat="45.20061" lon="5.46141">
        <ele>218.63</ele>
      </trkpt>
      <trkpt lat="45.2007" lon="5.46154">
        <ele>217.85</ele>
      </trkpt>
      <trkpt lat="45.20078" lon="5.46169">
        <ele>216.32</ele>
      </trkpt>
      <trkpt lat="45.20081" lon="5.46174">
        <ele>213.1</ele>
      </trkpt>
      <trkpt lat="45.20088" lon="5.46189">
        <ele>212.75</ele>
      </trkpt>
      <trkpt lat="45.20098" lon="5.46204">
        <ele>214.57</ele>
      </trkpt>
      <trkpt lat="45.20107" lon="5.4622">
        <ele>212.16</ele>
      </trkpt>
      <trkpt lat="45.20115" lon="5.46233">
        <ele>213.36</ele>
      </trkpt>
      <trkpt lat="45.2012" lon="5.46246">
        <ele>212.01</ele>
      </trkpt>
      <trkpt lat="45.20125" lon="5.46259">
        <ele>209.16</ele>
      </trkpt>
      <trkpt lat="45.20133" lon="5.46273">
        <ele>206.07</ele>
      </trkpt>
      <trkpt lat="45.20143" lon="5.46286">
        <ele>204.7</ele>
      </trkpt>
      <trkpt lat="45.20151" lon="5.46301">
        <ele>200.82</ele>
      </trkpt>
      <trkpt lat="45.20161" lon="5.46314">
        <ele>199.63</ele>
      </trkpt>
      <trkpt lat="45.20168" lon="5.46326">
        <ele>197.86</ele>
      </trkpt>
      <trkpt lat="45.20172" lon="5.46328">
        <ele>196.98</ele>
      </trkpt>
      <trkpt lat="45.20178" lon="5.46341">
        <ele>198.91</ele>
      </trkpt>
      <trkpt lat="45.20184" lon="5.46355">
        <ele>198.78</ele>
      </trkpt>
      <trkpt lat="45.20192" lon="5.4637">
        <ele>198.51</ele>
      </trkpt>
      <trkpt lat="45.20199" lon="5.46386">
        <ele>197.75</ele>
      </trkpt>
      <trkpt lat="45.20209" lon="5.46397">
        <ele>198.58</ele>
      </trkpt>
      <trkpt lat="45.2022" lon="5.4641">
        <ele>197.63</ele>
      </trkpt>
      <trkpt lat="45.20231" lon="5.4642">
        <ele>197.37</ele>
      </trkpt>
      <trkpt lat="45.20243" lon="5.46426">
        <ele>197.57</ele>
      </trkpt>
      <trkpt lat="45.20255" lon="5.46434">
        <ele>197.63</ele>
      </trkpt>
      <trkpt lat="45.20266" lon="5.46439">
        <ele>195.86</ele>
      </trkpt>
      <trkpt lat="45.20278" lon="5.46446">
        <ele>197.54</ele>
      </trkpt>
      <trkpt lat="45.20291" lon="5.46452">
        <ele>198.22</ele>
      </trkpt>
      <trkpt lat="45.20303" lon="5.4646">
        <ele>195.81</ele>
      </trkpt>
      <trkpt lat="45.20316" lon="5.46464">
        <ele>194.64</ele>
      </trkpt>
      <trkpt lat="45.20327" lon="5.46468">
        <ele>193.04</ele>
      </trkpt>
      <trkpt lat="45.20341" lon="5.46474">
        <ele>190.32</ele>
      </trkpt>
      <trkpt lat="45.2035" lon="5.46483">
        <ele>189.63</ele>
      </trkpt>
      <trkpt lat="45.20363" lon="5.46491">
        <ele>188.34</ele>
      </trkpt>
      <trkpt lat="45.20375" lon="5.46499">
        <ele>189.18</ele>
      </trkpt>
      <trkpt lat="45.2039" lon="5.46501">
        <ele>187.68</ele>
      </trkpt>
      <trkpt lat="45.20401" lon="5.46495">
        <ele>189.53</ele>
      </trkpt>
      <trkpt lat="45.20413" lon="5.46494">
        <ele>190.07</ele>
      </trkpt>
      <trkpt lat="45.20425" lon="5.465">
        <ele>187.04</ele>
      </trkpt>
      <trkpt lat="45.20439" lon="5.46503">
        <ele>187.63</ele>
      </trkpt>
      <trkpt lat="45.20453" lon="5.46501">
        <ele>186.09</ele>
      </trkpt>
      <trkpt lat="45.20465" lon="5.46499">
        <ele>184.13</ele>
      </trkpt>
      <trkpt lat="45.20477" lon="5.46492">
        <ele>182.65</ele>
      </trkpt>
      <trkpt lat="45.20489" lon="5.46487">
        <ele>180.42</ele>
      </trkpt>
      <trkpt lat="45.205" lon="5.4648">
        <ele>180.06</ele>
      </trkpt>
      <trkpt lat="45.20508" lon="5.46469">
        <ele>181.62</ele>
      </trkpt>
      <trkpt lat="45.20517" lon="5.46463">
        <ele>180.64</ele>
      </trkpt>
      <trkpt lat="45.20527" lon="5.46454">
        <ele>181.23</ele>
      </trkpt>
      <trkpt lat="45.20538" lon="5.46443">
        <ele>180.73</ele>
      </trkpt>
      <trkpt lat="45.20548" lon="5.46432">
        <ele>182.46</ele>
      </trkpt>
      <trkpt lat="45.20555" lon="5.46425">
        <ele>182.64</ele>
      </trkpt>
      <trkpt lat="45.20561" lon="5.46424">
        <ele>185</ele>
      </trkpt>
      <trkpt lat="45.20566" lon="5.46433">
        <ele>185.2</ele>
      </trkpt>
      <trkpt lat="45.2057" lon="5.46444">
        <ele>179.69</ele>
      </trkpt>
      <trkpt lat="45.20574" lon="5.46448">
        <ele>180.42</ele>
      </trkpt>
      <trkpt lat="45.20593" lon="5.46474">
        <ele>182</ele>
      </trkpt>
      <trkpt lat="45.20599" lon="5.46485">
        <ele>182</ele>
      </trkpt>
      <trkpt lat="45.20608" lon="5.46499">
        <ele>182</ele>
      </trkpt>
    </trkseg>
  </trk>
</gpx>